<?xml version="1.0" encoding="UTF-8" standalone="no" ?>
<gpx xmlns="http://www.topografix.com/GPX/1/1" xmlns:xsi="http://www.w3.org/2001/XMLSchema-instance" xsi:schemaLocation="http://www.topografix.com/GPX/1/1 http://www.topografix.com/GPX/1/1/gpx.xsd" version="1.1" creator="VisuGPX - https://www.visugpx.com">
  <metadata>
    <name>VTT du samedi 11 août 2012 (avec Jacques)</name>
    <desc><![CDATA[parcours déjà fait, à un poil près.
A 18,7 km, on monte à pied 50 m car la pente est rude (pas Jacques)]]></desc>
  </metadata>
  <trk>
    <name><![CDATA[Coulevon07 (Jacques)]]></name>
    <trkseg>
      <trkpt lat="47.64443" lon="6.1831">
        <ele>225</ele>
        <time>2012-08-11T06:41:09.000Z</time>
      </trkpt>
      <trkpt lat="47.64443" lon="6.1831">
        <ele>225</ele>
        <time>2012-08-11T06:41:10.000Z</time>
      </trkpt>
      <trkpt lat="47.64439" lon="6.18303">
        <ele>225</ele>
        <time>2012-08-11T06:42:30.000Z</time>
      </trkpt>
      <trkpt lat="47.64441" lon="6.183">
        <ele>225</ele>
        <time>2012-08-11T06:42:33.000Z</time>
      </trkpt>
      <trkpt lat="47.64442" lon="6.18299">
        <ele>225</ele>
        <time>2012-08-11T06:42:34.000Z</time>
      </trkpt>
      <trkpt lat="47.64443" lon="6.18295">
        <ele>225</ele>
        <time>2012-08-11T06:42:37.000Z</time>
      </trkpt>
      <trkpt lat="47.64445" lon="6.18293">
        <ele>225</ele>
        <time>2012-08-11T06:42:39.000Z</time>
      </trkpt>
      <trkpt lat="47.64449" lon="6.18291">
        <ele>225</ele>
        <time>2012-08-11T06:42:44.000Z</time>
      </trkpt>
      <trkpt lat="47.6445" lon="6.18289">
        <ele>225</ele>
        <time>2012-08-11T06:42:45.000Z</time>
      </trkpt>
      <trkpt lat="47.64453" lon="6.18286">
        <ele>225</ele>
        <time>2012-08-11T06:42:48.000Z</time>
      </trkpt>
      <trkpt lat="47.64458" lon="6.18278">
        <ele>225</ele>
        <time>2012-08-11T06:42:52.000Z</time>
      </trkpt>
      <trkpt lat="47.64469" lon="6.18264">
        <ele>225</ele>
        <time>2012-08-11T06:42:59.000Z</time>
      </trkpt>
      <trkpt lat="47.64478" lon="6.18244">
        <ele>225</ele>
        <time>2012-08-11T06:43:04.000Z</time>
      </trkpt>
      <trkpt lat="47.64489" lon="6.18223">
        <ele>225</ele>
        <time>2012-08-11T06:43:10.000Z</time>
      </trkpt>
      <trkpt lat="47.64497" lon="6.18205">
        <ele>225</ele>
        <time>2012-08-11T06:43:15.000Z</time>
      </trkpt>
      <trkpt lat="47.64501" lon="6.18176">
        <ele>225</ele>
        <time>2012-08-11T06:43:20.000Z</time>
      </trkpt>
      <trkpt lat="47.64495" lon="6.1815">
        <ele>225</ele>
        <time>2012-08-11T06:43:24.000Z</time>
      </trkpt>
      <trkpt lat="47.64493" lon="6.18137">
        <ele>225</ele>
        <time>2012-08-11T06:43:26.000Z</time>
      </trkpt>
      <trkpt lat="47.64496" lon="6.18117">
        <ele>225</ele>
        <time>2012-08-11T06:43:29.000Z</time>
      </trkpt>
      <trkpt lat="47.64497" lon="6.18112">
        <ele>225</ele>
        <time>2012-08-11T06:43:30.000Z</time>
      </trkpt>
      <trkpt lat="47.64504" lon="6.18081">
        <ele>225</ele>
        <time>2012-08-11T06:43:36.000Z</time>
      </trkpt>
      <trkpt lat="47.64517" lon="6.18046">
        <ele>225</ele>
        <time>2012-08-11T06:43:44.000Z</time>
      </trkpt>
      <trkpt lat="47.64529" lon="6.18032">
        <ele>225</ele>
        <time>2012-08-11T06:43:49.000Z</time>
      </trkpt>
      <trkpt lat="47.64534" lon="6.18027">
        <ele>225.39999389648</ele>
        <time>2012-08-11T06:43:51.000Z</time>
      </trkpt>
      <trkpt lat="47.64535" lon="6.18025">
        <ele>225.80000305176</ele>
        <time>2012-08-11T06:43:52.000Z</time>
      </trkpt>
      <trkpt lat="47.64536" lon="6.18022">
        <ele>226.19999694824</ele>
        <time>2012-08-11T06:43:53.000Z</time>
      </trkpt>
      <trkpt lat="47.64538" lon="6.18019">
        <ele>226.60000610352</ele>
        <time>2012-08-11T06:43:54.000Z</time>
      </trkpt>
      <trkpt lat="47.64539" lon="6.18015">
        <ele>227</ele>
        <time>2012-08-11T06:43:55.000Z</time>
      </trkpt>
      <trkpt lat="47.64549" lon="6.17993">
        <ele>227</ele>
        <time>2012-08-11T06:44:01.000Z</time>
      </trkpt>
      <trkpt lat="47.64555" lon="6.17971">
        <ele>227</ele>
        <time>2012-08-11T06:44:05.000Z</time>
      </trkpt>
      <trkpt lat="47.64557" lon="6.17956">
        <ele>227</ele>
        <time>2012-08-11T06:44:07.000Z</time>
      </trkpt>
      <trkpt lat="47.64564" lon="6.17934">
        <ele>227</ele>
        <time>2012-08-11T06:44:10.000Z</time>
      </trkpt>
      <trkpt lat="47.64571" lon="6.17921">
        <ele>227</ele>
        <time>2012-08-11T06:44:12.000Z</time>
      </trkpt>
      <trkpt lat="47.6459" lon="6.17899">
        <ele>227</ele>
        <time>2012-08-11T06:44:16.000Z</time>
      </trkpt>
      <trkpt lat="47.64595" lon="6.17894">
        <ele>226.60000610352</ele>
        <time>2012-08-11T06:44:17.000Z</time>
      </trkpt>
      <trkpt lat="47.64601" lon="6.1789">
        <ele>226.19999694824</ele>
        <time>2012-08-11T06:44:18.000Z</time>
      </trkpt>
      <trkpt lat="47.64606" lon="6.17886">
        <ele>225.80000305176</ele>
        <time>2012-08-11T06:44:19.000Z</time>
      </trkpt>
      <trkpt lat="47.6461" lon="6.17881">
        <ele>225</ele>
        <time>2012-08-11T06:44:20.000Z</time>
      </trkpt>
      <trkpt lat="47.64616" lon="6.17869">
        <ele>225</ele>
        <time>2012-08-11T06:44:22.000Z</time>
      </trkpt>
      <trkpt lat="47.64618" lon="6.17855">
        <ele>225</ele>
        <time>2012-08-11T06:44:24.000Z</time>
      </trkpt>
      <trkpt lat="47.64621" lon="6.17842">
        <ele>225</ele>
        <time>2012-08-11T06:44:26.000Z</time>
      </trkpt>
      <trkpt lat="47.6463" lon="6.17811">
        <ele>225</ele>
        <time>2012-08-11T06:44:32.000Z</time>
      </trkpt>
      <trkpt lat="47.64637" lon="6.17798">
        <ele>225</ele>
        <time>2012-08-11T06:44:35.000Z</time>
      </trkpt>
      <trkpt lat="47.64637" lon="6.1779">
        <ele>225</ele>
        <time>2012-08-11T06:44:36.000Z</time>
      </trkpt>
      <trkpt lat="47.64634" lon="6.1777">
        <ele>225</ele>
        <time>2012-08-11T06:44:39.000Z</time>
      </trkpt>
      <trkpt lat="47.64632" lon="6.17763">
        <ele>225</ele>
        <time>2012-08-11T06:44:40.000Z</time>
      </trkpt>
      <trkpt lat="47.64621" lon="6.17731">
        <ele>225</ele>
        <time>2012-08-11T06:44:46.000Z</time>
      </trkpt>
      <trkpt lat="47.64615" lon="6.17698">
        <ele>225</ele>
        <time>2012-08-11T06:44:52.000Z</time>
      </trkpt>
      <trkpt lat="47.64618" lon="6.17663">
        <ele>225</ele>
        <time>2012-08-11T06:44:58.000Z</time>
      </trkpt>
      <trkpt lat="47.6463" lon="6.17625">
        <ele>225</ele>
        <time>2012-08-11T06:45:06.000Z</time>
      </trkpt>
      <trkpt lat="47.64639" lon="6.1761">
        <ele>225</ele>
        <time>2012-08-11T06:45:11.000Z</time>
      </trkpt>
      <trkpt lat="47.64642" lon="6.17608">
        <ele>225.39999389648</ele>
        <time>2012-08-11T06:45:12.000Z</time>
      </trkpt>
      <trkpt lat="47.64644" lon="6.17606">
        <ele>225.80000305176</ele>
        <time>2012-08-11T06:45:13.000Z</time>
      </trkpt>
      <trkpt lat="47.64646" lon="6.17605">
        <ele>226.19999694824</ele>
        <time>2012-08-11T06:45:14.000Z</time>
      </trkpt>
      <trkpt lat="47.64647" lon="6.17604">
        <ele>226.80000305176</ele>
        <time>2012-08-11T06:45:15.000Z</time>
      </trkpt>
      <trkpt lat="47.64649" lon="6.17602">
        <ele>227.19999694824</ele>
        <time>2012-08-11T06:45:16.000Z</time>
      </trkpt>
      <trkpt lat="47.6466" lon="6.17598">
        <ele>227.60000610352</ele>
        <time>2012-08-11T06:45:23.000Z</time>
      </trkpt>
      <trkpt lat="47.64661" lon="6.17597">
        <ele>228</ele>
        <time>2012-08-11T06:45:24.000Z</time>
      </trkpt>
      <trkpt lat="47.64663" lon="6.17597">
        <ele>228.39999389648</ele>
        <time>2012-08-11T06:45:25.000Z</time>
      </trkpt>
      <trkpt lat="47.64665" lon="6.17596">
        <ele>228.80000305176</ele>
        <time>2012-08-11T06:45:26.000Z</time>
      </trkpt>
      <trkpt lat="47.64667" lon="6.17595">
        <ele>229.19999694824</ele>
        <time>2012-08-11T06:45:27.000Z</time>
      </trkpt>
      <trkpt lat="47.64672" lon="6.17593">
        <ele>229.19999694824</ele>
        <time>2012-08-11T06:45:29.000Z</time>
      </trkpt>
      <trkpt lat="47.64686" lon="6.1758">
        <ele>229.19999694824</ele>
        <time>2012-08-11T06:45:36.000Z</time>
      </trkpt>
      <trkpt lat="47.64691" lon="6.17575">
        <ele>229.60000610352</ele>
        <time>2012-08-11T06:45:39.000Z</time>
      </trkpt>
      <trkpt lat="47.64693" lon="6.17572">
        <ele>230</ele>
        <time>2012-08-11T06:45:40.000Z</time>
      </trkpt>
      <trkpt lat="47.64695" lon="6.17571">
        <ele>230.39999389648</ele>
        <time>2012-08-11T06:45:41.000Z</time>
      </trkpt>
      <trkpt lat="47.64696" lon="6.17567">
        <ele>230.80000305176</ele>
        <time>2012-08-11T06:45:42.000Z</time>
      </trkpt>
      <trkpt lat="47.64697" lon="6.17564">
        <ele>231.39999389648</ele>
        <time>2012-08-11T06:45:43.000Z</time>
      </trkpt>
      <trkpt lat="47.64707" lon="6.17551">
        <ele>231.39999389648</ele>
        <time>2012-08-11T06:45:49.000Z</time>
      </trkpt>
      <trkpt lat="47.64713" lon="6.17541">
        <ele>231.80000305176</ele>
        <time>2012-08-11T06:45:54.000Z</time>
      </trkpt>
      <trkpt lat="47.64714" lon="6.1754">
        <ele>232.19999694824</ele>
        <time>2012-08-11T06:45:55.000Z</time>
      </trkpt>
      <trkpt lat="47.64715" lon="6.17538">
        <ele>232.60000610352</ele>
        <time>2012-08-11T06:45:56.000Z</time>
      </trkpt>
      <trkpt lat="47.64716" lon="6.17536">
        <ele>233</ele>
        <time>2012-08-11T06:45:57.000Z</time>
      </trkpt>
      <trkpt lat="47.64717" lon="6.17533">
        <ele>233.39999389648</ele>
        <time>2012-08-11T06:45:58.000Z</time>
      </trkpt>
      <trkpt lat="47.64722" lon="6.17523">
        <ele>233.39999389648</ele>
        <time>2012-08-11T06:46:02.000Z</time>
      </trkpt>
      <trkpt lat="47.64728" lon="6.17507">
        <ele>233.80000305176</ele>
        <time>2012-08-11T06:46:09.000Z</time>
      </trkpt>
      <trkpt lat="47.64729" lon="6.17505">
        <ele>234.19999694824</ele>
        <time>2012-08-11T06:46:10.000Z</time>
      </trkpt>
      <trkpt lat="47.6473" lon="6.17503">
        <ele>234.60000610352</ele>
        <time>2012-08-11T06:46:11.000Z</time>
      </trkpt>
      <trkpt lat="47.64731" lon="6.17501">
        <ele>235</ele>
        <time>2012-08-11T06:46:12.000Z</time>
      </trkpt>
      <trkpt lat="47.64732" lon="6.17498">
        <ele>235.39999389648</ele>
        <time>2012-08-11T06:46:13.000Z</time>
      </trkpt>
      <trkpt lat="47.64736" lon="6.17489">
        <ele>235.39999389648</ele>
        <time>2012-08-11T06:46:17.000Z</time>
      </trkpt>
      <trkpt lat="47.64741" lon="6.17477">
        <ele>235.39999389648</ele>
        <time>2012-08-11T06:46:22.000Z</time>
      </trkpt>
      <trkpt lat="47.64743" lon="6.17467">
        <ele>235.80000305176</ele>
        <time>2012-08-11T06:46:26.000Z</time>
      </trkpt>
      <trkpt lat="47.64744" lon="6.17465">
        <ele>236.19999694824</ele>
        <time>2012-08-11T06:46:27.000Z</time>
      </trkpt>
      <trkpt lat="47.64745" lon="6.17463">
        <ele>236.60000610352</ele>
        <time>2012-08-11T06:46:28.000Z</time>
      </trkpt>
      <trkpt lat="47.64746" lon="6.17461">
        <ele>237</ele>
        <time>2012-08-11T06:46:29.000Z</time>
      </trkpt>
      <trkpt lat="47.64747" lon="6.17458">
        <ele>237.39999389648</ele>
        <time>2012-08-11T06:46:30.000Z</time>
      </trkpt>
      <trkpt lat="47.6475" lon="6.17447">
        <ele>237.39999389648</ele>
        <time>2012-08-11T06:46:35.000Z</time>
      </trkpt>
      <trkpt lat="47.64752" lon="6.17424">
        <ele>237.39999389648</ele>
        <time>2012-08-11T06:46:43.000Z</time>
      </trkpt>
      <trkpt lat="47.64753" lon="6.17422">
        <ele>237.80000305176</ele>
        <time>2012-08-11T06:46:44.000Z</time>
      </trkpt>
      <trkpt lat="47.64753" lon="6.17419">
        <ele>238.19999694824</ele>
        <time>2012-08-11T06:46:45.000Z</time>
      </trkpt>
      <trkpt lat="47.64754" lon="6.17416">
        <ele>238.80000305176</ele>
        <time>2012-08-11T06:46:46.000Z</time>
      </trkpt>
      <trkpt lat="47.64755" lon="6.17412">
        <ele>239.19999694824</ele>
        <time>2012-08-11T06:46:47.000Z</time>
      </trkpt>
      <trkpt lat="47.64755" lon="6.1741">
        <ele>239.60000610352</ele>
        <time>2012-08-11T06:46:48.000Z</time>
      </trkpt>
      <trkpt lat="47.64762" lon="6.17385">
        <ele>239.60000610352</ele>
        <time>2012-08-11T06:46:56.000Z</time>
      </trkpt>
      <trkpt lat="47.64769" lon="6.17368">
        <ele>239.60000610352</ele>
        <time>2012-08-11T06:47:02.000Z</time>
      </trkpt>
      <trkpt lat="47.64771" lon="6.17365">
        <ele>240</ele>
        <time>2012-08-11T06:47:03.000Z</time>
      </trkpt>
      <trkpt lat="47.64772" lon="6.17362">
        <ele>240.39999389648</ele>
        <time>2012-08-11T06:47:04.000Z</time>
      </trkpt>
      <trkpt lat="47.64773" lon="6.17359">
        <ele>240.80000305176</ele>
        <time>2012-08-11T06:47:05.000Z</time>
      </trkpt>
      <trkpt lat="47.64774" lon="6.17357">
        <ele>241.19999694824</ele>
        <time>2012-08-11T06:47:06.000Z</time>
      </trkpt>
      <trkpt lat="47.64775" lon="6.17354">
        <ele>241.60000610352</ele>
        <time>2012-08-11T06:47:07.000Z</time>
      </trkpt>
      <trkpt lat="47.64777" lon="6.17346">
        <ele>241.60000610352</ele>
        <time>2012-08-11T06:47:10.000Z</time>
      </trkpt>
      <trkpt lat="47.64784" lon="6.17325">
        <ele>242</ele>
        <time>2012-08-11T06:47:18.000Z</time>
      </trkpt>
      <trkpt lat="47.64785" lon="6.17322">
        <ele>242.39999389648</ele>
        <time>2012-08-11T06:47:19.000Z</time>
      </trkpt>
      <trkpt lat="47.64786" lon="6.1732">
        <ele>242.80000305176</ele>
        <time>2012-08-11T06:47:20.000Z</time>
      </trkpt>
      <trkpt lat="47.64787" lon="6.17318">
        <ele>243.19999694824</ele>
        <time>2012-08-11T06:47:21.000Z</time>
      </trkpt>
      <trkpt lat="47.64788" lon="6.17315">
        <ele>243.60000610352</ele>
        <time>2012-08-11T06:47:22.000Z</time>
      </trkpt>
      <trkpt lat="47.64791" lon="6.17307">
        <ele>243.60000610352</ele>
        <time>2012-08-11T06:47:25.000Z</time>
      </trkpt>
      <trkpt lat="47.64798" lon="6.17286">
        <ele>243.60000610352</ele>
        <time>2012-08-11T06:47:33.000Z</time>
      </trkpt>
      <trkpt lat="47.64805" lon="6.17269">
        <ele>243.60000610352</ele>
        <time>2012-08-11T06:47:39.000Z</time>
      </trkpt>
      <trkpt lat="47.64808" lon="6.17261">
        <ele>244</ele>
        <time>2012-08-11T06:47:42.000Z</time>
      </trkpt>
      <trkpt lat="47.64809" lon="6.17258">
        <ele>244.39999389648</ele>
        <time>2012-08-11T06:47:43.000Z</time>
      </trkpt>
      <trkpt lat="47.6481" lon="6.17255">
        <ele>244.80000305176</ele>
        <time>2012-08-11T06:47:44.000Z</time>
      </trkpt>
      <trkpt lat="47.64811" lon="6.17252">
        <ele>245.19999694824</ele>
        <time>2012-08-11T06:47:45.000Z</time>
      </trkpt>
      <trkpt lat="47.64812" lon="6.17249">
        <ele>245.60000610352</ele>
        <time>2012-08-11T06:47:46.000Z</time>
      </trkpt>
      <trkpt lat="47.64814" lon="6.17244">
        <ele>245.60000610352</ele>
        <time>2012-08-11T06:47:48.000Z</time>
      </trkpt>
      <trkpt lat="47.64821" lon="6.17227">
        <ele>245.60000610352</ele>
        <time>2012-08-11T06:47:53.000Z</time>
      </trkpt>
      <trkpt lat="47.64832" lon="6.17207">
        <ele>245.60000610352</ele>
        <time>2012-08-11T06:48:00.000Z</time>
      </trkpt>
      <trkpt lat="47.6484" lon="6.17194">
        <ele>245.60000610352</ele>
        <time>2012-08-11T06:48:05.000Z</time>
      </trkpt>
      <trkpt lat="47.64841" lon="6.17192">
        <ele>246</ele>
        <time>2012-08-11T06:48:06.000Z</time>
      </trkpt>
      <trkpt lat="47.64842" lon="6.17189">
        <ele>246.39999389648</ele>
        <time>2012-08-11T06:48:07.000Z</time>
      </trkpt>
      <trkpt lat="47.64844" lon="6.17187">
        <ele>247</ele>
        <time>2012-08-11T06:48:08.000Z</time>
      </trkpt>
      <trkpt lat="47.64846" lon="6.17185">
        <ele>247.39999389648</ele>
        <time>2012-08-11T06:48:09.000Z</time>
      </trkpt>
      <trkpt lat="47.64848" lon="6.17182">
        <ele>247.80000305176</ele>
        <time>2012-08-11T06:48:10.000Z</time>
      </trkpt>
      <trkpt lat="47.64852" lon="6.17177">
        <ele>247.80000305176</ele>
        <time>2012-08-11T06:48:12.000Z</time>
      </trkpt>
      <trkpt lat="47.64854" lon="6.17175">
        <ele>247.80000305176</ele>
        <time>2012-08-11T06:48:13.000Z</time>
      </trkpt>
      <trkpt lat="47.64863" lon="6.17166">
        <ele>247.80000305176</ele>
        <time>2012-08-11T06:48:18.000Z</time>
      </trkpt>
      <trkpt lat="47.64879" lon="6.17151">
        <ele>247.80000305176</ele>
        <time>2012-08-11T06:48:26.000Z</time>
      </trkpt>
      <trkpt lat="47.64893" lon="6.17137">
        <ele>247.80000305176</ele>
        <time>2012-08-11T06:48:34.000Z</time>
      </trkpt>
      <trkpt lat="47.64897" lon="6.17134">
        <ele>248.19999694824</ele>
        <time>2012-08-11T06:48:36.000Z</time>
      </trkpt>
      <trkpt lat="47.64899" lon="6.17132">
        <ele>248.60000610352</ele>
        <time>2012-08-11T06:48:37.000Z</time>
      </trkpt>
      <trkpt lat="47.649" lon="6.1713">
        <ele>249</ele>
        <time>2012-08-11T06:48:38.000Z</time>
      </trkpt>
      <trkpt lat="47.64902" lon="6.17129">
        <ele>249.39999389648</ele>
        <time>2012-08-11T06:48:39.000Z</time>
      </trkpt>
      <trkpt lat="47.64904" lon="6.17127">
        <ele>249.80000305176</ele>
        <time>2012-08-11T06:48:40.000Z</time>
      </trkpt>
      <trkpt lat="47.64908" lon="6.17123">
        <ele>249.80000305176</ele>
        <time>2012-08-11T06:48:42.000Z</time>
      </trkpt>
      <trkpt lat="47.64921" lon="6.17109">
        <ele>249.80000305176</ele>
        <time>2012-08-11T06:48:48.000Z</time>
      </trkpt>
      <trkpt lat="47.64937" lon="6.17088">
        <ele>249.80000305176</ele>
        <time>2012-08-11T06:48:57.000Z</time>
      </trkpt>
      <trkpt lat="47.64948" lon="6.17072">
        <ele>249.80000305176</ele>
        <time>2012-08-11T06:49:04.000Z</time>
      </trkpt>
      <trkpt lat="47.64961" lon="6.17059">
        <ele>249.80000305176</ele>
        <time>2012-08-11T06:49:11.000Z</time>
      </trkpt>
      <trkpt lat="47.64973" lon="6.17045">
        <ele>249.80000305176</ele>
        <time>2012-08-11T06:49:17.000Z</time>
      </trkpt>
      <trkpt lat="47.64982" lon="6.17034">
        <ele>249.80000305176</ele>
        <time>2012-08-11T06:49:23.000Z</time>
      </trkpt>
      <trkpt lat="47.64996" lon="6.17015">
        <ele>249.80000305176</ele>
        <time>2012-08-11T06:49:30.000Z</time>
      </trkpt>
      <trkpt lat="47.65011" lon="6.16995">
        <ele>249.80000305176</ele>
        <time>2012-08-11T06:49:37.000Z</time>
      </trkpt>
      <trkpt lat="47.65026" lon="6.16973">
        <ele>249.80000305176</ele>
        <time>2012-08-11T06:49:44.000Z</time>
      </trkpt>
      <trkpt lat="47.65041" lon="6.1695">
        <ele>249.80000305176</ele>
        <time>2012-08-11T06:49:50.000Z</time>
      </trkpt>
      <trkpt lat="47.65057" lon="6.16926">
        <ele>249.80000305176</ele>
        <time>2012-08-11T06:49:57.000Z</time>
      </trkpt>
      <trkpt lat="47.65073" lon="6.16904">
        <ele>249.80000305176</ele>
        <time>2012-08-11T06:50:05.000Z</time>
      </trkpt>
      <trkpt lat="47.65087" lon="6.16883">
        <ele>249.80000305176</ele>
        <time>2012-08-11T06:50:13.000Z</time>
      </trkpt>
      <trkpt lat="47.65097" lon="6.16866">
        <ele>249.80000305176</ele>
        <time>2012-08-11T06:50:19.000Z</time>
      </trkpt>
      <trkpt lat="47.65111" lon="6.16844">
        <ele>249.80000305176</ele>
        <time>2012-08-11T06:50:26.000Z</time>
      </trkpt>
      <trkpt lat="47.65131" lon="6.16817">
        <ele>249.80000305176</ele>
        <time>2012-08-11T06:50:35.000Z</time>
      </trkpt>
      <trkpt lat="47.65135" lon="6.16811">
        <ele>249.80000305176</ele>
        <time>2012-08-11T06:50:37.000Z</time>
      </trkpt>
      <trkpt lat="47.65143" lon="6.16801">
        <ele>249.80000305176</ele>
        <time>2012-08-11T06:50:42.000Z</time>
      </trkpt>
      <trkpt lat="47.65147" lon="6.16795">
        <ele>249.80000305176</ele>
        <time>2012-08-11T06:50:48.000Z</time>
      </trkpt>
      <trkpt lat="47.65147" lon="6.16794">
        <ele>249.80000305176</ele>
        <time>2012-08-11T06:50:59.000Z</time>
      </trkpt>
      <trkpt lat="47.65149" lon="6.16786">
        <ele>249.80000305176</ele>
        <time>2012-08-11T06:51:02.000Z</time>
      </trkpt>
      <trkpt lat="47.65162" lon="6.1677">
        <ele>249.80000305176</ele>
        <time>2012-08-11T06:51:07.000Z</time>
      </trkpt>
      <trkpt lat="47.6518" lon="6.16742">
        <ele>249.80000305176</ele>
        <time>2012-08-11T06:51:14.000Z</time>
      </trkpt>
      <trkpt lat="47.65194" lon="6.1672">
        <ele>249.80000305176</ele>
        <time>2012-08-11T06:51:20.000Z</time>
      </trkpt>
      <trkpt lat="47.65201" lon="6.1671">
        <ele>249.39999389648</ele>
        <time>2012-08-11T06:51:23.000Z</time>
      </trkpt>
      <trkpt lat="47.65203" lon="6.16706">
        <ele>249</ele>
        <time>2012-08-11T06:51:24.000Z</time>
      </trkpt>
      <trkpt lat="47.65204" lon="6.16703">
        <ele>248.60000610352</ele>
        <time>2012-08-11T06:51:25.000Z</time>
      </trkpt>
      <trkpt lat="47.65206" lon="6.16701">
        <ele>248.19999694824</ele>
        <time>2012-08-11T06:51:26.000Z</time>
      </trkpt>
      <trkpt lat="47.65206" lon="6.16699">
        <ele>247.80000305176</ele>
        <time>2012-08-11T06:51:27.000Z</time>
      </trkpt>
      <trkpt lat="47.65207" lon="6.16699">
        <ele>247.80000305176</ele>
        <time>2012-08-11T06:51:29.000Z</time>
      </trkpt>
      <trkpt lat="47.65212" lon="6.1669">
        <ele>248</ele>
        <time>2012-08-11T06:52:38.000Z</time>
      </trkpt>
      <trkpt lat="47.65221" lon="6.16676">
        <ele>247.60000610352</ele>
        <time>2012-08-11T06:52:42.000Z</time>
      </trkpt>
      <trkpt lat="47.65223" lon="6.16672">
        <ele>247.19999694824</ele>
        <time>2012-08-11T06:52:43.000Z</time>
      </trkpt>
      <trkpt lat="47.65226" lon="6.16668">
        <ele>246.60000610352</ele>
        <time>2012-08-11T06:52:44.000Z</time>
      </trkpt>
      <trkpt lat="47.65229" lon="6.16666">
        <ele>246.19999694824</ele>
        <time>2012-08-11T06:52:45.000Z</time>
      </trkpt>
      <trkpt lat="47.65232" lon="6.16663">
        <ele>245.80000305176</ele>
        <time>2012-08-11T06:52:46.000Z</time>
      </trkpt>
      <trkpt lat="47.65234" lon="6.16654">
        <ele>245.80000305176</ele>
        <time>2012-08-11T06:52:48.000Z</time>
      </trkpt>
      <trkpt lat="47.65231" lon="6.16645">
        <ele>245.39999389648</ele>
        <time>2012-08-11T06:52:50.000Z</time>
      </trkpt>
      <trkpt lat="47.65228" lon="6.16642">
        <ele>245</ele>
        <time>2012-08-11T06:52:51.000Z</time>
      </trkpt>
      <trkpt lat="47.65226" lon="6.16639">
        <ele>244.60000610352</ele>
        <time>2012-08-11T06:52:52.000Z</time>
      </trkpt>
      <trkpt lat="47.65224" lon="6.16636">
        <ele>244.19999694824</ele>
        <time>2012-08-11T06:52:53.000Z</time>
      </trkpt>
      <trkpt lat="47.65221" lon="6.16632">
        <ele>243.80000305176</ele>
        <time>2012-08-11T06:52:54.000Z</time>
      </trkpt>
      <trkpt lat="47.65212" lon="6.16621">
        <ele>243.80000305176</ele>
        <time>2012-08-11T06:52:57.000Z</time>
      </trkpt>
      <trkpt lat="47.65198" lon="6.16598">
        <ele>243.80000305176</ele>
        <time>2012-08-11T06:53:03.000Z</time>
      </trkpt>
      <trkpt lat="47.65182" lon="6.16576">
        <ele>243.80000305176</ele>
        <time>2012-08-11T06:53:10.000Z</time>
      </trkpt>
      <trkpt lat="47.65176" lon="6.16568">
        <ele>243.19999694824</ele>
        <time>2012-08-11T06:53:13.000Z</time>
      </trkpt>
      <trkpt lat="47.65174" lon="6.16565">
        <ele>242.80000305176</ele>
        <time>2012-08-11T06:53:14.000Z</time>
      </trkpt>
      <trkpt lat="47.65172" lon="6.16563">
        <ele>242.39999389648</ele>
        <time>2012-08-11T06:53:15.000Z</time>
      </trkpt>
      <trkpt lat="47.6517" lon="6.1656">
        <ele>242</ele>
        <time>2012-08-11T06:53:16.000Z</time>
      </trkpt>
      <trkpt lat="47.65168" lon="6.16558">
        <ele>241.60000610352</ele>
        <time>2012-08-11T06:53:17.000Z</time>
      </trkpt>
      <trkpt lat="47.65158" lon="6.16545">
        <ele>241.60000610352</ele>
        <time>2012-08-11T06:53:22.000Z</time>
      </trkpt>
      <trkpt lat="47.65157" lon="6.16542">
        <ele>241.60000610352</ele>
        <time>2012-08-11T06:53:23.000Z</time>
      </trkpt>
      <trkpt lat="47.65158" lon="6.16536">
        <ele>241.60000610352</ele>
        <time>2012-08-11T06:53:25.000Z</time>
      </trkpt>
      <trkpt lat="47.6516" lon="6.16533">
        <ele>241.60000610352</ele>
        <time>2012-08-11T06:53:26.000Z</time>
      </trkpt>
      <trkpt lat="47.6517" lon="6.16526">
        <ele>241.60000610352</ele>
        <time>2012-08-11T06:53:30.000Z</time>
      </trkpt>
      <trkpt lat="47.65176" lon="6.16526">
        <ele>241.19999694824</ele>
        <time>2012-08-11T06:53:32.000Z</time>
      </trkpt>
      <trkpt lat="47.65178" lon="6.16527">
        <ele>240.80000305176</ele>
        <time>2012-08-11T06:53:33.000Z</time>
      </trkpt>
      <trkpt lat="47.65181" lon="6.16526">
        <ele>240.39999389648</ele>
        <time>2012-08-11T06:53:34.000Z</time>
      </trkpt>
      <trkpt lat="47.65184" lon="6.16526">
        <ele>240</ele>
        <time>2012-08-11T06:53:35.000Z</time>
      </trkpt>
      <trkpt lat="47.65187" lon="6.16526">
        <ele>239.60000610352</ele>
        <time>2012-08-11T06:53:36.000Z</time>
      </trkpt>
      <trkpt lat="47.65207" lon="6.16525">
        <ele>239.19999694824</ele>
        <time>2012-08-11T06:53:41.000Z</time>
      </trkpt>
      <trkpt lat="47.65213" lon="6.16525">
        <ele>238.80000305176</ele>
        <time>2012-08-11T06:53:42.000Z</time>
      </trkpt>
      <trkpt lat="47.65219" lon="6.16525">
        <ele>238.39999389648</ele>
        <time>2012-08-11T06:53:43.000Z</time>
      </trkpt>
      <trkpt lat="47.65225" lon="6.16524">
        <ele>238</ele>
        <time>2012-08-11T06:53:44.000Z</time>
      </trkpt>
      <trkpt lat="47.65231" lon="6.16524">
        <ele>237.39999389648</ele>
        <time>2012-08-11T06:53:45.000Z</time>
      </trkpt>
      <trkpt lat="47.65237" lon="6.16522">
        <ele>237</ele>
        <time>2012-08-11T06:53:46.000Z</time>
      </trkpt>
      <trkpt lat="47.65242" lon="6.16522">
        <ele>236.60000610352</ele>
        <time>2012-08-11T06:53:47.000Z</time>
      </trkpt>
      <trkpt lat="47.65247" lon="6.16521">
        <ele>235.60000610352</ele>
        <time>2012-08-11T06:53:48.000Z</time>
      </trkpt>
      <trkpt lat="47.65252" lon="6.16522">
        <ele>235.60000610352</ele>
        <time>2012-08-11T06:53:49.000Z</time>
      </trkpt>
      <trkpt lat="47.65261" lon="6.16523">
        <ele>235.19999694824</ele>
        <time>2012-08-11T06:53:51.000Z</time>
      </trkpt>
      <trkpt lat="47.65265" lon="6.16523">
        <ele>234.80000305176</ele>
        <time>2012-08-11T06:53:52.000Z</time>
      </trkpt>
      <trkpt lat="47.65268" lon="6.16523">
        <ele>234.39999389648</ele>
        <time>2012-08-11T06:53:53.000Z</time>
      </trkpt>
      <trkpt lat="47.65271" lon="6.16523">
        <ele>233.80000305176</ele>
        <time>2012-08-11T06:53:54.000Z</time>
      </trkpt>
      <trkpt lat="47.65274" lon="6.16522">
        <ele>233.39999389648</ele>
        <time>2012-08-11T06:53:55.000Z</time>
      </trkpt>
      <trkpt lat="47.65276" lon="6.16522">
        <ele>233.39999389648</ele>
        <time>2012-08-11T06:53:56.000Z</time>
      </trkpt>
      <trkpt lat="47.65292" lon="6.16521">
        <ele>233.39999389648</ele>
        <time>2012-08-11T06:54:03.000Z</time>
      </trkpt>
      <trkpt lat="47.65305" lon="6.1652">
        <ele>233.39999389648</ele>
        <time>2012-08-11T06:54:09.000Z</time>
      </trkpt>
      <trkpt lat="47.6531" lon="6.1652">
        <ele>233.39999389648</ele>
        <time>2012-08-11T06:54:14.000Z</time>
      </trkpt>
      <trkpt lat="47.65316" lon="6.16512">
        <ele>233.39999389648</ele>
        <time>2012-08-11T06:55:57.000Z</time>
      </trkpt>
      <trkpt lat="47.65319" lon="6.16513">
        <ele>233.39999389648</ele>
        <time>2012-08-11T06:55:59.000Z</time>
      </trkpt>
      <trkpt lat="47.65327" lon="6.16514">
        <ele>233.39999389648</ele>
        <time>2012-08-11T06:56:02.000Z</time>
      </trkpt>
      <trkpt lat="47.65352" lon="6.16519">
        <ele>233.39999389648</ele>
        <time>2012-08-11T06:56:09.000Z</time>
      </trkpt>
      <trkpt lat="47.6538" lon="6.16524">
        <ele>233.39999389648</ele>
        <time>2012-08-11T06:56:16.000Z</time>
      </trkpt>
      <trkpt lat="47.65414" lon="6.16529">
        <ele>233.39999389648</ele>
        <time>2012-08-11T06:56:23.000Z</time>
      </trkpt>
      <trkpt lat="47.65456" lon="6.16537">
        <ele>233.39999389648</ele>
        <time>2012-08-11T06:56:32.000Z</time>
      </trkpt>
      <trkpt lat="47.65491" lon="6.16542">
        <ele>233.39999389648</ele>
        <time>2012-08-11T06:56:40.000Z</time>
      </trkpt>
      <trkpt lat="47.65514" lon="6.16545">
        <ele>233.39999389648</ele>
        <time>2012-08-11T06:56:46.000Z</time>
      </trkpt>
      <trkpt lat="47.65535" lon="6.16548">
        <ele>233.39999389648</ele>
        <time>2012-08-11T06:56:52.000Z</time>
      </trkpt>
      <trkpt lat="47.65544" lon="6.16536">
        <ele>233.39999389648</ele>
        <time>2012-08-11T06:56:55.000Z</time>
      </trkpt>
      <trkpt lat="47.65547" lon="6.1653">
        <ele>233.39999389648</ele>
        <time>2012-08-11T06:56:56.000Z</time>
      </trkpt>
      <trkpt lat="47.65564" lon="6.16488">
        <ele>233.39999389648</ele>
        <time>2012-08-11T06:57:02.000Z</time>
      </trkpt>
      <trkpt lat="47.65581" lon="6.16464">
        <ele>233</ele>
        <time>2012-08-11T06:57:06.000Z</time>
      </trkpt>
      <trkpt lat="47.65585" lon="6.16458">
        <ele>232.60000610352</ele>
        <time>2012-08-11T06:57:07.000Z</time>
      </trkpt>
      <trkpt lat="47.65589" lon="6.16453">
        <ele>232.19999694824</ele>
        <time>2012-08-11T06:57:08.000Z</time>
      </trkpt>
      <trkpt lat="47.65594" lon="6.16447">
        <ele>231.80000305176</ele>
        <time>2012-08-11T06:57:09.000Z</time>
      </trkpt>
      <trkpt lat="47.65598" lon="6.16441">
        <ele>231.39999389648</ele>
        <time>2012-08-11T06:57:10.000Z</time>
      </trkpt>
      <trkpt lat="47.65617" lon="6.16414">
        <ele>231.39999389648</ele>
        <time>2012-08-11T06:57:14.000Z</time>
      </trkpt>
      <trkpt lat="47.6564" lon="6.16381">
        <ele>231</ele>
        <time>2012-08-11T06:57:19.000Z</time>
      </trkpt>
      <trkpt lat="47.65645" lon="6.16375">
        <ele>230.60000610352</ele>
        <time>2012-08-11T06:57:20.000Z</time>
      </trkpt>
      <trkpt lat="47.65649" lon="6.16369">
        <ele>230.19999694824</ele>
        <time>2012-08-11T06:57:21.000Z</time>
      </trkpt>
      <trkpt lat="47.65653" lon="6.16363">
        <ele>229.80000305176</ele>
        <time>2012-08-11T06:57:22.000Z</time>
      </trkpt>
      <trkpt lat="47.65657" lon="6.16357">
        <ele>229.39999389648</ele>
        <time>2012-08-11T06:57:23.000Z</time>
      </trkpt>
      <trkpt lat="47.65669" lon="6.16343">
        <ele>229.39999389648</ele>
        <time>2012-08-11T06:57:26.000Z</time>
      </trkpt>
      <trkpt lat="47.65674" lon="6.16339">
        <ele>229.39999389648</ele>
        <time>2012-08-11T06:57:27.000Z</time>
      </trkpt>
      <trkpt lat="47.65687" lon="6.16319">
        <ele>229.39999389648</ele>
        <time>2012-08-11T06:57:31.000Z</time>
      </trkpt>
      <trkpt lat="47.6569" lon="6.16313">
        <ele>229.39999389648</ele>
        <time>2012-08-11T06:57:32.000Z</time>
      </trkpt>
      <trkpt lat="47.65694" lon="6.16309">
        <ele>229.39999389648</ele>
        <time>2012-08-11T06:57:33.000Z</time>
      </trkpt>
      <trkpt lat="47.65712" lon="6.16281">
        <ele>229.39999389648</ele>
        <time>2012-08-11T06:57:38.000Z</time>
      </trkpt>
      <trkpt lat="47.65728" lon="6.16257">
        <ele>228.60000610352</ele>
        <time>2012-08-11T06:57:42.000Z</time>
      </trkpt>
      <trkpt lat="47.65732" lon="6.16251">
        <ele>228.39999389648</ele>
        <time>2012-08-11T06:57:43.000Z</time>
      </trkpt>
      <trkpt lat="47.65735" lon="6.16245">
        <ele>228.19999694824</ele>
        <time>2012-08-11T06:57:44.000Z</time>
      </trkpt>
      <trkpt lat="47.65739" lon="6.16239">
        <ele>228.60000610352</ele>
        <time>2012-08-11T06:57:45.000Z</time>
      </trkpt>
      <trkpt lat="47.65743" lon="6.16233">
        <ele>229</ele>
        <time>2012-08-11T06:57:46.000Z</time>
      </trkpt>
      <trkpt lat="47.65747" lon="6.16227">
        <ele>229.39999389648</ele>
        <time>2012-08-11T06:57:47.000Z</time>
      </trkpt>
      <trkpt lat="47.65752" lon="6.16221">
        <ele>229.80000305176</ele>
        <time>2012-08-11T06:57:48.000Z</time>
      </trkpt>
      <trkpt lat="47.65756" lon="6.16216">
        <ele>230.19999694824</ele>
        <time>2012-08-11T06:57:49.000Z</time>
      </trkpt>
      <trkpt lat="47.65769" lon="6.16195">
        <ele>230.19999694824</ele>
        <time>2012-08-11T06:57:53.000Z</time>
      </trkpt>
      <trkpt lat="47.65791" lon="6.16165">
        <ele>230.19999694824</ele>
        <time>2012-08-11T06:58:00.000Z</time>
      </trkpt>
      <trkpt lat="47.65804" lon="6.16145">
        <ele>230.19999694824</ele>
        <time>2012-08-11T06:58:06.000Z</time>
      </trkpt>
      <trkpt lat="47.65818" lon="6.16124">
        <ele>230.19999694824</ele>
        <time>2012-08-11T06:58:13.000Z</time>
      </trkpt>
      <trkpt lat="47.65824" lon="6.16116">
        <ele>230.60000610352</ele>
        <time>2012-08-11T06:58:16.000Z</time>
      </trkpt>
      <trkpt lat="47.65826" lon="6.16113">
        <ele>231</ele>
        <time>2012-08-11T06:58:17.000Z</time>
      </trkpt>
      <trkpt lat="47.65828" lon="6.1611">
        <ele>231.39999389648</ele>
        <time>2012-08-11T06:58:18.000Z</time>
      </trkpt>
      <trkpt lat="47.6583" lon="6.16105">
        <ele>231.80000305176</ele>
        <time>2012-08-11T06:58:19.000Z</time>
      </trkpt>
      <trkpt lat="47.65832" lon="6.16102">
        <ele>232.19999694824</ele>
        <time>2012-08-11T06:58:20.000Z</time>
      </trkpt>
      <trkpt lat="47.65844" lon="6.16087">
        <ele>232.19999694824</ele>
        <time>2012-08-11T06:58:24.000Z</time>
      </trkpt>
      <trkpt lat="47.65852" lon="6.16074">
        <ele>232.80000305176</ele>
        <time>2012-08-11T06:58:28.000Z</time>
      </trkpt>
      <trkpt lat="47.65855" lon="6.16071">
        <ele>233.19999694824</ele>
        <time>2012-08-11T06:58:29.000Z</time>
      </trkpt>
      <trkpt lat="47.65857" lon="6.16068">
        <ele>233.60000610352</ele>
        <time>2012-08-11T06:58:30.000Z</time>
      </trkpt>
      <trkpt lat="47.65859" lon="6.16064">
        <ele>234</ele>
        <time>2012-08-11T06:58:31.000Z</time>
      </trkpt>
      <trkpt lat="47.65861" lon="6.16061">
        <ele>234.60000610352</ele>
        <time>2012-08-11T06:58:32.000Z</time>
      </trkpt>
      <trkpt lat="47.65869" lon="6.16049">
        <ele>234.60000610352</ele>
        <time>2012-08-11T06:58:36.000Z</time>
      </trkpt>
      <trkpt lat="47.65887" lon="6.16026">
        <ele>234.60000610352</ele>
        <time>2012-08-11T06:58:44.000Z</time>
      </trkpt>
      <trkpt lat="47.65907" lon="6.15999">
        <ele>234.60000610352</ele>
        <time>2012-08-11T06:58:50.000Z</time>
      </trkpt>
      <trkpt lat="47.65931" lon="6.15964">
        <ele>234.60000610352</ele>
        <time>2012-08-11T06:58:56.000Z</time>
      </trkpt>
      <trkpt lat="47.65929" lon="6.15945">
        <ele>234.60000610352</ele>
        <time>2012-08-11T06:58:59.000Z</time>
      </trkpt>
      <trkpt lat="47.6592" lon="6.15929">
        <ele>234.60000610352</ele>
        <time>2012-08-11T06:59:02.000Z</time>
      </trkpt>
      <trkpt lat="47.65917" lon="6.15923">
        <ele>234.60000610352</ele>
        <time>2012-08-11T06:59:03.000Z</time>
      </trkpt>
      <trkpt lat="47.65896" lon="6.15888">
        <ele>234.60000610352</ele>
        <time>2012-08-11T06:59:10.000Z</time>
      </trkpt>
      <trkpt lat="47.65875" lon="6.15853">
        <ele>234.60000610352</ele>
        <time>2012-08-11T06:59:18.000Z</time>
      </trkpt>
      <trkpt lat="47.65864" lon="6.15823">
        <ele>234.60000610352</ele>
        <time>2012-08-11T06:59:25.000Z</time>
      </trkpt>
      <trkpt lat="47.65858" lon="6.15797">
        <ele>234.60000610352</ele>
        <time>2012-08-11T06:59:30.000Z</time>
      </trkpt>
      <trkpt lat="47.65857" lon="6.15792">
        <ele>234.60000610352</ele>
        <time>2012-08-11T06:59:31.000Z</time>
      </trkpt>
      <trkpt lat="47.65847" lon="6.15738">
        <ele>234.60000610352</ele>
        <time>2012-08-11T06:59:40.000Z</time>
      </trkpt>
      <trkpt lat="47.6584" lon="6.15707">
        <ele>234</ele>
        <time>2012-08-11T06:59:45.000Z</time>
      </trkpt>
      <trkpt lat="47.65839" lon="6.157">
        <ele>233.60000610352</ele>
        <time>2012-08-11T06:59:46.000Z</time>
      </trkpt>
      <trkpt lat="47.65838" lon="6.15694">
        <ele>233.19999694824</ele>
        <time>2012-08-11T06:59:47.000Z</time>
      </trkpt>
      <trkpt lat="47.65837" lon="6.15687">
        <ele>232.80000305176</ele>
        <time>2012-08-11T06:59:48.000Z</time>
      </trkpt>
      <trkpt lat="47.65836" lon="6.15681">
        <ele>232.39999389648</ele>
        <time>2012-08-11T06:59:49.000Z</time>
      </trkpt>
      <trkpt lat="47.65822" lon="6.15611">
        <ele>232.39999389648</ele>
        <time>2012-08-11T06:59:59.000Z</time>
      </trkpt>
      <trkpt lat="47.6582" lon="6.15604">
        <ele>232</ele>
        <time>2012-08-11T07:00:00.000Z</time>
      </trkpt>
      <trkpt lat="47.65819" lon="6.15596">
        <ele>231.60000610352</ele>
        <time>2012-08-11T07:00:01.000Z</time>
      </trkpt>
      <trkpt lat="47.65817" lon="6.15588">
        <ele>231.19999694824</ele>
        <time>2012-08-11T07:00:02.000Z</time>
      </trkpt>
      <trkpt lat="47.65815" lon="6.15581">
        <ele>230.60000610352</ele>
        <time>2012-08-11T07:00:03.000Z</time>
      </trkpt>
      <trkpt lat="47.65814" lon="6.15573">
        <ele>230.19999694824</ele>
        <time>2012-08-11T07:00:04.000Z</time>
      </trkpt>
      <trkpt lat="47.65808" lon="6.1554">
        <ele>230.19999694824</ele>
        <time>2012-08-11T07:00:08.000Z</time>
      </trkpt>
      <trkpt lat="47.65804" lon="6.15524">
        <ele>229.80000305176</ele>
        <time>2012-08-11T07:00:10.000Z</time>
      </trkpt>
      <trkpt lat="47.65802" lon="6.15515">
        <ele>229.39999389648</ele>
        <time>2012-08-11T07:00:11.000Z</time>
      </trkpt>
      <trkpt lat="47.658" lon="6.15507">
        <ele>229</ele>
        <time>2012-08-11T07:00:12.000Z</time>
      </trkpt>
      <trkpt lat="47.65798" lon="6.15498">
        <ele>228.60000610352</ele>
        <time>2012-08-11T07:00:13.000Z</time>
      </trkpt>
      <trkpt lat="47.65796" lon="6.15489">
        <ele>228.19999694824</ele>
        <time>2012-08-11T07:00:14.000Z</time>
      </trkpt>
      <trkpt lat="47.65793" lon="6.15471">
        <ele>228.19999694824</ele>
        <time>2012-08-11T07:00:16.000Z</time>
      </trkpt>
      <trkpt lat="47.65791" lon="6.15462">
        <ele>227.80000305176</ele>
        <time>2012-08-11T07:00:17.000Z</time>
      </trkpt>
      <trkpt lat="47.65789" lon="6.15453">
        <ele>227.39999389648</ele>
        <time>2012-08-11T07:00:18.000Z</time>
      </trkpt>
      <trkpt lat="47.65787" lon="6.15443">
        <ele>227</ele>
        <time>2012-08-11T07:00:19.000Z</time>
      </trkpt>
      <trkpt lat="47.65785" lon="6.15434">
        <ele>226.60000610352</ele>
        <time>2012-08-11T07:00:20.000Z</time>
      </trkpt>
      <trkpt lat="47.65783" lon="6.15425">
        <ele>226.19999694824</ele>
        <time>2012-08-11T07:00:21.000Z</time>
      </trkpt>
      <trkpt lat="47.65778" lon="6.15399">
        <ele>226.19999694824</ele>
        <time>2012-08-11T07:00:24.000Z</time>
      </trkpt>
      <trkpt lat="47.65774" lon="6.15376">
        <ele>225.80000305176</ele>
        <time>2012-08-11T07:00:27.000Z</time>
      </trkpt>
      <trkpt lat="47.65773" lon="6.15369">
        <ele>225.39999389648</ele>
        <time>2012-08-11T07:00:28.000Z</time>
      </trkpt>
      <trkpt lat="47.65771" lon="6.15362">
        <ele>225</ele>
        <time>2012-08-11T07:00:29.000Z</time>
      </trkpt>
      <trkpt lat="47.6577" lon="6.15355">
        <ele>224.60000610352</ele>
        <time>2012-08-11T07:00:30.000Z</time>
      </trkpt>
      <trkpt lat="47.65769" lon="6.15349">
        <ele>224.19999694824</ele>
        <time>2012-08-11T07:00:31.000Z</time>
      </trkpt>
      <trkpt lat="47.6576" lon="6.15298">
        <ele>224.19999694824</ele>
        <time>2012-08-11T07:00:40.000Z</time>
      </trkpt>
      <trkpt lat="47.65755" lon="6.15274">
        <ele>224.19999694824</ele>
        <time>2012-08-11T07:00:46.000Z</time>
      </trkpt>
      <trkpt lat="47.65754" lon="6.15271">
        <ele>224.60000610352</ele>
        <time>2012-08-11T07:00:47.000Z</time>
      </trkpt>
      <trkpt lat="47.65753" lon="6.15268">
        <ele>225</ele>
        <time>2012-08-11T07:00:48.000Z</time>
      </trkpt>
      <trkpt lat="47.65753" lon="6.15265">
        <ele>225.80000305176</ele>
        <time>2012-08-11T07:00:49.000Z</time>
      </trkpt>
      <trkpt lat="47.65752" lon="6.15262">
        <ele>226.19999694824</ele>
        <time>2012-08-11T07:00:50.000Z</time>
      </trkpt>
      <trkpt lat="47.6575" lon="6.15255">
        <ele>226.19999694824</ele>
        <time>2012-08-11T07:00:53.000Z</time>
      </trkpt>
      <trkpt lat="47.65748" lon="6.15242">
        <ele>226.60000610352</ele>
        <time>2012-08-11T07:00:58.000Z</time>
      </trkpt>
      <trkpt lat="47.65747" lon="6.1524">
        <ele>227</ele>
        <time>2012-08-11T07:00:59.000Z</time>
      </trkpt>
      <trkpt lat="47.65747" lon="6.15237">
        <ele>227.39999389648</ele>
        <time>2012-08-11T07:01:00.000Z</time>
      </trkpt>
      <trkpt lat="47.65746" lon="6.15234">
        <ele>227.80000305176</ele>
        <time>2012-08-11T07:01:01.000Z</time>
      </trkpt>
      <trkpt lat="47.65746" lon="6.1523">
        <ele>228.19999694824</ele>
        <time>2012-08-11T07:01:02.000Z</time>
      </trkpt>
      <trkpt lat="47.65745" lon="6.15226">
        <ele>228.19999694824</ele>
        <time>2012-08-11T07:01:03.000Z</time>
      </trkpt>
      <trkpt lat="47.6574" lon="6.15206">
        <ele>228.19999694824</ele>
        <time>2012-08-11T07:01:09.000Z</time>
      </trkpt>
      <trkpt lat="47.65739" lon="6.15203">
        <ele>228.60000610352</ele>
        <time>2012-08-11T07:01:10.000Z</time>
      </trkpt>
      <trkpt lat="47.65739" lon="6.152">
        <ele>229</ele>
        <time>2012-08-11T07:01:11.000Z</time>
      </trkpt>
      <trkpt lat="47.65738" lon="6.15197">
        <ele>229.39999389648</ele>
        <time>2012-08-11T07:01:12.000Z</time>
      </trkpt>
      <trkpt lat="47.65737" lon="6.15194">
        <ele>230.19999694824</ele>
        <time>2012-08-11T07:01:13.000Z</time>
      </trkpt>
      <trkpt lat="47.65734" lon="6.15172">
        <ele>230.19999694824</ele>
        <time>2012-08-11T07:01:20.000Z</time>
      </trkpt>
      <trkpt lat="47.65732" lon="6.15154">
        <ele>230.60000610352</ele>
        <time>2012-08-11T07:01:25.000Z</time>
      </trkpt>
      <trkpt lat="47.65731" lon="6.1515">
        <ele>231</ele>
        <time>2012-08-11T07:01:26.000Z</time>
      </trkpt>
      <trkpt lat="47.65731" lon="6.15146">
        <ele>231.39999389648</ele>
        <time>2012-08-11T07:01:27.000Z</time>
      </trkpt>
      <trkpt lat="47.6573" lon="6.15142">
        <ele>231.80000305176</ele>
        <time>2012-08-11T07:01:28.000Z</time>
      </trkpt>
      <trkpt lat="47.65729" lon="6.15138">
        <ele>232.19999694824</ele>
        <time>2012-08-11T07:01:29.000Z</time>
      </trkpt>
      <trkpt lat="47.65725" lon="6.15115">
        <ele>232.19999694824</ele>
        <time>2012-08-11T07:01:35.000Z</time>
      </trkpt>
      <trkpt lat="47.6572" lon="6.15093">
        <ele>232.19999694824</ele>
        <time>2012-08-11T07:01:41.000Z</time>
      </trkpt>
      <trkpt lat="47.65714" lon="6.15063">
        <ele>232.19999694824</ele>
        <time>2012-08-11T07:01:49.000Z</time>
      </trkpt>
      <trkpt lat="47.6571" lon="6.15025">
        <ele>232.19999694824</ele>
        <time>2012-08-11T07:01:58.000Z</time>
      </trkpt>
      <trkpt lat="47.65714" lon="6.15021">
        <ele>232.19999694824</ele>
        <time>2012-08-11T07:02:00.000Z</time>
      </trkpt>
      <trkpt lat="47.6572" lon="6.15021">
        <ele>232.19999694824</ele>
        <time>2012-08-11T07:02:02.000Z</time>
      </trkpt>
      <trkpt lat="47.65726" lon="6.15021">
        <ele>232.80000305176</ele>
        <time>2012-08-11T07:02:04.000Z</time>
      </trkpt>
      <trkpt lat="47.65729" lon="6.15021">
        <ele>233.19999694824</ele>
        <time>2012-08-11T07:02:05.000Z</time>
      </trkpt>
      <trkpt lat="47.65732" lon="6.15021">
        <ele>233.60000610352</ele>
        <time>2012-08-11T07:02:06.000Z</time>
      </trkpt>
      <trkpt lat="47.65735" lon="6.15021">
        <ele>234</ele>
        <time>2012-08-11T07:02:07.000Z</time>
      </trkpt>
      <trkpt lat="47.65739" lon="6.15022">
        <ele>234.39999389648</ele>
        <time>2012-08-11T07:02:08.000Z</time>
      </trkpt>
      <trkpt lat="47.65765" lon="6.15022">
        <ele>234.39999389648</ele>
        <time>2012-08-11T07:02:16.000Z</time>
      </trkpt>
      <trkpt lat="47.65789" lon="6.15021">
        <ele>234.39999389648</ele>
        <time>2012-08-11T07:02:23.000Z</time>
      </trkpt>
      <trkpt lat="47.6581" lon="6.15019">
        <ele>234.39999389648</ele>
        <time>2012-08-11T07:02:29.000Z</time>
      </trkpt>
      <trkpt lat="47.65844" lon="6.15015">
        <ele>234.39999389648</ele>
        <time>2012-08-11T07:02:37.000Z</time>
      </trkpt>
      <trkpt lat="47.65884" lon="6.15016">
        <ele>234</ele>
        <time>2012-08-11T07:02:45.000Z</time>
      </trkpt>
      <trkpt lat="47.6589" lon="6.15017">
        <ele>233.60000610352</ele>
        <time>2012-08-11T07:02:46.000Z</time>
      </trkpt>
      <trkpt lat="47.65896" lon="6.15017">
        <ele>233.19999694824</ele>
        <time>2012-08-11T07:02:47.000Z</time>
      </trkpt>
      <trkpt lat="47.65902" lon="6.15017">
        <ele>232.80000305176</ele>
        <time>2012-08-11T07:02:48.000Z</time>
      </trkpt>
      <trkpt lat="47.65908" lon="6.15017">
        <ele>232.39999389648</ele>
        <time>2012-08-11T07:02:49.000Z</time>
      </trkpt>
      <trkpt lat="47.65921" lon="6.15017">
        <ele>232.39999389648</ele>
        <time>2012-08-11T07:02:51.000Z</time>
      </trkpt>
      <trkpt lat="47.65928" lon="6.15016">
        <ele>231.80000305176</ele>
        <time>2012-08-11T07:02:52.000Z</time>
      </trkpt>
      <trkpt lat="47.65935" lon="6.15017">
        <ele>231.39999389648</ele>
        <time>2012-08-11T07:02:53.000Z</time>
      </trkpt>
      <trkpt lat="47.65942" lon="6.15017">
        <ele>231</ele>
        <time>2012-08-11T07:02:54.000Z</time>
      </trkpt>
      <trkpt lat="47.65949" lon="6.15017">
        <ele>230.60000610352</ele>
        <time>2012-08-11T07:02:55.000Z</time>
      </trkpt>
      <trkpt lat="47.65956" lon="6.15017">
        <ele>230.19999694824</ele>
        <time>2012-08-11T07:02:56.000Z</time>
      </trkpt>
      <trkpt lat="47.65982" lon="6.1502">
        <ele>230.19999694824</ele>
        <time>2012-08-11T07:03:00.000Z</time>
      </trkpt>
      <trkpt lat="47.66015" lon="6.15023">
        <ele>230.19999694824</ele>
        <time>2012-08-11T07:03:06.000Z</time>
      </trkpt>
      <trkpt lat="47.66031" lon="6.15025">
        <ele>230.19999694824</ele>
        <time>2012-08-11T07:03:11.000Z</time>
      </trkpt>
      <trkpt lat="47.6604" lon="6.15023">
        <ele>229.80000305176</ele>
        <time>2012-08-11T07:03:14.000Z</time>
      </trkpt>
      <trkpt lat="47.66043" lon="6.15024">
        <ele>229.39999389648</ele>
        <time>2012-08-11T07:03:15.000Z</time>
      </trkpt>
      <trkpt lat="47.66047" lon="6.15024">
        <ele>229</ele>
        <time>2012-08-11T07:03:16.000Z</time>
      </trkpt>
      <trkpt lat="47.6605" lon="6.15025">
        <ele>228.19999694824</ele>
        <time>2012-08-11T07:03:17.000Z</time>
      </trkpt>
      <trkpt lat="47.66069" lon="6.15024">
        <ele>228.19999694824</ele>
        <time>2012-08-11T07:03:23.000Z</time>
      </trkpt>
      <trkpt lat="47.66093" lon="6.15022">
        <ele>228.19999694824</ele>
        <time>2012-08-11T07:03:31.000Z</time>
      </trkpt>
      <trkpt lat="47.66104" lon="6.15021">
        <ele>228.60000610352</ele>
        <time>2012-08-11T07:03:35.000Z</time>
      </trkpt>
      <trkpt lat="47.66107" lon="6.15021">
        <ele>229</ele>
        <time>2012-08-11T07:03:36.000Z</time>
      </trkpt>
      <trkpt lat="47.6611" lon="6.15021">
        <ele>229.39999389648</ele>
        <time>2012-08-11T07:03:37.000Z</time>
      </trkpt>
      <trkpt lat="47.66113" lon="6.15022">
        <ele>229.80000305176</ele>
        <time>2012-08-11T07:03:38.000Z</time>
      </trkpt>
      <trkpt lat="47.66116" lon="6.15022">
        <ele>230.19999694824</ele>
        <time>2012-08-11T07:03:39.000Z</time>
      </trkpt>
      <trkpt lat="47.66132" lon="6.15023">
        <ele>230.19999694824</ele>
        <time>2012-08-11T07:03:45.000Z</time>
      </trkpt>
      <trkpt lat="47.66137" lon="6.15023">
        <ele>230.80000305176</ele>
        <time>2012-08-11T07:03:47.000Z</time>
      </trkpt>
      <trkpt lat="47.66139" lon="6.15023">
        <ele>231.19999694824</ele>
        <time>2012-08-11T07:03:48.000Z</time>
      </trkpt>
      <trkpt lat="47.66142" lon="6.15022">
        <ele>231.60000610352</ele>
        <time>2012-08-11T07:03:49.000Z</time>
      </trkpt>
      <trkpt lat="47.66144" lon="6.15022">
        <ele>232</ele>
        <time>2012-08-11T07:03:50.000Z</time>
      </trkpt>
      <trkpt lat="47.66146" lon="6.15022">
        <ele>232.60000610352</ele>
        <time>2012-08-11T07:03:51.000Z</time>
      </trkpt>
      <trkpt lat="47.66149" lon="6.15022">
        <ele>232.60000610352</ele>
        <time>2012-08-11T07:03:52.000Z</time>
      </trkpt>
      <trkpt lat="47.66162" lon="6.15024">
        <ele>232.60000610352</ele>
        <time>2012-08-11T07:03:57.000Z</time>
      </trkpt>
      <trkpt lat="47.66167" lon="6.15024">
        <ele>233</ele>
        <time>2012-08-11T07:03:59.000Z</time>
      </trkpt>
      <trkpt lat="47.6617" lon="6.15024">
        <ele>233.39999389648</ele>
        <time>2012-08-11T07:04:00.000Z</time>
      </trkpt>
      <trkpt lat="47.66172" lon="6.15024">
        <ele>233.80000305176</ele>
        <time>2012-08-11T07:04:01.000Z</time>
      </trkpt>
      <trkpt lat="47.66174" lon="6.15024">
        <ele>234.19999694824</ele>
        <time>2012-08-11T07:04:02.000Z</time>
      </trkpt>
      <trkpt lat="47.66177" lon="6.15024">
        <ele>234.80000305176</ele>
        <time>2012-08-11T07:04:03.000Z</time>
      </trkpt>
      <trkpt lat="47.66188" lon="6.15025">
        <ele>234.80000305176</ele>
        <time>2012-08-11T07:04:08.000Z</time>
      </trkpt>
      <trkpt lat="47.6619" lon="6.15025">
        <ele>235.19999694824</ele>
        <time>2012-08-11T07:04:09.000Z</time>
      </trkpt>
      <trkpt lat="47.66192" lon="6.15025">
        <ele>235.60000610352</ele>
        <time>2012-08-11T07:04:10.000Z</time>
      </trkpt>
      <trkpt lat="47.66194" lon="6.15026">
        <ele>236</ele>
        <time>2012-08-11T07:04:11.000Z</time>
      </trkpt>
      <trkpt lat="47.66197" lon="6.15026">
        <ele>236.39999389648</ele>
        <time>2012-08-11T07:04:12.000Z</time>
      </trkpt>
      <trkpt lat="47.66199" lon="6.15027">
        <ele>236.80000305176</ele>
        <time>2012-08-11T07:04:13.000Z</time>
      </trkpt>
      <trkpt lat="47.66203" lon="6.15027">
        <ele>236.80000305176</ele>
        <time>2012-08-11T07:04:15.000Z</time>
      </trkpt>
      <trkpt lat="47.66219" lon="6.15029">
        <ele>236.80000305176</ele>
        <time>2012-08-11T07:04:21.000Z</time>
      </trkpt>
      <trkpt lat="47.66221" lon="6.15029">
        <ele>237.19999694824</ele>
        <time>2012-08-11T07:04:22.000Z</time>
      </trkpt>
      <trkpt lat="47.66224" lon="6.1503">
        <ele>237.60000610352</ele>
        <time>2012-08-11T07:04:23.000Z</time>
      </trkpt>
      <trkpt lat="47.66226" lon="6.15031">
        <ele>238</ele>
        <time>2012-08-11T07:04:24.000Z</time>
      </trkpt>
      <trkpt lat="47.66229" lon="6.15031">
        <ele>238.39999389648</ele>
        <time>2012-08-11T07:04:25.000Z</time>
      </trkpt>
      <trkpt lat="47.66231" lon="6.15032">
        <ele>238.80000305176</ele>
        <time>2012-08-11T07:04:26.000Z</time>
      </trkpt>
      <trkpt lat="47.66239" lon="6.15034">
        <ele>238.80000305176</ele>
        <time>2012-08-11T07:04:30.000Z</time>
      </trkpt>
      <trkpt lat="47.66253" lon="6.15038">
        <ele>238.80000305176</ele>
        <time>2012-08-11T07:04:37.000Z</time>
      </trkpt>
      <trkpt lat="47.6626" lon="6.15039">
        <ele>239.39999389648</ele>
        <time>2012-08-11T07:04:40.000Z</time>
      </trkpt>
      <trkpt lat="47.66262" lon="6.15039">
        <ele>239.80000305176</ele>
        <time>2012-08-11T07:04:41.000Z</time>
      </trkpt>
      <trkpt lat="47.66264" lon="6.15039">
        <ele>240.19999694824</ele>
        <time>2012-08-11T07:04:42.000Z</time>
      </trkpt>
      <trkpt lat="47.66266" lon="6.1504">
        <ele>240.60000610352</ele>
        <time>2012-08-11T07:04:43.000Z</time>
      </trkpt>
      <trkpt lat="47.66268" lon="6.1504">
        <ele>241</ele>
        <time>2012-08-11T07:04:44.000Z</time>
      </trkpt>
      <trkpt lat="47.66283" lon="6.15042">
        <ele>241</ele>
        <time>2012-08-11T07:04:51.000Z</time>
      </trkpt>
      <trkpt lat="47.66299" lon="6.15045">
        <ele>241</ele>
        <time>2012-08-11T07:04:58.000Z</time>
      </trkpt>
      <trkpt lat="47.66309" lon="6.15047">
        <ele>241.39999389648</ele>
        <time>2012-08-11T07:05:02.000Z</time>
      </trkpt>
      <trkpt lat="47.66311" lon="6.15048">
        <ele>242</ele>
        <time>2012-08-11T07:05:03.000Z</time>
      </trkpt>
      <trkpt lat="47.66314" lon="6.15048">
        <ele>242.39999389648</ele>
        <time>2012-08-11T07:05:04.000Z</time>
      </trkpt>
      <trkpt lat="47.66316" lon="6.15049">
        <ele>243</ele>
        <time>2012-08-11T07:05:05.000Z</time>
      </trkpt>
      <trkpt lat="47.66319" lon="6.1505">
        <ele>243.39999389648</ele>
        <time>2012-08-11T07:05:06.000Z</time>
      </trkpt>
      <trkpt lat="47.66341" lon="6.15054">
        <ele>243.39999389648</ele>
        <time>2012-08-11T07:05:14.000Z</time>
      </trkpt>
      <trkpt lat="47.66361" lon="6.15054">
        <ele>243.39999389648</ele>
        <time>2012-08-11T07:05:21.000Z</time>
      </trkpt>
      <trkpt lat="47.66388" lon="6.1505">
        <ele>243.39999389648</ele>
        <time>2012-08-11T07:05:29.000Z</time>
      </trkpt>
      <trkpt lat="47.66407" lon="6.15046">
        <ele>243.39999389648</ele>
        <time>2012-08-11T07:05:35.000Z</time>
      </trkpt>
      <trkpt lat="47.66429" lon="6.15042">
        <ele>243.39999389648</ele>
        <time>2012-08-11T07:05:41.000Z</time>
      </trkpt>
      <trkpt lat="47.66447" lon="6.15035">
        <ele>243.39999389648</ele>
        <time>2012-08-11T07:05:46.000Z</time>
      </trkpt>
      <trkpt lat="47.66457" lon="6.15034">
        <ele>243.39999389648</ele>
        <time>2012-08-11T07:05:48.000Z</time>
      </trkpt>
      <trkpt lat="47.66467" lon="6.15034">
        <ele>243.39999389648</ele>
        <time>2012-08-11T07:05:50.000Z</time>
      </trkpt>
      <trkpt lat="47.66471" lon="6.15036">
        <ele>243.39999389648</ele>
        <time>2012-08-11T07:05:51.000Z</time>
      </trkpt>
      <trkpt lat="47.66498" lon="6.15047">
        <ele>243.39999389648</ele>
        <time>2012-08-11T07:05:57.000Z</time>
      </trkpt>
      <trkpt lat="47.66502" lon="6.15048">
        <ele>243.39999389648</ele>
        <time>2012-08-11T07:05:58.000Z</time>
      </trkpt>
      <trkpt lat="47.66526" lon="6.15048">
        <ele>243.39999389648</ele>
        <time>2012-08-11T07:06:04.000Z</time>
      </trkpt>
      <trkpt lat="47.66549" lon="6.15044">
        <ele>243.39999389648</ele>
        <time>2012-08-11T07:06:11.000Z</time>
      </trkpt>
      <trkpt lat="47.66561" lon="6.15043">
        <ele>243.39999389648</ele>
        <time>2012-08-11T07:06:16.000Z</time>
      </trkpt>
      <trkpt lat="47.66572" lon="6.15031">
        <ele>243.39999389648</ele>
        <time>2012-08-11T07:06:21.000Z</time>
      </trkpt>
      <trkpt lat="47.6658" lon="6.15018">
        <ele>243.80000305176</ele>
        <time>2012-08-11T07:06:26.000Z</time>
      </trkpt>
      <trkpt lat="47.66581" lon="6.15016">
        <ele>244.19999694824</ele>
        <time>2012-08-11T07:06:27.000Z</time>
      </trkpt>
      <trkpt lat="47.66583" lon="6.15013">
        <ele>244.60000610352</ele>
        <time>2012-08-11T07:06:28.000Z</time>
      </trkpt>
      <trkpt lat="47.66585" lon="6.1501">
        <ele>245</ele>
        <time>2012-08-11T07:06:29.000Z</time>
      </trkpt>
      <trkpt lat="47.66587" lon="6.15007">
        <ele>245.39999389648</ele>
        <time>2012-08-11T07:06:30.000Z</time>
      </trkpt>
      <trkpt lat="47.66599" lon="6.14987">
        <ele>245.39999389648</ele>
        <time>2012-08-11T07:06:38.000Z</time>
      </trkpt>
      <trkpt lat="47.66601" lon="6.14985">
        <ele>246</ele>
        <time>2012-08-11T07:06:39.000Z</time>
      </trkpt>
      <trkpt lat="47.66602" lon="6.14982">
        <ele>246.39999389648</ele>
        <time>2012-08-11T07:06:40.000Z</time>
      </trkpt>
      <trkpt lat="47.66604" lon="6.1498">
        <ele>246.80000305176</ele>
        <time>2012-08-11T07:06:41.000Z</time>
      </trkpt>
      <trkpt lat="47.66606" lon="6.14977">
        <ele>247.19999694824</ele>
        <time>2012-08-11T07:06:42.000Z</time>
      </trkpt>
      <trkpt lat="47.66608" lon="6.14975">
        <ele>247.60000610352</ele>
        <time>2012-08-11T07:06:43.000Z</time>
      </trkpt>
      <trkpt lat="47.66612" lon="6.14967">
        <ele>247.60000610352</ele>
        <time>2012-08-11T07:06:46.000Z</time>
      </trkpt>
      <trkpt lat="47.66621" lon="6.14951">
        <ele>247.60000610352</ele>
        <time>2012-08-11T07:06:51.000Z</time>
      </trkpt>
      <trkpt lat="47.66625" lon="6.14944">
        <ele>248</ele>
        <time>2012-08-11T07:06:53.000Z</time>
      </trkpt>
      <trkpt lat="47.66627" lon="6.14941">
        <ele>248.39999389648</ele>
        <time>2012-08-11T07:06:54.000Z</time>
      </trkpt>
      <trkpt lat="47.66629" lon="6.14938">
        <ele>249</ele>
        <time>2012-08-11T07:06:55.000Z</time>
      </trkpt>
      <trkpt lat="47.66631" lon="6.14935">
        <ele>249.39999389648</ele>
        <time>2012-08-11T07:06:56.000Z</time>
      </trkpt>
      <trkpt lat="47.66632" lon="6.14932">
        <ele>249.80000305176</ele>
        <time>2012-08-11T07:06:57.000Z</time>
      </trkpt>
      <trkpt lat="47.66637" lon="6.14919">
        <ele>250.39999389648</ele>
        <time>2012-08-11T07:07:01.000Z</time>
      </trkpt>
      <trkpt lat="47.66639" lon="6.14916">
        <ele>250.80000305176</ele>
        <time>2012-08-11T07:07:02.000Z</time>
      </trkpt>
      <trkpt lat="47.6664" lon="6.14913">
        <ele>251.19999694824</ele>
        <time>2012-08-11T07:07:03.000Z</time>
      </trkpt>
      <trkpt lat="47.66641" lon="6.14911">
        <ele>251.60000610352</ele>
        <time>2012-08-11T07:07:04.000Z</time>
      </trkpt>
      <trkpt lat="47.66642" lon="6.14908">
        <ele>252.19999694824</ele>
        <time>2012-08-11T07:07:05.000Z</time>
      </trkpt>
      <trkpt lat="47.66646" lon="6.14894">
        <ele>252.19999694824</ele>
        <time>2012-08-11T07:07:10.000Z</time>
      </trkpt>
      <trkpt lat="47.66654" lon="6.14879">
        <ele>252.19999694824</ele>
        <time>2012-08-11T07:07:16.000Z</time>
      </trkpt>
      <trkpt lat="47.66655" lon="6.14876">
        <ele>252.60000610352</ele>
        <time>2012-08-11T07:07:17.000Z</time>
      </trkpt>
      <trkpt lat="47.66655" lon="6.14873">
        <ele>253</ele>
        <time>2012-08-11T07:07:18.000Z</time>
      </trkpt>
      <trkpt lat="47.66656" lon="6.14871">
        <ele>253.39999389648</ele>
        <time>2012-08-11T07:07:19.000Z</time>
      </trkpt>
      <trkpt lat="47.66657" lon="6.14868">
        <ele>253.80000305176</ele>
        <time>2012-08-11T07:07:20.000Z</time>
      </trkpt>
      <trkpt lat="47.66658" lon="6.14866">
        <ele>254.19999694824</ele>
        <time>2012-08-11T07:07:21.000Z</time>
      </trkpt>
      <trkpt lat="47.6666" lon="6.14861">
        <ele>254.19999694824</ele>
        <time>2012-08-11T07:07:23.000Z</time>
      </trkpt>
      <trkpt lat="47.66666" lon="6.14846">
        <ele>254.19999694824</ele>
        <time>2012-08-11T07:07:29.000Z</time>
      </trkpt>
      <trkpt lat="47.66668" lon="6.14841">
        <ele>254.60000610352</ele>
        <time>2012-08-11T07:07:31.000Z</time>
      </trkpt>
      <trkpt lat="47.66669" lon="6.14838">
        <ele>255</ele>
        <time>2012-08-11T07:07:32.000Z</time>
      </trkpt>
      <trkpt lat="47.6667" lon="6.14835">
        <ele>255.39999389648</ele>
        <time>2012-08-11T07:07:33.000Z</time>
      </trkpt>
      <trkpt lat="47.66671" lon="6.14833">
        <ele>255.80000305176</ele>
        <time>2012-08-11T07:07:34.000Z</time>
      </trkpt>
      <trkpt lat="47.66672" lon="6.1483">
        <ele>256.20001220703</ele>
        <time>2012-08-11T07:07:35.000Z</time>
      </trkpt>
      <trkpt lat="47.66674" lon="6.14824">
        <ele>256.20001220703</ele>
        <time>2012-08-11T07:07:37.000Z</time>
      </trkpt>
      <trkpt lat="47.66683" lon="6.148">
        <ele>256.20001220703</ele>
        <time>2012-08-11T07:07:45.000Z</time>
      </trkpt>
      <trkpt lat="47.6669" lon="6.14792">
        <ele>256.20001220703</ele>
        <time>2012-08-11T07:07:50.000Z</time>
      </trkpt>
      <trkpt lat="47.66691" lon="6.14793">
        <ele>256.20001220703</ele>
        <time>2012-08-11T07:07:51.000Z</time>
      </trkpt>
      <trkpt lat="47.66692" lon="6.14794">
        <ele>256.20001220703</ele>
        <time>2012-08-11T07:07:52.000Z</time>
      </trkpt>
      <trkpt lat="47.66698" lon="6.148">
        <ele>256.20001220703</ele>
        <time>2012-08-11T07:07:56.000Z</time>
      </trkpt>
      <trkpt lat="47.667" lon="6.14802">
        <ele>256.60000610352</ele>
        <time>2012-08-11T07:07:57.000Z</time>
      </trkpt>
      <trkpt lat="47.66702" lon="6.14803">
        <ele>257</ele>
        <time>2012-08-11T07:07:58.000Z</time>
      </trkpt>
      <trkpt lat="47.66703" lon="6.14804">
        <ele>257.60000610352</ele>
        <time>2012-08-11T07:07:59.000Z</time>
      </trkpt>
      <trkpt lat="47.66706" lon="6.14806">
        <ele>258</ele>
        <time>2012-08-11T07:08:00.000Z</time>
      </trkpt>
      <trkpt lat="47.66708" lon="6.14807">
        <ele>258.39999389648</ele>
        <time>2012-08-11T07:08:01.000Z</time>
      </trkpt>
      <trkpt lat="47.6671" lon="6.14808">
        <ele>258.39999389648</ele>
        <time>2012-08-11T07:08:02.000Z</time>
      </trkpt>
      <trkpt lat="47.6672" lon="6.14803">
        <ele>258.39999389648</ele>
        <time>2012-08-11T07:08:07.000Z</time>
      </trkpt>
      <trkpt lat="47.66726" lon="6.14784">
        <ele>258.39999389648</ele>
        <time>2012-08-11T07:08:12.000Z</time>
      </trkpt>
      <trkpt lat="47.66732" lon="6.14756">
        <ele>258.39999389648</ele>
        <time>2012-08-11T07:08:20.000Z</time>
      </trkpt>
      <trkpt lat="47.66738" lon="6.14726">
        <ele>258.39999389648</ele>
        <time>2012-08-11T07:08:27.000Z</time>
      </trkpt>
      <trkpt lat="47.66739" lon="6.14678">
        <ele>258.39999389648</ele>
        <time>2012-08-11T07:08:36.000Z</time>
      </trkpt>
      <trkpt lat="47.66739" lon="6.14672">
        <ele>258.79998779297</ele>
        <time>2012-08-11T07:08:37.000Z</time>
      </trkpt>
      <trkpt lat="47.66738" lon="6.14667">
        <ele>259.20001220703</ele>
        <time>2012-08-11T07:08:38.000Z</time>
      </trkpt>
      <trkpt lat="47.66737" lon="6.14661">
        <ele>260</ele>
        <time>2012-08-11T07:08:39.000Z</time>
      </trkpt>
      <trkpt lat="47.66737" lon="6.14655">
        <ele>260.39999389648</ele>
        <time>2012-08-11T07:08:40.000Z</time>
      </trkpt>
      <trkpt lat="47.66734" lon="6.14633">
        <ele>260.39999389648</ele>
        <time>2012-08-11T07:08:44.000Z</time>
      </trkpt>
      <trkpt lat="47.66728" lon="6.1459">
        <ele>260.39999389648</ele>
        <time>2012-08-11T07:08:51.000Z</time>
      </trkpt>
      <trkpt lat="47.66721" lon="6.14537">
        <ele>260.39999389648</ele>
        <time>2012-08-11T07:08:59.000Z</time>
      </trkpt>
      <trkpt lat="47.6672" lon="6.1453">
        <ele>260</ele>
        <time>2012-08-11T07:09:00.000Z</time>
      </trkpt>
      <trkpt lat="47.66719" lon="6.14523">
        <ele>259.60000610352</ele>
        <time>2012-08-11T07:09:01.000Z</time>
      </trkpt>
      <trkpt lat="47.66718" lon="6.14516">
        <ele>259.20001220703</ele>
        <time>2012-08-11T07:09:02.000Z</time>
      </trkpt>
      <trkpt lat="47.66717" lon="6.14508">
        <ele>258.39999389648</ele>
        <time>2012-08-11T07:09:03.000Z</time>
      </trkpt>
      <trkpt lat="47.66716" lon="6.14491">
        <ele>258.39999389648</ele>
        <time>2012-08-11T07:09:05.000Z</time>
      </trkpt>
      <trkpt lat="47.66718" lon="6.14439">
        <ele>258</ele>
        <time>2012-08-11T07:09:11.000Z</time>
      </trkpt>
      <trkpt lat="47.66718" lon="6.1443">
        <ele>257.60000610352</ele>
        <time>2012-08-11T07:09:12.000Z</time>
      </trkpt>
      <trkpt lat="47.66719" lon="6.14421">
        <ele>257.20001220703</ele>
        <time>2012-08-11T07:09:13.000Z</time>
      </trkpt>
      <trkpt lat="47.6672" lon="6.14411">
        <ele>256.79998779297</ele>
        <time>2012-08-11T07:09:14.000Z</time>
      </trkpt>
      <trkpt lat="47.66722" lon="6.14402">
        <ele>256.39999389648</ele>
        <time>2012-08-11T07:09:15.000Z</time>
      </trkpt>
      <trkpt lat="47.66729" lon="6.14363">
        <ele>255.80000305176</ele>
        <time>2012-08-11T07:09:19.000Z</time>
      </trkpt>
      <trkpt lat="47.66731" lon="6.14351">
        <ele>255.39999389648</ele>
        <time>2012-08-11T07:09:20.000Z</time>
      </trkpt>
      <trkpt lat="47.66732" lon="6.1434">
        <ele>255</ele>
        <time>2012-08-11T07:09:21.000Z</time>
      </trkpt>
      <trkpt lat="47.66734" lon="6.14328">
        <ele>254.39999389648</ele>
        <time>2012-08-11T07:09:22.000Z</time>
      </trkpt>
      <trkpt lat="47.66736" lon="6.14317">
        <ele>253.80000305176</ele>
        <time>2012-08-11T07:09:23.000Z</time>
      </trkpt>
      <trkpt lat="47.66738" lon="6.14306">
        <ele>253.19999694824</ele>
        <time>2012-08-11T07:09:24.000Z</time>
      </trkpt>
      <trkpt lat="47.6674" lon="6.14295">
        <ele>252.60000610352</ele>
        <time>2012-08-11T07:09:25.000Z</time>
      </trkpt>
      <trkpt lat="47.66742" lon="6.14284">
        <ele>252</ele>
        <time>2012-08-11T07:09:26.000Z</time>
      </trkpt>
      <trkpt lat="47.66744" lon="6.14272">
        <ele>251.39999389648</ele>
        <time>2012-08-11T07:09:27.000Z</time>
      </trkpt>
      <trkpt lat="47.66746" lon="6.1426">
        <ele>250.19999694824</ele>
        <time>2012-08-11T07:09:28.000Z</time>
      </trkpt>
      <trkpt lat="47.66749" lon="6.14247">
        <ele>249.39999389648</ele>
        <time>2012-08-11T07:09:29.000Z</time>
      </trkpt>
      <trkpt lat="47.66752" lon="6.14234">
        <ele>248.80000305176</ele>
        <time>2012-08-11T07:09:30.000Z</time>
      </trkpt>
      <trkpt lat="47.66754" lon="6.14222">
        <ele>248</ele>
        <time>2012-08-11T07:09:31.000Z</time>
      </trkpt>
      <trkpt lat="47.66757" lon="6.1421">
        <ele>247.39999389648</ele>
        <time>2012-08-11T07:09:32.000Z</time>
      </trkpt>
      <trkpt lat="47.6676" lon="6.14198">
        <ele>246.80000305176</ele>
        <time>2012-08-11T07:09:33.000Z</time>
      </trkpt>
      <trkpt lat="47.66762" lon="6.14186">
        <ele>246.19999694824</ele>
        <time>2012-08-11T07:09:34.000Z</time>
      </trkpt>
      <trkpt lat="47.66763" lon="6.14175">
        <ele>245.60000610352</ele>
        <time>2012-08-11T07:09:35.000Z</time>
      </trkpt>
      <trkpt lat="47.66764" lon="6.14164">
        <ele>245</ele>
        <time>2012-08-11T07:09:36.000Z</time>
      </trkpt>
      <trkpt lat="47.66766" lon="6.14154">
        <ele>244.39999389648</ele>
        <time>2012-08-11T07:09:37.000Z</time>
      </trkpt>
      <trkpt lat="47.66766" lon="6.14144">
        <ele>243.80000305176</ele>
        <time>2012-08-11T07:09:38.000Z</time>
      </trkpt>
      <trkpt lat="47.66767" lon="6.14135">
        <ele>243.19999694824</ele>
        <time>2012-08-11T07:09:39.000Z</time>
      </trkpt>
      <trkpt lat="47.66768" lon="6.14127">
        <ele>242.60000610352</ele>
        <time>2012-08-11T07:09:40.000Z</time>
      </trkpt>
      <trkpt lat="47.66768" lon="6.14119">
        <ele>242</ele>
        <time>2012-08-11T07:09:41.000Z</time>
      </trkpt>
      <trkpt lat="47.66768" lon="6.14111">
        <ele>242</ele>
        <time>2012-08-11T07:09:42.000Z</time>
      </trkpt>
      <trkpt lat="47.66765" lon="6.14098">
        <ele>241.60000610352</ele>
        <time>2012-08-11T07:09:44.000Z</time>
      </trkpt>
      <trkpt lat="47.66762" lon="6.14092">
        <ele>241.19999694824</ele>
        <time>2012-08-11T07:09:45.000Z</time>
      </trkpt>
      <trkpt lat="47.66759" lon="6.14086">
        <ele>240.80000305176</ele>
        <time>2012-08-11T07:09:46.000Z</time>
      </trkpt>
      <trkpt lat="47.66756" lon="6.14079">
        <ele>240.19999694824</ele>
        <time>2012-08-11T07:09:47.000Z</time>
      </trkpt>
      <trkpt lat="47.66753" lon="6.14073">
        <ele>239.80000305176</ele>
        <time>2012-08-11T07:09:48.000Z</time>
      </trkpt>
      <trkpt lat="47.66747" lon="6.14059">
        <ele>239.80000305176</ele>
        <time>2012-08-11T07:09:50.000Z</time>
      </trkpt>
      <trkpt lat="47.66722" lon="6.14006">
        <ele>239.80000305176</ele>
        <time>2012-08-11T07:09:58.000Z</time>
      </trkpt>
      <trkpt lat="47.66712" lon="6.13986">
        <ele>239.39999389648</ele>
        <time>2012-08-11T07:10:01.000Z</time>
      </trkpt>
      <trkpt lat="47.6671" lon="6.13979">
        <ele>239</ele>
        <time>2012-08-11T07:10:02.000Z</time>
      </trkpt>
      <trkpt lat="47.66707" lon="6.13973">
        <ele>238.60000610352</ele>
        <time>2012-08-11T07:10:03.000Z</time>
      </trkpt>
      <trkpt lat="47.66704" lon="6.13966">
        <ele>238.19999694824</ele>
        <time>2012-08-11T07:10:04.000Z</time>
      </trkpt>
      <trkpt lat="47.66701" lon="6.13959">
        <ele>237.80000305176</ele>
        <time>2012-08-11T07:10:05.000Z</time>
      </trkpt>
      <trkpt lat="47.66698" lon="6.13953">
        <ele>237.80000305176</ele>
        <time>2012-08-11T07:10:06.000Z</time>
      </trkpt>
      <trkpt lat="47.66693" lon="6.13939">
        <ele>237.80000305176</ele>
        <time>2012-08-11T07:10:08.000Z</time>
      </trkpt>
      <trkpt lat="47.6669" lon="6.13916">
        <ele>237.80000305176</ele>
        <time>2012-08-11T07:10:11.000Z</time>
      </trkpt>
      <trkpt lat="47.6668" lon="6.13837">
        <ele>237.80000305176</ele>
        <time>2012-08-11T07:10:21.000Z</time>
      </trkpt>
      <trkpt lat="47.66679" lon="6.1383">
        <ele>237.39999389648</ele>
        <time>2012-08-11T07:10:22.000Z</time>
      </trkpt>
      <trkpt lat="47.66678" lon="6.13822">
        <ele>237</ele>
        <time>2012-08-11T07:10:23.000Z</time>
      </trkpt>
      <trkpt lat="47.66677" lon="6.13815">
        <ele>236.60000610352</ele>
        <time>2012-08-11T07:10:24.000Z</time>
      </trkpt>
      <trkpt lat="47.66676" lon="6.13808">
        <ele>236.19999694824</ele>
        <time>2012-08-11T07:10:25.000Z</time>
      </trkpt>
      <trkpt lat="47.66675" lon="6.13801">
        <ele>235.80000305176</ele>
        <time>2012-08-11T07:10:26.000Z</time>
      </trkpt>
      <trkpt lat="47.66673" lon="6.13781">
        <ele>235.80000305176</ele>
        <time>2012-08-11T07:10:29.000Z</time>
      </trkpt>
      <trkpt lat="47.66669" lon="6.13756">
        <ele>235.80000305176</ele>
        <time>2012-08-11T07:10:33.000Z</time>
      </trkpt>
      <trkpt lat="47.66664" lon="6.13746">
        <ele>235.80000305176</ele>
        <time>2012-08-11T07:10:35.000Z</time>
      </trkpt>
      <trkpt lat="47.66649" lon="6.13735">
        <ele>235.80000305176</ele>
        <time>2012-08-11T07:10:39.000Z</time>
      </trkpt>
      <trkpt lat="47.66645" lon="6.13733">
        <ele>235.80000305176</ele>
        <time>2012-08-11T07:10:40.000Z</time>
      </trkpt>
      <trkpt lat="47.6662" lon="6.13723">
        <ele>235.80000305176</ele>
        <time>2012-08-11T07:10:46.000Z</time>
      </trkpt>
      <trkpt lat="47.66585" lon="6.13708">
        <ele>235.80000305176</ele>
        <time>2012-08-11T07:10:54.000Z</time>
      </trkpt>
      <trkpt lat="47.66569" lon="6.13694">
        <ele>235.80000305176</ele>
        <time>2012-08-11T07:10:59.000Z</time>
      </trkpt>
      <trkpt lat="47.66568" lon="6.13688">
        <ele>235.39999389648</ele>
        <time>2012-08-11T07:11:00.000Z</time>
      </trkpt>
      <trkpt lat="47.66568" lon="6.13682">
        <ele>235</ele>
        <time>2012-08-11T07:11:01.000Z</time>
      </trkpt>
      <trkpt lat="47.66569" lon="6.13677">
        <ele>234.60000610352</ele>
        <time>2012-08-11T07:11:02.000Z</time>
      </trkpt>
      <trkpt lat="47.66569" lon="6.13671">
        <ele>234.19999694824</ele>
        <time>2012-08-11T07:11:03.000Z</time>
      </trkpt>
      <trkpt lat="47.6657" lon="6.13664">
        <ele>233.80000305176</ele>
        <time>2012-08-11T07:11:04.000Z</time>
      </trkpt>
      <trkpt lat="47.66575" lon="6.1361">
        <ele>233.80000305176</ele>
        <time>2012-08-11T07:11:13.000Z</time>
      </trkpt>
      <trkpt lat="47.66581" lon="6.13553">
        <ele>233.80000305176</ele>
        <time>2012-08-11T07:11:23.000Z</time>
      </trkpt>
      <trkpt lat="47.66586" lon="6.13508">
        <ele>233.80000305176</ele>
        <time>2012-08-11T07:11:31.000Z</time>
      </trkpt>
      <trkpt lat="47.66591" lon="6.13454">
        <ele>233.80000305176</ele>
        <time>2012-08-11T07:11:40.000Z</time>
      </trkpt>
      <trkpt lat="47.66595" lon="6.13402">
        <ele>233.80000305176</ele>
        <time>2012-08-11T07:11:49.000Z</time>
      </trkpt>
      <trkpt lat="47.66599" lon="6.13369">
        <ele>233.80000305176</ele>
        <time>2012-08-11T07:11:55.000Z</time>
      </trkpt>
      <trkpt lat="47.66601" lon="6.13334">
        <ele>233.80000305176</ele>
        <time>2012-08-11T07:12:02.000Z</time>
      </trkpt>
      <trkpt lat="47.66605" lon="6.13302">
        <ele>233.80000305176</ele>
        <time>2012-08-11T07:12:09.000Z</time>
      </trkpt>
      <trkpt lat="47.66607" lon="6.13274">
        <ele>233.80000305176</ele>
        <time>2012-08-11T07:12:15.000Z</time>
      </trkpt>
      <trkpt lat="47.6661" lon="6.13228">
        <ele>233.80000305176</ele>
        <time>2012-08-11T07:12:24.000Z</time>
      </trkpt>
      <trkpt lat="47.66615" lon="6.13184">
        <ele>233.80000305176</ele>
        <time>2012-08-11T07:12:33.000Z</time>
      </trkpt>
      <trkpt lat="47.66619" lon="6.13144">
        <ele>233.80000305176</ele>
        <time>2012-08-11T07:12:41.000Z</time>
      </trkpt>
      <trkpt lat="47.66622" lon="6.13132">
        <ele>233.80000305176</ele>
        <time>2012-08-11T07:12:43.000Z</time>
      </trkpt>
      <trkpt lat="47.66624" lon="6.13105">
        <ele>233.80000305176</ele>
        <time>2012-08-11T07:12:47.000Z</time>
      </trkpt>
      <trkpt lat="47.66625" lon="6.13091">
        <ele>233.80000305176</ele>
        <time>2012-08-11T07:12:49.000Z</time>
      </trkpt>
      <trkpt lat="47.66627" lon="6.13069">
        <ele>233.80000305176</ele>
        <time>2012-08-11T07:12:53.000Z</time>
      </trkpt>
      <trkpt lat="47.66624" lon="6.13047">
        <ele>233.80000305176</ele>
        <time>2012-08-11T07:12:58.000Z</time>
      </trkpt>
      <trkpt lat="47.66622" lon="6.13041">
        <ele>233.80000305176</ele>
        <time>2012-08-11T07:12:59.000Z</time>
      </trkpt>
      <trkpt lat="47.66619" lon="6.13034">
        <ele>233.19999694824</ele>
        <time>2012-08-11T07:13:00.000Z</time>
      </trkpt>
      <trkpt lat="47.66616" lon="6.13026">
        <ele>232.80000305176</ele>
        <time>2012-08-11T07:13:01.000Z</time>
      </trkpt>
      <trkpt lat="47.66614" lon="6.13018">
        <ele>232.39999389648</ele>
        <time>2012-08-11T07:13:02.000Z</time>
      </trkpt>
      <trkpt lat="47.66613" lon="6.1301">
        <ele>231.80000305176</ele>
        <time>2012-08-11T07:13:03.000Z</time>
      </trkpt>
      <trkpt lat="47.66613" lon="6.13002">
        <ele>231.39999389648</ele>
        <time>2012-08-11T07:13:04.000Z</time>
      </trkpt>
      <trkpt lat="47.66613" lon="6.12994">
        <ele>231.39999389648</ele>
        <time>2012-08-11T07:13:05.000Z</time>
      </trkpt>
      <trkpt lat="47.66614" lon="6.12986">
        <ele>231.39999389648</ele>
        <time>2012-08-11T07:13:06.000Z</time>
      </trkpt>
      <trkpt lat="47.66615" lon="6.12965">
        <ele>231.39999389648</ele>
        <time>2012-08-11T07:13:09.000Z</time>
      </trkpt>
      <trkpt lat="47.66615" lon="6.12959">
        <ele>231.39999389648</ele>
        <time>2012-08-11T07:13:10.000Z</time>
      </trkpt>
      <trkpt lat="47.66614" lon="6.12926">
        <ele>231.39999389648</ele>
        <time>2012-08-11T07:13:16.000Z</time>
      </trkpt>
      <trkpt lat="47.66617" lon="6.12899">
        <ele>231.39999389648</ele>
        <time>2012-08-11T07:13:22.000Z</time>
      </trkpt>
      <trkpt lat="47.66627" lon="6.12873">
        <ele>231.39999389648</ele>
        <time>2012-08-11T07:13:30.000Z</time>
      </trkpt>
      <trkpt lat="47.66632" lon="6.12859">
        <ele>232.19999694824</ele>
        <time>2012-08-11T07:13:35.000Z</time>
      </trkpt>
      <trkpt lat="47.66633" lon="6.12856">
        <ele>232.60000610352</ele>
        <time>2012-08-11T07:13:36.000Z</time>
      </trkpt>
      <trkpt lat="47.66634" lon="6.12854">
        <ele>233.19999694824</ele>
        <time>2012-08-11T07:13:37.000Z</time>
      </trkpt>
      <trkpt lat="47.66635" lon="6.12851">
        <ele>233.60000610352</ele>
        <time>2012-08-11T07:13:38.000Z</time>
      </trkpt>
      <trkpt lat="47.66638" lon="6.12837">
        <ele>233.60000610352</ele>
        <time>2012-08-11T07:13:43.000Z</time>
      </trkpt>
      <trkpt lat="47.66641" lon="6.12828">
        <ele>234</ele>
        <time>2012-08-11T07:13:46.000Z</time>
      </trkpt>
      <trkpt lat="47.66642" lon="6.12825">
        <ele>234.39999389648</ele>
        <time>2012-08-11T07:13:47.000Z</time>
      </trkpt>
      <trkpt lat="47.66644" lon="6.12822">
        <ele>234.80000305176</ele>
        <time>2012-08-11T07:13:48.000Z</time>
      </trkpt>
      <trkpt lat="47.66646" lon="6.1282">
        <ele>235.19999694824</ele>
        <time>2012-08-11T07:13:49.000Z</time>
      </trkpt>
      <trkpt lat="47.66648" lon="6.12817">
        <ele>235.60000610352</ele>
        <time>2012-08-11T07:13:50.000Z</time>
      </trkpt>
      <trkpt lat="47.66663" lon="6.12801">
        <ele>235.60000610352</ele>
        <time>2012-08-11T07:13:56.000Z</time>
      </trkpt>
      <trkpt lat="47.66682" lon="6.1278">
        <ele>235.60000610352</ele>
        <time>2012-08-11T07:14:02.000Z</time>
      </trkpt>
      <trkpt lat="47.6671" lon="6.12748">
        <ele>235.60000610352</ele>
        <time>2012-08-11T07:14:11.000Z</time>
      </trkpt>
      <trkpt lat="47.66745" lon="6.12713">
        <ele>235.60000610352</ele>
        <time>2012-08-11T07:14:22.000Z</time>
      </trkpt>
      <trkpt lat="47.66748" lon="6.1271">
        <ele>235.60000610352</ele>
        <time>2012-08-11T07:14:23.000Z</time>
      </trkpt>
      <trkpt lat="47.66768" lon="6.12691">
        <ele>235.60000610352</ele>
        <time>2012-08-11T07:14:28.000Z</time>
      </trkpt>
      <trkpt lat="47.66776" lon="6.12685">
        <ele>235.60000610352</ele>
        <time>2012-08-11T07:14:30.000Z</time>
      </trkpt>
      <trkpt lat="47.66792" lon="6.12671">
        <ele>235.60000610352</ele>
        <time>2012-08-11T07:14:34.000Z</time>
      </trkpt>
      <trkpt lat="47.66826" lon="6.12644">
        <ele>235.60000610352</ele>
        <time>2012-08-11T07:14:43.000Z</time>
      </trkpt>
      <trkpt lat="47.66855" lon="6.12621">
        <ele>235.60000610352</ele>
        <time>2012-08-11T07:14:51.000Z</time>
      </trkpt>
      <trkpt lat="47.66862" lon="6.12617">
        <ele>235.60000610352</ele>
        <time>2012-08-11T07:14:53.000Z</time>
      </trkpt>
      <trkpt lat="47.66882" lon="6.12608">
        <ele>235.60000610352</ele>
        <time>2012-08-11T07:14:58.000Z</time>
      </trkpt>
      <trkpt lat="47.66905" lon="6.12602">
        <ele>235.60000610352</ele>
        <time>2012-08-11T07:15:04.000Z</time>
      </trkpt>
      <trkpt lat="47.6694" lon="6.12602">
        <ele>235.60000610352</ele>
        <time>2012-08-11T07:15:13.000Z</time>
      </trkpt>
      <trkpt lat="47.66979" lon="6.12607">
        <ele>235.60000610352</ele>
        <time>2012-08-11T07:15:22.000Z</time>
      </trkpt>
      <trkpt lat="47.6701" lon="6.12606">
        <ele>235.60000610352</ele>
        <time>2012-08-11T07:15:29.000Z</time>
      </trkpt>
      <trkpt lat="47.6704" lon="6.12593">
        <ele>235.60000610352</ele>
        <time>2012-08-11T07:15:36.000Z</time>
      </trkpt>
      <trkpt lat="47.6707" lon="6.12575">
        <ele>235.60000610352</ele>
        <time>2012-08-11T07:15:44.000Z</time>
      </trkpt>
      <trkpt lat="47.67087" lon="6.12564">
        <ele>236</ele>
        <time>2012-08-11T07:15:49.000Z</time>
      </trkpt>
      <trkpt lat="47.67091" lon="6.12561">
        <ele>236.39999389648</ele>
        <time>2012-08-11T07:15:50.000Z</time>
      </trkpt>
      <trkpt lat="47.67095" lon="6.12559">
        <ele>237</ele>
        <time>2012-08-11T07:15:51.000Z</time>
      </trkpt>
      <trkpt lat="47.67098" lon="6.12557">
        <ele>237.39999389648</ele>
        <time>2012-08-11T07:15:52.000Z</time>
      </trkpt>
      <trkpt lat="47.67101" lon="6.12555">
        <ele>237.80000305176</ele>
        <time>2012-08-11T07:15:53.000Z</time>
      </trkpt>
      <trkpt lat="47.67116" lon="6.12545">
        <ele>237.80000305176</ele>
        <time>2012-08-11T07:15:58.000Z</time>
      </trkpt>
      <trkpt lat="47.67138" lon="6.12532">
        <ele>238.19999694824</ele>
        <time>2012-08-11T07:16:06.000Z</time>
      </trkpt>
      <trkpt lat="47.67141" lon="6.12531">
        <ele>238.60000610352</ele>
        <time>2012-08-11T07:16:07.000Z</time>
      </trkpt>
      <trkpt lat="47.67143" lon="6.12529">
        <ele>239</ele>
        <time>2012-08-11T07:16:08.000Z</time>
      </trkpt>
      <trkpt lat="47.67145" lon="6.12527">
        <ele>239.60000610352</ele>
        <time>2012-08-11T07:16:09.000Z</time>
      </trkpt>
      <trkpt lat="47.67148" lon="6.12526">
        <ele>240</ele>
        <time>2012-08-11T07:16:10.000Z</time>
      </trkpt>
      <trkpt lat="47.6716" lon="6.12517">
        <ele>240</ele>
        <time>2012-08-11T07:16:15.000Z</time>
      </trkpt>
      <trkpt lat="47.67183" lon="6.12501">
        <ele>240</ele>
        <time>2012-08-11T07:16:24.000Z</time>
      </trkpt>
      <trkpt lat="47.67186" lon="6.12499">
        <ele>240.39999389648</ele>
        <time>2012-08-11T07:16:25.000Z</time>
      </trkpt>
      <trkpt lat="47.67188" lon="6.12497">
        <ele>240.80000305176</ele>
        <time>2012-08-11T07:16:26.000Z</time>
      </trkpt>
      <trkpt lat="47.67191" lon="6.12495">
        <ele>241.19999694824</ele>
        <time>2012-08-11T07:16:27.000Z</time>
      </trkpt>
      <trkpt lat="47.67193" lon="6.12493">
        <ele>242</ele>
        <time>2012-08-11T07:16:28.000Z</time>
      </trkpt>
      <trkpt lat="47.67198" lon="6.1249">
        <ele>242</ele>
        <time>2012-08-11T07:16:30.000Z</time>
      </trkpt>
      <trkpt lat="47.67219" lon="6.12471">
        <ele>242</ele>
        <time>2012-08-11T07:16:38.000Z</time>
      </trkpt>
      <trkpt lat="47.67235" lon="6.12454">
        <ele>242</ele>
        <time>2012-08-11T07:16:43.000Z</time>
      </trkpt>
      <trkpt lat="47.67266" lon="6.12419">
        <ele>242</ele>
        <time>2012-08-11T07:16:53.000Z</time>
      </trkpt>
      <trkpt lat="47.67288" lon="6.12399">
        <ele>242</ele>
        <time>2012-08-11T07:17:00.000Z</time>
      </trkpt>
      <trkpt lat="47.67311" lon="6.12383">
        <ele>242</ele>
        <time>2012-08-11T07:17:07.000Z</time>
      </trkpt>
      <trkpt lat="47.67327" lon="6.1238">
        <ele>242</ele>
        <time>2012-08-11T07:17:12.000Z</time>
      </trkpt>
      <trkpt lat="47.67351" lon="6.12388">
        <ele>242</ele>
        <time>2012-08-11T07:17:19.000Z</time>
      </trkpt>
      <trkpt lat="47.67358" lon="6.12391">
        <ele>242.39999389648</ele>
        <time>2012-08-11T07:17:21.000Z</time>
      </trkpt>
      <trkpt lat="47.67362" lon="6.12392">
        <ele>242.80000305176</ele>
        <time>2012-08-11T07:17:22.000Z</time>
      </trkpt>
      <trkpt lat="47.67365" lon="6.12394">
        <ele>243.19999694824</ele>
        <time>2012-08-11T07:17:23.000Z</time>
      </trkpt>
      <trkpt lat="47.67368" lon="6.12395">
        <ele>243.60000610352</ele>
        <time>2012-08-11T07:17:24.000Z</time>
      </trkpt>
      <trkpt lat="47.67371" lon="6.12397">
        <ele>244.19999694824</ele>
        <time>2012-08-11T07:17:25.000Z</time>
      </trkpt>
      <trkpt lat="47.67375" lon="6.12399">
        <ele>244.19999694824</ele>
        <time>2012-08-11T07:17:26.000Z</time>
      </trkpt>
      <trkpt lat="47.67396" lon="6.12403">
        <ele>244.19999694824</ele>
        <time>2012-08-11T07:17:32.000Z</time>
      </trkpt>
      <trkpt lat="47.67418" lon="6.12388">
        <ele>244.19999694824</ele>
        <time>2012-08-11T07:17:40.000Z</time>
      </trkpt>
      <trkpt lat="47.67435" lon="6.12372">
        <ele>244.60000610352</ele>
        <time>2012-08-11T07:17:47.000Z</time>
      </trkpt>
      <trkpt lat="47.67437" lon="6.1237">
        <ele>245</ele>
        <time>2012-08-11T07:17:48.000Z</time>
      </trkpt>
      <trkpt lat="47.6744" lon="6.12368">
        <ele>245.39999389648</ele>
        <time>2012-08-11T07:17:49.000Z</time>
      </trkpt>
      <trkpt lat="47.67442" lon="6.12366">
        <ele>246</ele>
        <time>2012-08-11T07:17:50.000Z</time>
      </trkpt>
      <trkpt lat="47.67444" lon="6.12364">
        <ele>246.39999389648</ele>
        <time>2012-08-11T07:17:51.000Z</time>
      </trkpt>
      <trkpt lat="47.67449" lon="6.12356">
        <ele>246.39999389648</ele>
        <time>2012-08-11T07:17:54.000Z</time>
      </trkpt>
      <trkpt lat="47.67457" lon="6.12341">
        <ele>246.80000305176</ele>
        <time>2012-08-11T07:18:00.000Z</time>
      </trkpt>
      <trkpt lat="47.67459" lon="6.12338">
        <ele>247.19999694824</ele>
        <time>2012-08-11T07:18:01.000Z</time>
      </trkpt>
      <trkpt lat="47.6746" lon="6.12336">
        <ele>247.60000610352</ele>
        <time>2012-08-11T07:18:02.000Z</time>
      </trkpt>
      <trkpt lat="47.67462" lon="6.12333">
        <ele>248</ele>
        <time>2012-08-11T07:18:03.000Z</time>
      </trkpt>
      <trkpt lat="47.67463" lon="6.12331">
        <ele>248.39999389648</ele>
        <time>2012-08-11T07:18:04.000Z</time>
      </trkpt>
      <trkpt lat="47.67465" lon="6.12328">
        <ele>248.39999389648</ele>
        <time>2012-08-11T07:18:05.000Z</time>
      </trkpt>
      <trkpt lat="47.67476" lon="6.12306">
        <ele>248.39999389648</ele>
        <time>2012-08-11T07:18:11.000Z</time>
      </trkpt>
      <trkpt lat="47.67478" lon="6.12302">
        <ele>248.39999389648</ele>
        <time>2012-08-11T07:18:12.000Z</time>
      </trkpt>
      <trkpt lat="47.67485" lon="6.12293">
        <ele>248.39999389648</ele>
        <time>2012-08-11T07:18:14.000Z</time>
      </trkpt>
      <trkpt lat="47.67495" lon="6.12281">
        <ele>248.39999389648</ele>
        <time>2012-08-11T07:18:17.000Z</time>
      </trkpt>
      <trkpt lat="47.67518" lon="6.12258">
        <ele>248.39999389648</ele>
        <time>2012-08-11T07:18:24.000Z</time>
      </trkpt>
      <trkpt lat="47.67541" lon="6.12233">
        <ele>248.39999389648</ele>
        <time>2012-08-11T07:18:32.000Z</time>
      </trkpt>
      <trkpt lat="47.67563" lon="6.12213">
        <ele>248.39999389648</ele>
        <time>2012-08-11T07:18:39.000Z</time>
      </trkpt>
      <trkpt lat="47.6758" lon="6.12194">
        <ele>248.39999389648</ele>
        <time>2012-08-11T07:18:45.000Z</time>
      </trkpt>
      <trkpt lat="47.67592" lon="6.12185">
        <ele>248.39999389648</ele>
        <time>2012-08-11T07:18:49.000Z</time>
      </trkpt>
      <trkpt lat="47.67619" lon="6.12161">
        <ele>248.39999389648</ele>
        <time>2012-08-11T07:18:58.000Z</time>
      </trkpt>
      <trkpt lat="47.67634" lon="6.12147">
        <ele>248.80000305176</ele>
        <time>2012-08-11T07:19:03.000Z</time>
      </trkpt>
      <trkpt lat="47.67637" lon="6.12145">
        <ele>249.19999694824</ele>
        <time>2012-08-11T07:19:04.000Z</time>
      </trkpt>
      <trkpt lat="47.6764" lon="6.12142">
        <ele>249.60000610352</ele>
        <time>2012-08-11T07:19:05.000Z</time>
      </trkpt>
      <trkpt lat="47.67643" lon="6.12139">
        <ele>250</ele>
        <time>2012-08-11T07:19:06.000Z</time>
      </trkpt>
      <trkpt lat="47.67646" lon="6.12136">
        <ele>250.39999389648</ele>
        <time>2012-08-11T07:19:07.000Z</time>
      </trkpt>
      <trkpt lat="47.67672" lon="6.1211">
        <ele>250.39999389648</ele>
        <time>2012-08-11T07:19:16.000Z</time>
      </trkpt>
      <trkpt lat="47.67698" lon="6.12086">
        <ele>250.39999389648</ele>
        <time>2012-08-11T07:19:25.000Z</time>
      </trkpt>
      <trkpt lat="47.67714" lon="6.12073">
        <ele>250.80000305176</ele>
        <time>2012-08-11T07:19:31.000Z</time>
      </trkpt>
      <trkpt lat="47.67716" lon="6.1207">
        <ele>251.19999694824</ele>
        <time>2012-08-11T07:19:32.000Z</time>
      </trkpt>
      <trkpt lat="47.67719" lon="6.12068">
        <ele>251.60000610352</ele>
        <time>2012-08-11T07:19:33.000Z</time>
      </trkpt>
      <trkpt lat="47.67721" lon="6.12066">
        <ele>252</ele>
        <time>2012-08-11T07:19:34.000Z</time>
      </trkpt>
      <trkpt lat="47.67724" lon="6.12064">
        <ele>252.60000610352</ele>
        <time>2012-08-11T07:19:35.000Z</time>
      </trkpt>
      <trkpt lat="47.6773" lon="6.12056">
        <ele>252.60000610352</ele>
        <time>2012-08-11T07:19:38.000Z</time>
      </trkpt>
      <trkpt lat="47.67745" lon="6.12039">
        <ele>252.60000610352</ele>
        <time>2012-08-11T07:19:45.000Z</time>
      </trkpt>
      <trkpt lat="47.67748" lon="6.12037">
        <ele>253</ele>
        <time>2012-08-11T07:19:46.000Z</time>
      </trkpt>
      <trkpt lat="47.6775" lon="6.12034">
        <ele>253.39999389648</ele>
        <time>2012-08-11T07:19:47.000Z</time>
      </trkpt>
      <trkpt lat="47.67753" lon="6.12032">
        <ele>253.80000305176</ele>
        <time>2012-08-11T07:19:48.000Z</time>
      </trkpt>
      <trkpt lat="47.67756" lon="6.1203">
        <ele>254.19999694824</ele>
        <time>2012-08-11T07:19:49.000Z</time>
      </trkpt>
      <trkpt lat="47.67758" lon="6.12028">
        <ele>254.60000610352</ele>
        <time>2012-08-11T07:19:50.000Z</time>
      </trkpt>
      <trkpt lat="47.67773" lon="6.12015">
        <ele>254.60000610352</ele>
        <time>2012-08-11T07:19:57.000Z</time>
      </trkpt>
      <trkpt lat="47.67777" lon="6.12012">
        <ele>255</ele>
        <time>2012-08-11T07:19:59.000Z</time>
      </trkpt>
      <trkpt lat="47.67779" lon="6.12009">
        <ele>255.60000610352</ele>
        <time>2012-08-11T07:20:00.000Z</time>
      </trkpt>
      <trkpt lat="47.6778" lon="6.12007">
        <ele>256</ele>
        <time>2012-08-11T07:20:01.000Z</time>
      </trkpt>
      <trkpt lat="47.67783" lon="6.12004">
        <ele>256.39999389648</ele>
        <time>2012-08-11T07:20:02.000Z</time>
      </trkpt>
      <trkpt lat="47.67785" lon="6.12002">
        <ele>256.79998779297</ele>
        <time>2012-08-11T07:20:03.000Z</time>
      </trkpt>
      <trkpt lat="47.67793" lon="6.11993">
        <ele>256.79998779297</ele>
        <time>2012-08-11T07:20:08.000Z</time>
      </trkpt>
      <trkpt lat="47.67796" lon="6.1199">
        <ele>257.60000610352</ele>
        <time>2012-08-11T07:20:10.000Z</time>
      </trkpt>
      <trkpt lat="47.67798" lon="6.11988">
        <ele>258</ele>
        <time>2012-08-11T07:20:11.000Z</time>
      </trkpt>
      <trkpt lat="47.67799" lon="6.11986">
        <ele>258.39999389648</ele>
        <time>2012-08-11T07:20:12.000Z</time>
      </trkpt>
      <trkpt lat="47.67801" lon="6.11985">
        <ele>258.79998779297</ele>
        <time>2012-08-11T07:20:13.000Z</time>
      </trkpt>
      <trkpt lat="47.67805" lon="6.11981">
        <ele>258.79998779297</ele>
        <time>2012-08-11T07:20:15.000Z</time>
      </trkpt>
      <trkpt lat="47.67818" lon="6.11968">
        <ele>258.79998779297</ele>
        <time>2012-08-11T07:20:22.000Z</time>
      </trkpt>
      <trkpt lat="47.67838" lon="6.11953">
        <ele>258.79998779297</ele>
        <time>2012-08-11T07:20:30.000Z</time>
      </trkpt>
      <trkpt lat="47.67859" lon="6.11933">
        <ele>258.79998779297</ele>
        <time>2012-08-11T07:20:37.000Z</time>
      </trkpt>
      <trkpt lat="47.67883" lon="6.11909">
        <ele>258.79998779297</ele>
        <time>2012-08-11T07:20:45.000Z</time>
      </trkpt>
      <trkpt lat="47.67907" lon="6.11888">
        <ele>258.79998779297</ele>
        <time>2012-08-11T07:20:53.000Z</time>
      </trkpt>
      <trkpt lat="47.67927" lon="6.11871">
        <ele>258.79998779297</ele>
        <time>2012-08-11T07:21:00.000Z</time>
      </trkpt>
      <trkpt lat="47.67943" lon="6.11859">
        <ele>258.79998779297</ele>
        <time>2012-08-11T07:21:07.000Z</time>
      </trkpt>
      <trkpt lat="47.67947" lon="6.11856">
        <ele>259.20001220703</ele>
        <time>2012-08-11T07:21:09.000Z</time>
      </trkpt>
      <trkpt lat="47.67949" lon="6.11855">
        <ele>259.60000610352</ele>
        <time>2012-08-11T07:21:10.000Z</time>
      </trkpt>
      <trkpt lat="47.67952" lon="6.11854">
        <ele>260</ele>
        <time>2012-08-11T07:21:11.000Z</time>
      </trkpt>
      <trkpt lat="47.67954" lon="6.11852">
        <ele>260.39999389648</ele>
        <time>2012-08-11T07:21:12.000Z</time>
      </trkpt>
      <trkpt lat="47.67955" lon="6.1185">
        <ele>260.79998779297</ele>
        <time>2012-08-11T07:21:13.000Z</time>
      </trkpt>
      <trkpt lat="47.67957" lon="6.11849">
        <ele>260.79998779297</ele>
        <time>2012-08-11T07:21:14.000Z</time>
      </trkpt>
      <trkpt lat="47.6797" lon="6.11837">
        <ele>260.79998779297</ele>
        <time>2012-08-11T07:21:21.000Z</time>
      </trkpt>
      <trkpt lat="47.67982" lon="6.11824">
        <ele>260.79998779297</ele>
        <time>2012-08-11T07:21:27.000Z</time>
      </trkpt>
      <trkpt lat="47.67999" lon="6.1181">
        <ele>260.79998779297</ele>
        <time>2012-08-11T07:21:32.000Z</time>
      </trkpt>
      <trkpt lat="47.68025" lon="6.11789">
        <ele>260.79998779297</ele>
        <time>2012-08-11T07:21:40.000Z</time>
      </trkpt>
      <trkpt lat="47.68035" lon="6.11786">
        <ele>260.79998779297</ele>
        <time>2012-08-11T07:21:44.000Z</time>
      </trkpt>
      <trkpt lat="47.68037" lon="6.11788">
        <ele>260.79998779297</ele>
        <time>2012-08-11T07:21:45.000Z</time>
      </trkpt>
      <trkpt lat="47.68043" lon="6.11795">
        <ele>261.20001220703</ele>
        <time>2012-08-11T07:21:49.000Z</time>
      </trkpt>
      <trkpt lat="47.68044" lon="6.11796">
        <ele>261.60000610352</ele>
        <time>2012-08-11T07:21:50.000Z</time>
      </trkpt>
      <trkpt lat="47.68045" lon="6.11796">
        <ele>262</ele>
        <time>2012-08-11T07:21:51.000Z</time>
      </trkpt>
      <trkpt lat="47.68045" lon="6.11796">
        <ele>262.39999389648</ele>
        <time>2012-08-11T07:21:52.000Z</time>
      </trkpt>
      <trkpt lat="47.68048" lon="6.11803">
        <ele>263</ele>
        <time>2012-08-11T07:22:29.000Z</time>
      </trkpt>
      <trkpt lat="47.6805" lon="6.11807">
        <ele>263</ele>
        <time>2012-08-11T07:22:31.000Z</time>
      </trkpt>
      <trkpt lat="47.68056" lon="6.1182">
        <ele>263</ele>
        <time>2012-08-11T07:22:38.000Z</time>
      </trkpt>
      <trkpt lat="47.68056" lon="6.11822">
        <ele>263</ele>
        <time>2012-08-11T07:22:39.000Z</time>
      </trkpt>
      <trkpt lat="47.68057" lon="6.11825">
        <ele>263</ele>
        <time>2012-08-11T07:22:41.000Z</time>
      </trkpt>
      <trkpt lat="47.68061" lon="6.1183">
        <ele>263</ele>
        <time>2012-08-11T07:22:43.000Z</time>
      </trkpt>
      <trkpt lat="47.68075" lon="6.11855">
        <ele>263</ele>
        <time>2012-08-11T07:22:51.000Z</time>
      </trkpt>
      <trkpt lat="47.68086" lon="6.11885">
        <ele>263</ele>
        <time>2012-08-11T07:22:59.000Z</time>
      </trkpt>
      <trkpt lat="47.68095" lon="6.11913">
        <ele>263</ele>
        <time>2012-08-11T07:23:05.000Z</time>
      </trkpt>
      <trkpt lat="47.6811" lon="6.1195">
        <ele>263</ele>
        <time>2012-08-11T07:23:13.000Z</time>
      </trkpt>
      <trkpt lat="47.68124" lon="6.11987">
        <ele>263</ele>
        <time>2012-08-11T07:23:21.000Z</time>
      </trkpt>
      <trkpt lat="47.68136" lon="6.12019">
        <ele>263</ele>
        <time>2012-08-11T07:23:28.000Z</time>
      </trkpt>
      <trkpt lat="47.68153" lon="6.1206">
        <ele>263</ele>
        <time>2012-08-11T07:23:36.000Z</time>
      </trkpt>
      <trkpt lat="47.68168" lon="6.12099">
        <ele>263</ele>
        <time>2012-08-11T07:23:44.000Z</time>
      </trkpt>
      <trkpt lat="47.68181" lon="6.12135">
        <ele>263</ele>
        <time>2012-08-11T07:23:52.000Z</time>
      </trkpt>
      <trkpt lat="47.68191" lon="6.12159">
        <ele>263</ele>
        <time>2012-08-11T07:23:58.000Z</time>
      </trkpt>
      <trkpt lat="47.68205" lon="6.12189">
        <ele>263</ele>
        <time>2012-08-11T07:24:05.000Z</time>
      </trkpt>
      <trkpt lat="47.68216" lon="6.12215">
        <ele>263</ele>
        <time>2012-08-11T07:24:11.000Z</time>
      </trkpt>
      <trkpt lat="47.68227" lon="6.1224">
        <ele>263</ele>
        <time>2012-08-11T07:24:17.000Z</time>
      </trkpt>
      <trkpt lat="47.6824" lon="6.12274">
        <ele>263</ele>
        <time>2012-08-11T07:24:25.000Z</time>
      </trkpt>
      <trkpt lat="47.68253" lon="6.12307">
        <ele>263</ele>
        <time>2012-08-11T07:24:33.000Z</time>
      </trkpt>
      <trkpt lat="47.68266" lon="6.12338">
        <ele>263</ele>
        <time>2012-08-11T07:24:41.000Z</time>
      </trkpt>
      <trkpt lat="47.68278" lon="6.12364">
        <ele>263</ele>
        <time>2012-08-11T07:24:48.000Z</time>
      </trkpt>
      <trkpt lat="47.68287" lon="6.12386">
        <ele>263</ele>
        <time>2012-08-11T07:24:55.000Z</time>
      </trkpt>
      <trkpt lat="47.68295" lon="6.12408">
        <ele>263.39999389648</ele>
        <time>2012-08-11T07:25:01.000Z</time>
      </trkpt>
      <trkpt lat="47.68296" lon="6.12411">
        <ele>263.79998779297</ele>
        <time>2012-08-11T07:25:02.000Z</time>
      </trkpt>
      <trkpt lat="47.68298" lon="6.12414">
        <ele>264.20001220703</ele>
        <time>2012-08-11T07:25:03.000Z</time>
      </trkpt>
      <trkpt lat="47.68299" lon="6.12418">
        <ele>264.60000610352</ele>
        <time>2012-08-11T07:25:04.000Z</time>
      </trkpt>
      <trkpt lat="47.683" lon="6.12421">
        <ele>265</ele>
        <time>2012-08-11T07:25:05.000Z</time>
      </trkpt>
      <trkpt lat="47.68304" lon="6.12434">
        <ele>265</ele>
        <time>2012-08-11T07:25:09.000Z</time>
      </trkpt>
      <trkpt lat="47.68312" lon="6.12451">
        <ele>265</ele>
        <time>2012-08-11T07:25:15.000Z</time>
      </trkpt>
      <trkpt lat="47.6832" lon="6.1247">
        <ele>265.39999389648</ele>
        <time>2012-08-11T07:25:21.000Z</time>
      </trkpt>
      <trkpt lat="47.68321" lon="6.12474">
        <ele>265.79998779297</ele>
        <time>2012-08-11T07:25:22.000Z</time>
      </trkpt>
      <trkpt lat="47.68322" lon="6.12477">
        <ele>266.20001220703</ele>
        <time>2012-08-11T07:25:23.000Z</time>
      </trkpt>
      <trkpt lat="47.68323" lon="6.12481">
        <ele>266.60000610352</ele>
        <time>2012-08-11T07:25:24.000Z</time>
      </trkpt>
      <trkpt lat="47.68325" lon="6.12485">
        <ele>267</ele>
        <time>2012-08-11T07:25:25.000Z</time>
      </trkpt>
      <trkpt lat="47.6833" lon="6.12498">
        <ele>267</ele>
        <time>2012-08-11T07:25:28.000Z</time>
      </trkpt>
      <trkpt lat="47.68343" lon="6.12529">
        <ele>267</ele>
        <time>2012-08-11T07:25:34.000Z</time>
      </trkpt>
      <trkpt lat="47.68348" lon="6.12542">
        <ele>267</ele>
        <time>2012-08-11T07:25:36.000Z</time>
      </trkpt>
      <trkpt lat="47.68356" lon="6.12563">
        <ele>267</ele>
        <time>2012-08-11T07:25:39.000Z</time>
      </trkpt>
      <trkpt lat="47.68359" lon="6.1257">
        <ele>266.60000610352</ele>
        <time>2012-08-11T07:25:40.000Z</time>
      </trkpt>
      <trkpt lat="47.68362" lon="6.12577">
        <ele>266.20001220703</ele>
        <time>2012-08-11T07:25:41.000Z</time>
      </trkpt>
      <trkpt lat="47.68365" lon="6.12584">
        <ele>265.60000610352</ele>
        <time>2012-08-11T07:25:42.000Z</time>
      </trkpt>
      <trkpt lat="47.68368" lon="6.12591">
        <ele>265.20001220703</ele>
        <time>2012-08-11T07:25:43.000Z</time>
      </trkpt>
      <trkpt lat="47.68371" lon="6.12599">
        <ele>264.79998779297</ele>
        <time>2012-08-11T07:25:44.000Z</time>
      </trkpt>
      <trkpt lat="47.68381" lon="6.1262">
        <ele>264.79998779297</ele>
        <time>2012-08-11T07:25:47.000Z</time>
      </trkpt>
      <trkpt lat="47.68397" lon="6.12654">
        <ele>264.79998779297</ele>
        <time>2012-08-11T07:25:53.000Z</time>
      </trkpt>
      <trkpt lat="47.68403" lon="6.12673">
        <ele>264.79998779297</ele>
        <time>2012-08-11T07:25:58.000Z</time>
      </trkpt>
      <trkpt lat="47.68408" lon="6.12687">
        <ele>264.79998779297</ele>
        <time>2012-08-11T07:26:03.000Z</time>
      </trkpt>
      <trkpt lat="47.68413" lon="6.127">
        <ele>264.79998779297</ele>
        <time>2012-08-11T07:26:08.000Z</time>
      </trkpt>
      <trkpt lat="47.68414" lon="6.12702">
        <ele>265.20001220703</ele>
        <time>2012-08-11T07:26:09.000Z</time>
      </trkpt>
      <trkpt lat="47.68414" lon="6.12704">
        <ele>265.60000610352</ele>
        <time>2012-08-11T07:26:10.000Z</time>
      </trkpt>
      <trkpt lat="47.68415" lon="6.12706">
        <ele>266</ele>
        <time>2012-08-11T07:26:11.000Z</time>
      </trkpt>
      <trkpt lat="47.68415" lon="6.12709">
        <ele>266.39999389648</ele>
        <time>2012-08-11T07:26:12.000Z</time>
      </trkpt>
      <trkpt lat="47.68417" lon="6.12711">
        <ele>266.79998779297</ele>
        <time>2012-08-11T07:26:13.000Z</time>
      </trkpt>
      <trkpt lat="47.68417" lon="6.12711">
        <ele>266.79998779297</ele>
        <time>2012-08-11T07:26:14.000Z</time>
      </trkpt>
      <trkpt lat="47.68417" lon="6.12712">
        <ele>266.79998779297</ele>
        <time>2012-08-11T07:26:15.000Z</time>
      </trkpt>
      <trkpt lat="47.68418" lon="6.12715">
        <ele>267.20001220703</ele>
        <time>2012-08-11T07:26:17.000Z</time>
      </trkpt>
      <trkpt lat="47.68418" lon="6.12718">
        <ele>267.79998779297</ele>
        <time>2012-08-11T07:26:18.000Z</time>
      </trkpt>
      <trkpt lat="47.68419" lon="6.1272">
        <ele>268.20001220703</ele>
        <time>2012-08-11T07:26:19.000Z</time>
      </trkpt>
      <trkpt lat="47.6842" lon="6.12721">
        <ele>268.60000610352</ele>
        <time>2012-08-11T07:26:20.000Z</time>
      </trkpt>
      <trkpt lat="47.6842" lon="6.12723">
        <ele>269</ele>
        <time>2012-08-11T07:26:21.000Z</time>
      </trkpt>
      <trkpt lat="47.6842" lon="6.12725">
        <ele>269</ele>
        <time>2012-08-11T07:26:22.000Z</time>
      </trkpt>
      <trkpt lat="47.68421" lon="6.12729">
        <ele>269</ele>
        <time>2012-08-11T07:26:24.000Z</time>
      </trkpt>
      <trkpt lat="47.68422" lon="6.12733">
        <ele>269.39999389648</ele>
        <time>2012-08-11T07:26:26.000Z</time>
      </trkpt>
      <trkpt lat="47.68423" lon="6.12735">
        <ele>269.79998779297</ele>
        <time>2012-08-11T07:26:27.000Z</time>
      </trkpt>
      <trkpt lat="47.68424" lon="6.12737">
        <ele>270.20001220703</ele>
        <time>2012-08-11T07:26:28.000Z</time>
      </trkpt>
      <trkpt lat="47.68424" lon="6.1274">
        <ele>270.60000610352</ele>
        <time>2012-08-11T07:26:29.000Z</time>
      </trkpt>
      <trkpt lat="47.68424" lon="6.12741">
        <ele>271.20001220703</ele>
        <time>2012-08-11T07:26:30.000Z</time>
      </trkpt>
      <trkpt lat="47.68425" lon="6.1275">
        <ele>271.20001220703</ele>
        <time>2012-08-11T07:26:36.000Z</time>
      </trkpt>
      <trkpt lat="47.68426" lon="6.12752">
        <ele>271.60000610352</ele>
        <time>2012-08-11T07:26:37.000Z</time>
      </trkpt>
      <trkpt lat="47.68427" lon="6.12754">
        <ele>272</ele>
        <time>2012-08-11T07:26:38.000Z</time>
      </trkpt>
      <trkpt lat="47.68427" lon="6.12757">
        <ele>272.79998779297</ele>
        <time>2012-08-11T07:26:39.000Z</time>
      </trkpt>
      <trkpt lat="47.68428" lon="6.12758">
        <ele>273.20001220703</ele>
        <time>2012-08-11T07:26:40.000Z</time>
      </trkpt>
      <trkpt lat="47.68429" lon="6.12761">
        <ele>273.20001220703</ele>
        <time>2012-08-11T07:26:42.000Z</time>
      </trkpt>
      <trkpt lat="47.68431" lon="6.12765">
        <ele>273.20001220703</ele>
        <time>2012-08-11T07:26:44.000Z</time>
      </trkpt>
      <trkpt lat="47.68435" lon="6.12771">
        <ele>273.20001220703</ele>
        <time>2012-08-11T07:26:47.000Z</time>
      </trkpt>
      <trkpt lat="47.68436" lon="6.12776">
        <ele>273.60000610352</ele>
        <time>2012-08-11T07:26:49.000Z</time>
      </trkpt>
      <trkpt lat="47.68437" lon="6.12778">
        <ele>274</ele>
        <time>2012-08-11T07:26:50.000Z</time>
      </trkpt>
      <trkpt lat="47.68438" lon="6.12781">
        <ele>274.60000610352</ele>
        <time>2012-08-11T07:26:51.000Z</time>
      </trkpt>
      <trkpt lat="47.6844" lon="6.12784">
        <ele>275</ele>
        <time>2012-08-11T07:26:52.000Z</time>
      </trkpt>
      <trkpt lat="47.68441" lon="6.12787">
        <ele>275.39999389648</ele>
        <time>2012-08-11T07:26:53.000Z</time>
      </trkpt>
      <trkpt lat="47.68443" lon="6.12789">
        <ele>275.39999389648</ele>
        <time>2012-08-11T07:26:54.000Z</time>
      </trkpt>
      <trkpt lat="47.68448" lon="6.128">
        <ele>275.39999389648</ele>
        <time>2012-08-11T07:27:01.000Z</time>
      </trkpt>
      <trkpt lat="47.6845" lon="6.12802">
        <ele>275.79998779297</ele>
        <time>2012-08-11T07:27:02.000Z</time>
      </trkpt>
      <trkpt lat="47.6845" lon="6.12805">
        <ele>276.20001220703</ele>
        <time>2012-08-11T07:27:03.000Z</time>
      </trkpt>
      <trkpt lat="47.68452" lon="6.12807">
        <ele>277</ele>
        <time>2012-08-11T07:27:04.000Z</time>
      </trkpt>
      <trkpt lat="47.68453" lon="6.12809">
        <ele>277.39999389648</ele>
        <time>2012-08-11T07:27:05.000Z</time>
      </trkpt>
      <trkpt lat="47.68454" lon="6.12811">
        <ele>277.39999389648</ele>
        <time>2012-08-11T07:27:06.000Z</time>
      </trkpt>
      <trkpt lat="47.68455" lon="6.12814">
        <ele>277.39999389648</ele>
        <time>2012-08-11T07:27:08.000Z</time>
      </trkpt>
      <trkpt lat="47.68457" lon="6.12819">
        <ele>277.39999389648</ele>
        <time>2012-08-11T07:27:12.000Z</time>
      </trkpt>
      <trkpt lat="47.68458" lon="6.12823">
        <ele>277.79998779297</ele>
        <time>2012-08-11T07:27:14.000Z</time>
      </trkpt>
      <trkpt lat="47.68459" lon="6.12825">
        <ele>278.20001220703</ele>
        <time>2012-08-11T07:27:15.000Z</time>
      </trkpt>
      <trkpt lat="47.6846" lon="6.12827">
        <ele>278.60000610352</ele>
        <time>2012-08-11T07:27:16.000Z</time>
      </trkpt>
      <trkpt lat="47.6846" lon="6.12829">
        <ele>279</ele>
        <time>2012-08-11T07:27:17.000Z</time>
      </trkpt>
      <trkpt lat="47.68461" lon="6.1283">
        <ele>279.39999389648</ele>
        <time>2012-08-11T07:27:18.000Z</time>
      </trkpt>
      <trkpt lat="47.68461" lon="6.12831">
        <ele>279.39999389648</ele>
        <time>2012-08-11T07:27:19.000Z</time>
      </trkpt>
      <trkpt lat="47.68468" lon="6.12846">
        <ele>279.39999389648</ele>
        <time>2012-08-11T07:27:26.000Z</time>
      </trkpt>
      <trkpt lat="47.68469" lon="6.12853">
        <ele>279.39999389648</ele>
        <time>2012-08-11T07:27:29.000Z</time>
      </trkpt>
      <trkpt lat="47.68472" lon="6.12861">
        <ele>279.39999389648</ele>
        <time>2012-08-11T07:27:32.000Z</time>
      </trkpt>
      <trkpt lat="47.68478" lon="6.12871">
        <ele>279.39999389648</ele>
        <time>2012-08-11T07:27:37.000Z</time>
      </trkpt>
      <trkpt lat="47.68479" lon="6.12875">
        <ele>279.79998779297</ele>
        <time>2012-08-11T07:27:39.000Z</time>
      </trkpt>
      <trkpt lat="47.68479" lon="6.12877">
        <ele>280.20001220703</ele>
        <time>2012-08-11T07:27:40.000Z</time>
      </trkpt>
      <trkpt lat="47.6848" lon="6.1288">
        <ele>280.60000610352</ele>
        <time>2012-08-11T07:27:41.000Z</time>
      </trkpt>
      <trkpt lat="47.68481" lon="6.12882">
        <ele>281</ele>
        <time>2012-08-11T07:27:42.000Z</time>
      </trkpt>
      <trkpt lat="47.68481" lon="6.12884">
        <ele>281.39999389648</ele>
        <time>2012-08-11T07:27:43.000Z</time>
      </trkpt>
      <trkpt lat="47.68483" lon="6.12889">
        <ele>281.39999389648</ele>
        <time>2012-08-11T07:27:45.000Z</time>
      </trkpt>
      <trkpt lat="47.68485" lon="6.12898">
        <ele>281.39999389648</ele>
        <time>2012-08-11T07:27:50.000Z</time>
      </trkpt>
      <trkpt lat="47.68492" lon="6.12914">
        <ele>281.39999389648</ele>
        <time>2012-08-11T07:27:55.000Z</time>
      </trkpt>
      <trkpt lat="47.68501" lon="6.12934">
        <ele>281.39999389648</ele>
        <time>2012-08-11T07:28:02.000Z</time>
      </trkpt>
      <trkpt lat="47.68508" lon="6.1295">
        <ele>281.39999389648</ele>
        <time>2012-08-11T07:28:08.000Z</time>
      </trkpt>
      <trkpt lat="47.68515" lon="6.12965">
        <ele>281.39999389648</ele>
        <time>2012-08-11T07:28:12.000Z</time>
      </trkpt>
      <trkpt lat="47.68517" lon="6.1297">
        <ele>281.39999389648</ele>
        <time>2012-08-11T07:28:13.000Z</time>
      </trkpt>
      <trkpt lat="47.68524" lon="6.12985">
        <ele>281</ele>
        <time>2012-08-11T07:28:17.000Z</time>
      </trkpt>
      <trkpt lat="47.68525" lon="6.12989">
        <ele>280.20001220703</ele>
        <time>2012-08-11T07:28:18.000Z</time>
      </trkpt>
      <trkpt lat="47.68526" lon="6.12993">
        <ele>279.79998779297</ele>
        <time>2012-08-11T07:28:19.000Z</time>
      </trkpt>
      <trkpt lat="47.68527" lon="6.12996">
        <ele>279.39999389648</ele>
        <time>2012-08-11T07:28:20.000Z</time>
      </trkpt>
      <trkpt lat="47.68532" lon="6.13007">
        <ele>279.39999389648</ele>
        <time>2012-08-11T07:28:24.000Z</time>
      </trkpt>
      <trkpt lat="47.68541" lon="6.13023">
        <ele>279.39999389648</ele>
        <time>2012-08-11T07:28:30.000Z</time>
      </trkpt>
      <trkpt lat="47.68546" lon="6.13031">
        <ele>279.39999389648</ele>
        <time>2012-08-11T07:28:35.000Z</time>
      </trkpt>
      <trkpt lat="47.68544" lon="6.1307">
        <ele>281.39999389648</ele>
        <time>2012-08-11T07:29:32.000Z</time>
      </trkpt>
      <trkpt lat="47.68546" lon="6.13077">
        <ele>281.39999389648</ele>
        <time>2012-08-11T07:29:35.000Z</time>
      </trkpt>
      <trkpt lat="47.6855" lon="6.13081">
        <ele>281.39999389648</ele>
        <time>2012-08-11T07:29:40.000Z</time>
      </trkpt>
      <trkpt lat="47.6855" lon="6.13082">
        <ele>281.39999389648</ele>
        <time>2012-08-11T07:29:42.000Z</time>
      </trkpt>
      <trkpt lat="47.68553" lon="6.13086">
        <ele>281.39999389648</ele>
        <time>2012-08-11T07:30:25.000Z</time>
      </trkpt>
      <trkpt lat="47.68554" lon="6.13088">
        <ele>281.39999389648</ele>
        <time>2012-08-11T07:30:26.000Z</time>
      </trkpt>
      <trkpt lat="47.68564" lon="6.13104">
        <ele>281.39999389648</ele>
        <time>2012-08-11T07:30:34.000Z</time>
      </trkpt>
      <trkpt lat="47.68573" lon="6.13116">
        <ele>281.79998779297</ele>
        <time>2012-08-11T07:30:41.000Z</time>
      </trkpt>
      <trkpt lat="47.68574" lon="6.13117">
        <ele>282.20001220703</ele>
        <time>2012-08-11T07:30:42.000Z</time>
      </trkpt>
      <trkpt lat="47.68575" lon="6.13119">
        <ele>282.60000610352</ele>
        <time>2012-08-11T07:30:43.000Z</time>
      </trkpt>
      <trkpt lat="47.68576" lon="6.13121">
        <ele>283.20001220703</ele>
        <time>2012-08-11T07:30:44.000Z</time>
      </trkpt>
      <trkpt lat="47.68577" lon="6.13123">
        <ele>283.60000610352</ele>
        <time>2012-08-11T07:30:45.000Z</time>
      </trkpt>
      <trkpt lat="47.68581" lon="6.13128">
        <ele>283.60000610352</ele>
        <time>2012-08-11T07:30:48.000Z</time>
      </trkpt>
      <trkpt lat="47.68592" lon="6.13143">
        <ele>283.60000610352</ele>
        <time>2012-08-11T07:30:56.000Z</time>
      </trkpt>
      <trkpt lat="47.68596" lon="6.13148">
        <ele>284</ele>
        <time>2012-08-11T07:30:59.000Z</time>
      </trkpt>
      <trkpt lat="47.68598" lon="6.1315">
        <ele>284.39999389648</ele>
        <time>2012-08-11T07:31:00.000Z</time>
      </trkpt>
      <trkpt lat="47.68599" lon="6.13151">
        <ele>284.79998779297</ele>
        <time>2012-08-11T07:31:01.000Z</time>
      </trkpt>
      <trkpt lat="47.68601" lon="6.13153">
        <ele>285.20001220703</ele>
        <time>2012-08-11T07:31:02.000Z</time>
      </trkpt>
      <trkpt lat="47.68602" lon="6.13155">
        <ele>285.60000610352</ele>
        <time>2012-08-11T07:31:03.000Z</time>
      </trkpt>
      <trkpt lat="47.68614" lon="6.1317">
        <ele>285.60000610352</ele>
        <time>2012-08-11T07:31:12.000Z</time>
      </trkpt>
      <trkpt lat="47.68626" lon="6.13184">
        <ele>285.60000610352</ele>
        <time>2012-08-11T07:31:21.000Z</time>
      </trkpt>
      <trkpt lat="47.68633" lon="6.13194">
        <ele>286</ele>
        <time>2012-08-11T07:31:26.000Z</time>
      </trkpt>
      <trkpt lat="47.68635" lon="6.13196">
        <ele>286.39999389648</ele>
        <time>2012-08-11T07:31:28.000Z</time>
      </trkpt>
      <trkpt lat="47.68636" lon="6.13198">
        <ele>286.79998779297</ele>
        <time>2012-08-11T07:31:29.000Z</time>
      </trkpt>
      <trkpt lat="47.68638" lon="6.13199">
        <ele>287.20001220703</ele>
        <time>2012-08-11T07:31:30.000Z</time>
      </trkpt>
      <trkpt lat="47.6864" lon="6.13201">
        <ele>287.60000610352</ele>
        <time>2012-08-11T07:31:31.000Z</time>
      </trkpt>
      <trkpt lat="47.68652" lon="6.13216">
        <ele>287.60000610352</ele>
        <time>2012-08-11T07:31:39.000Z</time>
      </trkpt>
      <trkpt lat="47.68665" lon="6.1323">
        <ele>287.60000610352</ele>
        <time>2012-08-11T07:31:47.000Z</time>
      </trkpt>
      <trkpt lat="47.68676" lon="6.13244">
        <ele>287.60000610352</ele>
        <time>2012-08-11T07:31:55.000Z</time>
      </trkpt>
      <trkpt lat="47.6868" lon="6.13248">
        <ele>288</ele>
        <time>2012-08-11T07:31:58.000Z</time>
      </trkpt>
      <trkpt lat="47.68681" lon="6.1325">
        <ele>288.39999389648</ele>
        <time>2012-08-11T07:31:59.000Z</time>
      </trkpt>
      <trkpt lat="47.68682" lon="6.13251">
        <ele>288.79998779297</ele>
        <time>2012-08-11T07:32:00.000Z</time>
      </trkpt>
      <trkpt lat="47.68684" lon="6.13253">
        <ele>289.60000610352</ele>
        <time>2012-08-11T07:32:01.000Z</time>
      </trkpt>
      <trkpt lat="47.68689" lon="6.1326">
        <ele>289.60000610352</ele>
        <time>2012-08-11T07:32:05.000Z</time>
      </trkpt>
      <trkpt lat="47.68689" lon="6.13262">
        <ele>289.60000610352</ele>
        <time>2012-08-11T07:32:06.000Z</time>
      </trkpt>
      <trkpt lat="47.68686" lon="6.13269">
        <ele>289.60000610352</ele>
        <time>2012-08-11T07:32:09.000Z</time>
      </trkpt>
      <trkpt lat="47.68682" lon="6.13275">
        <ele>290</ele>
        <time>2012-08-11T07:32:11.000Z</time>
      </trkpt>
      <trkpt lat="47.68681" lon="6.13278">
        <ele>290.60000610352</ele>
        <time>2012-08-11T07:32:12.000Z</time>
      </trkpt>
      <trkpt lat="47.68679" lon="6.13282">
        <ele>291</ele>
        <time>2012-08-11T07:32:13.000Z</time>
      </trkpt>
      <trkpt lat="47.68677" lon="6.13285">
        <ele>291.39999389648</ele>
        <time>2012-08-11T07:32:14.000Z</time>
      </trkpt>
      <trkpt lat="47.68675" lon="6.13289">
        <ele>291.79998779297</ele>
        <time>2012-08-11T07:32:15.000Z</time>
      </trkpt>
      <trkpt lat="47.68673" lon="6.13292">
        <ele>291.79998779297</ele>
        <time>2012-08-11T07:32:16.000Z</time>
      </trkpt>
      <trkpt lat="47.68653" lon="6.13323">
        <ele>291.79998779297</ele>
        <time>2012-08-11T07:32:24.000Z</time>
      </trkpt>
      <trkpt lat="47.68635" lon="6.1335">
        <ele>291.79998779297</ele>
        <time>2012-08-11T07:32:31.000Z</time>
      </trkpt>
      <trkpt lat="47.68613" lon="6.13385">
        <ele>291.79998779297</ele>
        <time>2012-08-11T07:32:40.000Z</time>
      </trkpt>
      <trkpt lat="47.68593" lon="6.1342">
        <ele>291.79998779297</ele>
        <time>2012-08-11T07:32:48.000Z</time>
      </trkpt>
      <trkpt lat="47.6857" lon="6.13462">
        <ele>291.79998779297</ele>
        <time>2012-08-11T07:32:57.000Z</time>
      </trkpt>
      <trkpt lat="47.68546" lon="6.13503">
        <ele>291.79998779297</ele>
        <time>2012-08-11T07:33:05.000Z</time>
      </trkpt>
      <trkpt lat="47.68538" lon="6.13515">
        <ele>291.39999389648</ele>
        <time>2012-08-11T07:33:07.000Z</time>
      </trkpt>
      <trkpt lat="47.68534" lon="6.13522">
        <ele>291</ele>
        <time>2012-08-11T07:33:08.000Z</time>
      </trkpt>
      <trkpt lat="47.6853" lon="6.13529">
        <ele>290.39999389648</ele>
        <time>2012-08-11T07:33:09.000Z</time>
      </trkpt>
      <trkpt lat="47.68525" lon="6.13536">
        <ele>290</ele>
        <time>2012-08-11T07:33:10.000Z</time>
      </trkpt>
      <trkpt lat="47.6852" lon="6.13543">
        <ele>289.60000610352</ele>
        <time>2012-08-11T07:33:11.000Z</time>
      </trkpt>
      <trkpt lat="47.68504" lon="6.13572">
        <ele>289.60000610352</ele>
        <time>2012-08-11T07:33:15.000Z</time>
      </trkpt>
      <trkpt lat="47.68494" lon="6.13592">
        <ele>289.60000610352</ele>
        <time>2012-08-11T07:33:18.000Z</time>
      </trkpt>
      <trkpt lat="47.68488" lon="6.13604">
        <ele>289.60000610352</ele>
        <time>2012-08-11T07:33:20.000Z</time>
      </trkpt>
      <trkpt lat="47.68484" lon="6.1361">
        <ele>289.60000610352</ele>
        <time>2012-08-11T07:33:21.000Z</time>
      </trkpt>
      <trkpt lat="47.68466" lon="6.13644">
        <ele>289.60000610352</ele>
        <time>2012-08-11T07:33:28.000Z</time>
      </trkpt>
      <trkpt lat="47.68443" lon="6.13684">
        <ele>289.60000610352</ele>
        <time>2012-08-11T07:33:36.000Z</time>
      </trkpt>
      <trkpt lat="47.68413" lon="6.13739">
        <ele>289.60000610352</ele>
        <time>2012-08-11T07:33:46.000Z</time>
      </trkpt>
      <trkpt lat="47.68391" lon="6.13783">
        <ele>289.20001220703</ele>
        <time>2012-08-11T07:33:54.000Z</time>
      </trkpt>
      <trkpt lat="47.68389" lon="6.13789">
        <ele>288.79998779297</ele>
        <time>2012-08-11T07:33:55.000Z</time>
      </trkpt>
      <trkpt lat="47.68387" lon="6.13795">
        <ele>288.39999389648</ele>
        <time>2012-08-11T07:33:56.000Z</time>
      </trkpt>
      <trkpt lat="47.68385" lon="6.138">
        <ele>288</ele>
        <time>2012-08-11T07:33:57.000Z</time>
      </trkpt>
      <trkpt lat="47.68383" lon="6.13805">
        <ele>287.60000610352</ele>
        <time>2012-08-11T07:33:58.000Z</time>
      </trkpt>
      <trkpt lat="47.68378" lon="6.13822">
        <ele>287.60000610352</ele>
        <time>2012-08-11T07:34:01.000Z</time>
      </trkpt>
      <trkpt lat="47.68359" lon="6.1386">
        <ele>287.60000610352</ele>
        <time>2012-08-11T07:34:09.000Z</time>
      </trkpt>
      <trkpt lat="47.68337" lon="6.13894">
        <ele>287.60000610352</ele>
        <time>2012-08-11T07:34:16.000Z</time>
      </trkpt>
      <trkpt lat="47.68306" lon="6.13936">
        <ele>287.60000610352</ele>
        <time>2012-08-11T07:34:24.000Z</time>
      </trkpt>
      <trkpt lat="47.68286" lon="6.13967">
        <ele>287</ele>
        <time>2012-08-11T07:34:29.000Z</time>
      </trkpt>
      <trkpt lat="47.68281" lon="6.13974">
        <ele>286.20001220703</ele>
        <time>2012-08-11T07:34:30.000Z</time>
      </trkpt>
      <trkpt lat="47.68278" lon="6.1398">
        <ele>285.79998779297</ele>
        <time>2012-08-11T07:34:31.000Z</time>
      </trkpt>
      <trkpt lat="47.68274" lon="6.13987">
        <ele>285.39999389648</ele>
        <time>2012-08-11T07:34:32.000Z</time>
      </trkpt>
      <trkpt lat="47.68251" lon="6.14037">
        <ele>285</ele>
        <time>2012-08-11T07:34:39.000Z</time>
      </trkpt>
      <trkpt lat="47.68247" lon="6.14044">
        <ele>284.60000610352</ele>
        <time>2012-08-11T07:34:40.000Z</time>
      </trkpt>
      <trkpt lat="47.68244" lon="6.14051">
        <ele>284.20001220703</ele>
        <time>2012-08-11T07:34:41.000Z</time>
      </trkpt>
      <trkpt lat="47.6824" lon="6.14057">
        <ele>283.79998779297</ele>
        <time>2012-08-11T07:34:42.000Z</time>
      </trkpt>
      <trkpt lat="47.68237" lon="6.14064">
        <ele>283.20001220703</ele>
        <time>2012-08-11T07:34:43.000Z</time>
      </trkpt>
      <trkpt lat="47.68227" lon="6.14084">
        <ele>283.20001220703</ele>
        <time>2012-08-11T07:34:46.000Z</time>
      </trkpt>
      <trkpt lat="47.68223" lon="6.1409">
        <ele>283.20001220703</ele>
        <time>2012-08-11T07:34:47.000Z</time>
      </trkpt>
      <trkpt lat="47.68192" lon="6.14134">
        <ele>283.20001220703</ele>
        <time>2012-08-11T07:34:54.000Z</time>
      </trkpt>
      <trkpt lat="47.68183" lon="6.14147">
        <ele>282.79998779297</ele>
        <time>2012-08-11T07:34:56.000Z</time>
      </trkpt>
      <trkpt lat="47.68178" lon="6.14154">
        <ele>282.39999389648</ele>
        <time>2012-08-11T07:34:57.000Z</time>
      </trkpt>
      <trkpt lat="47.68173" lon="6.14161">
        <ele>282</ele>
        <time>2012-08-11T07:34:58.000Z</time>
      </trkpt>
      <trkpt lat="47.68168" lon="6.14167">
        <ele>281.60000610352</ele>
        <time>2012-08-11T07:34:59.000Z</time>
      </trkpt>
      <trkpt lat="47.68163" lon="6.14174">
        <ele>281</ele>
        <time>2012-08-11T07:35:00.000Z</time>
      </trkpt>
      <trkpt lat="47.68153" lon="6.14186">
        <ele>281</ele>
        <time>2012-08-11T07:35:02.000Z</time>
      </trkpt>
      <trkpt lat="47.68143" lon="6.14196">
        <ele>280.60000610352</ele>
        <time>2012-08-11T07:35:04.000Z</time>
      </trkpt>
      <trkpt lat="47.68139" lon="6.14201">
        <ele>280.20001220703</ele>
        <time>2012-08-11T07:35:05.000Z</time>
      </trkpt>
      <trkpt lat="47.68136" lon="6.14205">
        <ele>279.60000610352</ele>
        <time>2012-08-11T07:35:06.000Z</time>
      </trkpt>
      <trkpt lat="47.68132" lon="6.14209">
        <ele>279.20001220703</ele>
        <time>2012-08-11T07:35:07.000Z</time>
      </trkpt>
      <trkpt lat="47.6813" lon="6.14215">
        <ele>278.79998779297</ele>
        <time>2012-08-11T07:35:08.000Z</time>
      </trkpt>
      <trkpt lat="47.6813" lon="6.14221">
        <ele>278.20001220703</ele>
        <time>2012-08-11T07:35:09.000Z</time>
      </trkpt>
      <trkpt lat="47.6813" lon="6.14227">
        <ele>277.79998779297</ele>
        <time>2012-08-11T07:35:10.000Z</time>
      </trkpt>
      <trkpt lat="47.68132" lon="6.14232">
        <ele>277.39999389648</ele>
        <time>2012-08-11T07:35:11.000Z</time>
      </trkpt>
      <trkpt lat="47.68134" lon="6.14236">
        <ele>277</ele>
        <time>2012-08-11T07:35:12.000Z</time>
      </trkpt>
      <trkpt lat="47.68136" lon="6.14239">
        <ele>276.60000610352</ele>
        <time>2012-08-11T07:35:13.000Z</time>
      </trkpt>
      <trkpt lat="47.68137" lon="6.14242">
        <ele>276.60000610352</ele>
        <time>2012-08-11T07:35:14.000Z</time>
      </trkpt>
      <trkpt lat="47.68148" lon="6.14263">
        <ele>276.60000610352</ele>
        <time>2012-08-11T07:35:21.000Z</time>
      </trkpt>
      <trkpt lat="47.68157" lon="6.14279">
        <ele>276.60000610352</ele>
        <time>2012-08-11T07:35:27.000Z</time>
      </trkpt>
      <trkpt lat="47.68169" lon="6.14305">
        <ele>276.60000610352</ele>
        <time>2012-08-11T07:35:34.000Z</time>
      </trkpt>
      <trkpt lat="47.68184" lon="6.14335">
        <ele>276.60000610352</ele>
        <time>2012-08-11T07:35:41.000Z</time>
      </trkpt>
      <trkpt lat="47.68205" lon="6.14378">
        <ele>276.60000610352</ele>
        <time>2012-08-11T07:35:50.000Z</time>
      </trkpt>
      <trkpt lat="47.68216" lon="6.14402">
        <ele>276.20001220703</ele>
        <time>2012-08-11T07:35:55.000Z</time>
      </trkpt>
      <trkpt lat="47.68218" lon="6.14407">
        <ele>275.79998779297</ele>
        <time>2012-08-11T07:35:56.000Z</time>
      </trkpt>
      <trkpt lat="47.68221" lon="6.14411">
        <ele>275.39999389648</ele>
        <time>2012-08-11T07:35:57.000Z</time>
      </trkpt>
      <trkpt lat="47.68223" lon="6.14416">
        <ele>275</ele>
        <time>2012-08-11T07:35:58.000Z</time>
      </trkpt>
      <trkpt lat="47.68225" lon="6.14421">
        <ele>274.60000610352</ele>
        <time>2012-08-11T07:35:59.000Z</time>
      </trkpt>
      <trkpt lat="47.68228" lon="6.14425">
        <ele>274.60000610352</ele>
        <time>2012-08-11T07:36:00.000Z</time>
      </trkpt>
      <trkpt lat="47.68232" lon="6.14435">
        <ele>274.60000610352</ele>
        <time>2012-08-11T07:36:02.000Z</time>
      </trkpt>
      <trkpt lat="47.68244" lon="6.1446">
        <ele>274.60000610352</ele>
        <time>2012-08-11T07:36:07.000Z</time>
      </trkpt>
      <trkpt lat="47.68269" lon="6.14513">
        <ele>274.60000610352</ele>
        <time>2012-08-11T07:36:18.000Z</time>
      </trkpt>
      <trkpt lat="47.68291" lon="6.14559">
        <ele>274.60000610352</ele>
        <time>2012-08-11T07:36:27.000Z</time>
      </trkpt>
      <trkpt lat="47.68302" lon="6.14582">
        <ele>274.20001220703</ele>
        <time>2012-08-11T07:36:32.000Z</time>
      </trkpt>
      <trkpt lat="47.68305" lon="6.14587">
        <ele>273.39999389648</ele>
        <time>2012-08-11T07:36:33.000Z</time>
      </trkpt>
      <trkpt lat="47.68307" lon="6.14592">
        <ele>273</ele>
        <time>2012-08-11T07:36:34.000Z</time>
      </trkpt>
      <trkpt lat="47.6831" lon="6.14597">
        <ele>272.60000610352</ele>
        <time>2012-08-11T07:36:35.000Z</time>
      </trkpt>
      <trkpt lat="47.68314" lon="6.14607">
        <ele>272.60000610352</ele>
        <time>2012-08-11T07:36:37.000Z</time>
      </trkpt>
      <trkpt lat="47.68336" lon="6.14652">
        <ele>272.60000610352</ele>
        <time>2012-08-11T07:36:46.000Z</time>
      </trkpt>
      <trkpt lat="47.68352" lon="6.14697">
        <ele>272.20001220703</ele>
        <time>2012-08-11T07:36:54.000Z</time>
      </trkpt>
      <trkpt lat="47.68354" lon="6.14703">
        <ele>271.79998779297</ele>
        <time>2012-08-11T07:36:55.000Z</time>
      </trkpt>
      <trkpt lat="47.68356" lon="6.14709">
        <ele>271.39999389648</ele>
        <time>2012-08-11T07:36:56.000Z</time>
      </trkpt>
      <trkpt lat="47.68358" lon="6.14715">
        <ele>270.79998779297</ele>
        <time>2012-08-11T07:36:57.000Z</time>
      </trkpt>
      <trkpt lat="47.6836" lon="6.14721">
        <ele>270.39999389648</ele>
        <time>2012-08-11T07:36:58.000Z</time>
      </trkpt>
      <trkpt lat="47.68366" lon="6.14753">
        <ele>270.39999389648</ele>
        <time>2012-08-11T07:37:03.000Z</time>
      </trkpt>
      <trkpt lat="47.68367" lon="6.14759">
        <ele>270.39999389648</ele>
        <time>2012-08-11T07:37:04.000Z</time>
      </trkpt>
      <trkpt lat="47.68367" lon="6.14797">
        <ele>270.39999389648</ele>
        <time>2012-08-11T07:37:10.000Z</time>
      </trkpt>
      <trkpt lat="47.68367" lon="6.14817">
        <ele>270.39999389648</ele>
        <time>2012-08-11T07:37:13.000Z</time>
      </trkpt>
      <trkpt lat="47.68367" lon="6.14837">
        <ele>270.39999389648</ele>
        <time>2012-08-11T07:37:16.000Z</time>
      </trkpt>
      <trkpt lat="47.68365" lon="6.14887">
        <ele>270.39999389648</ele>
        <time>2012-08-11T07:37:23.000Z</time>
      </trkpt>
      <trkpt lat="47.68365" lon="6.14935">
        <ele>270</ele>
        <time>2012-08-11T07:37:29.000Z</time>
      </trkpt>
      <trkpt lat="47.68365" lon="6.14943">
        <ele>269.60000610352</ele>
        <time>2012-08-11T07:37:30.000Z</time>
      </trkpt>
      <trkpt lat="47.68365" lon="6.1495">
        <ele>269.20001220703</ele>
        <time>2012-08-11T07:37:31.000Z</time>
      </trkpt>
      <trkpt lat="47.68364" lon="6.14958">
        <ele>268.79998779297</ele>
        <time>2012-08-11T07:37:32.000Z</time>
      </trkpt>
      <trkpt lat="47.68364" lon="6.14966">
        <ele>268.39999389648</ele>
        <time>2012-08-11T07:37:33.000Z</time>
      </trkpt>
      <trkpt lat="47.68365" lon="6.15003">
        <ele>268.39999389648</ele>
        <time>2012-08-11T07:37:38.000Z</time>
      </trkpt>
      <trkpt lat="47.68364" lon="6.15046">
        <ele>268.39999389648</ele>
        <time>2012-08-11T07:37:44.000Z</time>
      </trkpt>
      <trkpt lat="47.68364" lon="6.15053">
        <ele>268.39999389648</ele>
        <time>2012-08-11T07:37:45.000Z</time>
      </trkpt>
      <trkpt lat="47.68366" lon="6.15074">
        <ele>268.39999389648</ele>
        <time>2012-08-11T07:37:48.000Z</time>
      </trkpt>
      <trkpt lat="47.68365" lon="6.15081">
        <ele>268.39999389648</ele>
        <time>2012-08-11T07:37:49.000Z</time>
      </trkpt>
      <trkpt lat="47.68365" lon="6.15088">
        <ele>268.39999389648</ele>
        <time>2012-08-11T07:37:50.000Z</time>
      </trkpt>
      <trkpt lat="47.68364" lon="6.15114">
        <ele>268.39999389648</ele>
        <time>2012-08-11T07:37:54.000Z</time>
      </trkpt>
      <trkpt lat="47.68364" lon="6.15158">
        <ele>268.39999389648</ele>
        <time>2012-08-11T07:38:01.000Z</time>
      </trkpt>
      <trkpt lat="47.68362" lon="6.15165">
        <ele>268.39999389648</ele>
        <time>2012-08-11T07:38:02.000Z</time>
      </trkpt>
      <trkpt lat="47.68353" lon="6.1518">
        <ele>268.39999389648</ele>
        <time>2012-08-11T07:38:05.000Z</time>
      </trkpt>
      <trkpt lat="47.68348" lon="6.15183">
        <ele>268</ele>
        <time>2012-08-11T07:38:06.000Z</time>
      </trkpt>
      <trkpt lat="47.68344" lon="6.15186">
        <ele>267.39999389648</ele>
        <time>2012-08-11T07:38:07.000Z</time>
      </trkpt>
      <trkpt lat="47.6834" lon="6.15188">
        <ele>267</ele>
        <time>2012-08-11T07:38:08.000Z</time>
      </trkpt>
      <trkpt lat="47.68336" lon="6.15191">
        <ele>266.60000610352</ele>
        <time>2012-08-11T07:38:09.000Z</time>
      </trkpt>
      <trkpt lat="47.68332" lon="6.15193">
        <ele>266.20001220703</ele>
        <time>2012-08-11T07:38:10.000Z</time>
      </trkpt>
      <trkpt lat="47.68327" lon="6.15196">
        <ele>266.20001220703</ele>
        <time>2012-08-11T07:38:11.000Z</time>
      </trkpt>
      <trkpt lat="47.68289" lon="6.15217">
        <ele>265.79998779297</ele>
        <time>2012-08-11T07:38:19.000Z</time>
      </trkpt>
      <trkpt lat="47.68284" lon="6.15219">
        <ele>265.20001220703</ele>
        <time>2012-08-11T07:38:20.000Z</time>
      </trkpt>
      <trkpt lat="47.68279" lon="6.15222">
        <ele>264.79998779297</ele>
        <time>2012-08-11T07:38:21.000Z</time>
      </trkpt>
      <trkpt lat="47.68274" lon="6.15225">
        <ele>264.39999389648</ele>
        <time>2012-08-11T07:38:22.000Z</time>
      </trkpt>
      <trkpt lat="47.68268" lon="6.15228">
        <ele>263.79998779297</ele>
        <time>2012-08-11T07:38:23.000Z</time>
      </trkpt>
      <trkpt lat="47.68263" lon="6.15231">
        <ele>263.79998779297</ele>
        <time>2012-08-11T07:38:24.000Z</time>
      </trkpt>
      <trkpt lat="47.68257" lon="6.15234">
        <ele>263.79998779297</ele>
        <time>2012-08-11T07:38:25.000Z</time>
      </trkpt>
      <trkpt lat="47.68237" lon="6.15246">
        <ele>263.39999389648</ele>
        <time>2012-08-11T07:38:29.000Z</time>
      </trkpt>
      <trkpt lat="47.68233" lon="6.15248">
        <ele>263</ele>
        <time>2012-08-11T07:38:30.000Z</time>
      </trkpt>
      <trkpt lat="47.6823" lon="6.1525">
        <ele>262.39999389648</ele>
        <time>2012-08-11T07:38:31.000Z</time>
      </trkpt>
      <trkpt lat="47.68228" lon="6.15251">
        <ele>262</ele>
        <time>2012-08-11T07:38:32.000Z</time>
      </trkpt>
      <trkpt lat="47.68225" lon="6.15252">
        <ele>261.60000610352</ele>
        <time>2012-08-11T07:38:33.000Z</time>
      </trkpt>
      <trkpt lat="47.68221" lon="6.15254">
        <ele>261.20001220703</ele>
        <time>2012-08-11T07:38:35.000Z</time>
      </trkpt>
      <trkpt lat="47.68219" lon="6.15255">
        <ele>260.60000610352</ele>
        <time>2012-08-11T07:38:36.000Z</time>
      </trkpt>
      <trkpt lat="47.68217" lon="6.15257">
        <ele>259.60000610352</ele>
        <time>2012-08-11T07:38:37.000Z</time>
      </trkpt>
      <trkpt lat="47.68216" lon="6.15259">
        <ele>259.20001220703</ele>
        <time>2012-08-11T07:38:38.000Z</time>
      </trkpt>
      <trkpt lat="47.68214" lon="6.15266">
        <ele>259.20001220703</ele>
        <time>2012-08-11T07:38:40.000Z</time>
      </trkpt>
      <trkpt lat="47.68207" lon="6.15304">
        <ele>259.20001220703</ele>
        <time>2012-08-11T07:38:47.000Z</time>
      </trkpt>
      <trkpt lat="47.68204" lon="6.15325">
        <ele>258.79998779297</ele>
        <time>2012-08-11T07:38:50.000Z</time>
      </trkpt>
      <trkpt lat="47.68202" lon="6.15333">
        <ele>258.39999389648</ele>
        <time>2012-08-11T07:38:51.000Z</time>
      </trkpt>
      <trkpt lat="47.68201" lon="6.15341">
        <ele>258</ele>
        <time>2012-08-11T07:38:52.000Z</time>
      </trkpt>
      <trkpt lat="47.68199" lon="6.15349">
        <ele>257.60000610352</ele>
        <time>2012-08-11T07:38:53.000Z</time>
      </trkpt>
      <trkpt lat="47.68198" lon="6.15358">
        <ele>257.20001220703</ele>
        <time>2012-08-11T07:38:54.000Z</time>
      </trkpt>
      <trkpt lat="47.68194" lon="6.15378">
        <ele>256.60000610352</ele>
        <time>2012-08-11T07:38:56.000Z</time>
      </trkpt>
      <trkpt lat="47.68192" lon="6.15388">
        <ele>256.20001220703</ele>
        <time>2012-08-11T07:38:57.000Z</time>
      </trkpt>
      <trkpt lat="47.6819" lon="6.154">
        <ele>255.80000305176</ele>
        <time>2012-08-11T07:38:58.000Z</time>
      </trkpt>
      <trkpt lat="47.68188" lon="6.15412">
        <ele>255.39999389648</ele>
        <time>2012-08-11T07:38:59.000Z</time>
      </trkpt>
      <trkpt lat="47.68187" lon="6.15424">
        <ele>254.80000305176</ele>
        <time>2012-08-11T07:39:00.000Z</time>
      </trkpt>
      <trkpt lat="47.68186" lon="6.15437">
        <ele>253.80000305176</ele>
        <time>2012-08-11T07:39:01.000Z</time>
      </trkpt>
      <trkpt lat="47.68185" lon="6.15451">
        <ele>253</ele>
        <time>2012-08-11T07:39:02.000Z</time>
      </trkpt>
      <trkpt lat="47.68184" lon="6.15465">
        <ele>252.39999389648</ele>
        <time>2012-08-11T07:39:03.000Z</time>
      </trkpt>
      <trkpt lat="47.68183" lon="6.1548">
        <ele>251.60000610352</ele>
        <time>2012-08-11T07:39:04.000Z</time>
      </trkpt>
      <trkpt lat="47.68183" lon="6.15496">
        <ele>251</ele>
        <time>2012-08-11T07:39:05.000Z</time>
      </trkpt>
      <trkpt lat="47.68182" lon="6.15511">
        <ele>250.19999694824</ele>
        <time>2012-08-11T07:39:06.000Z</time>
      </trkpt>
      <trkpt lat="47.68182" lon="6.15528">
        <ele>249.60000610352</ele>
        <time>2012-08-11T07:39:07.000Z</time>
      </trkpt>
      <trkpt lat="47.68181" lon="6.15544">
        <ele>248.60000610352</ele>
        <time>2012-08-11T07:39:08.000Z</time>
      </trkpt>
      <trkpt lat="47.68181" lon="6.15561">
        <ele>247.80000305176</ele>
        <time>2012-08-11T07:39:09.000Z</time>
      </trkpt>
      <trkpt lat="47.6818" lon="6.15577">
        <ele>246.80000305176</ele>
        <time>2012-08-11T07:39:10.000Z</time>
      </trkpt>
      <trkpt lat="47.6818" lon="6.15595">
        <ele>245.80000305176</ele>
        <time>2012-08-11T07:39:11.000Z</time>
      </trkpt>
      <trkpt lat="47.68179" lon="6.15611">
        <ele>244.80000305176</ele>
        <time>2012-08-11T07:39:12.000Z</time>
      </trkpt>
      <trkpt lat="47.68178" lon="6.15626">
        <ele>243.80000305176</ele>
        <time>2012-08-11T07:39:13.000Z</time>
      </trkpt>
      <trkpt lat="47.68178" lon="6.15641">
        <ele>242.80000305176</ele>
        <time>2012-08-11T07:39:14.000Z</time>
      </trkpt>
      <trkpt lat="47.68177" lon="6.15655">
        <ele>242</ele>
        <time>2012-08-11T07:39:15.000Z</time>
      </trkpt>
      <trkpt lat="47.68176" lon="6.15669">
        <ele>241</ele>
        <time>2012-08-11T07:39:16.000Z</time>
      </trkpt>
      <trkpt lat="47.68176" lon="6.15682">
        <ele>240.19999694824</ele>
        <time>2012-08-11T07:39:17.000Z</time>
      </trkpt>
      <trkpt lat="47.68175" lon="6.15707">
        <ele>240.19999694824</ele>
        <time>2012-08-11T07:39:19.000Z</time>
      </trkpt>
      <trkpt lat="47.68176" lon="6.1577">
        <ele>240.19999694824</ele>
        <time>2012-08-11T07:39:25.000Z</time>
      </trkpt>
      <trkpt lat="47.68178" lon="6.15809">
        <ele>240.19999694824</ele>
        <time>2012-08-11T07:39:30.000Z</time>
      </trkpt>
      <trkpt lat="47.68178" lon="6.15816">
        <ele>240.19999694824</ele>
        <time>2012-08-11T07:39:31.000Z</time>
      </trkpt>
      <trkpt lat="47.68181" lon="6.15835">
        <ele>240.19999694824</ele>
        <time>2012-08-11T07:39:34.000Z</time>
      </trkpt>
      <trkpt lat="47.68184" lon="6.15847">
        <ele>240.19999694824</ele>
        <time>2012-08-11T07:39:36.000Z</time>
      </trkpt>
      <trkpt lat="47.68194" lon="6.15882">
        <ele>240.19999694824</ele>
        <time>2012-08-11T07:39:42.000Z</time>
      </trkpt>
      <trkpt lat="47.68206" lon="6.15934">
        <ele>240.19999694824</ele>
        <time>2012-08-11T07:39:50.000Z</time>
      </trkpt>
      <trkpt lat="47.68215" lon="6.1598">
        <ele>239.80000305176</ele>
        <time>2012-08-11T07:39:57.000Z</time>
      </trkpt>
      <trkpt lat="47.68216" lon="6.15988">
        <ele>239.19999694824</ele>
        <time>2012-08-11T07:39:58.000Z</time>
      </trkpt>
      <trkpt lat="47.68218" lon="6.15996">
        <ele>238.80000305176</ele>
        <time>2012-08-11T07:39:59.000Z</time>
      </trkpt>
      <trkpt lat="47.68219" lon="6.16004">
        <ele>238.39999389648</ele>
        <time>2012-08-11T07:40:00.000Z</time>
      </trkpt>
      <trkpt lat="47.68221" lon="6.16012">
        <ele>238</ele>
        <time>2012-08-11T07:40:01.000Z</time>
      </trkpt>
      <trkpt lat="47.68225" lon="6.16036">
        <ele>238</ele>
        <time>2012-08-11T07:40:04.000Z</time>
      </trkpt>
      <trkpt lat="47.68227" lon="6.16059">
        <ele>238</ele>
        <time>2012-08-11T07:40:07.000Z</time>
      </trkpt>
      <trkpt lat="47.68227" lon="6.16081">
        <ele>237.60000610352</ele>
        <time>2012-08-11T07:40:10.000Z</time>
      </trkpt>
      <trkpt lat="47.68226" lon="6.16088">
        <ele>237.19999694824</ele>
        <time>2012-08-11T07:40:11.000Z</time>
      </trkpt>
      <trkpt lat="47.68226" lon="6.16095">
        <ele>236.60000610352</ele>
        <time>2012-08-11T07:40:12.000Z</time>
      </trkpt>
      <trkpt lat="47.68225" lon="6.16102">
        <ele>236.19999694824</ele>
        <time>2012-08-11T07:40:13.000Z</time>
      </trkpt>
      <trkpt lat="47.68223" lon="6.16109">
        <ele>235.80000305176</ele>
        <time>2012-08-11T07:40:14.000Z</time>
      </trkpt>
      <trkpt lat="47.68222" lon="6.16117">
        <ele>235.80000305176</ele>
        <time>2012-08-11T07:40:15.000Z</time>
      </trkpt>
      <trkpt lat="47.68221" lon="6.16124">
        <ele>235.80000305176</ele>
        <time>2012-08-11T07:40:16.000Z</time>
      </trkpt>
      <trkpt lat="47.68214" lon="6.16174">
        <ele>235.80000305176</ele>
        <time>2012-08-11T07:40:23.000Z</time>
      </trkpt>
      <trkpt lat="47.68212" lon="6.16187">
        <ele>235.80000305176</ele>
        <time>2012-08-11T07:40:25.000Z</time>
      </trkpt>
      <trkpt lat="47.6821" lon="6.16206">
        <ele>235.80000305176</ele>
        <time>2012-08-11T07:40:28.000Z</time>
      </trkpt>
      <trkpt lat="47.68208" lon="6.16213">
        <ele>235.39999389648</ele>
        <time>2012-08-11T07:40:29.000Z</time>
      </trkpt>
      <trkpt lat="47.68206" lon="6.16219">
        <ele>235</ele>
        <time>2012-08-11T07:40:30.000Z</time>
      </trkpt>
      <trkpt lat="47.68204" lon="6.16224">
        <ele>234.60000610352</ele>
        <time>2012-08-11T07:40:31.000Z</time>
      </trkpt>
      <trkpt lat="47.68201" lon="6.16228">
        <ele>234.19999694824</ele>
        <time>2012-08-11T07:40:32.000Z</time>
      </trkpt>
      <trkpt lat="47.68198" lon="6.16232">
        <ele>233.80000305176</ele>
        <time>2012-08-11T07:40:33.000Z</time>
      </trkpt>
      <trkpt lat="47.68194" lon="6.16246">
        <ele>233.80000305176</ele>
        <time>2012-08-11T07:40:36.000Z</time>
      </trkpt>
      <trkpt lat="47.68195" lon="6.1625">
        <ele>233.80000305176</ele>
        <time>2012-08-11T07:40:37.000Z</time>
      </trkpt>
      <trkpt lat="47.68203" lon="6.16248">
        <ele>233.80000305176</ele>
        <time>2012-08-11T07:40:40.000Z</time>
      </trkpt>
      <trkpt lat="47.68199" lon="6.16239">
        <ele>233.80000305176</ele>
        <time>2012-08-11T07:40:43.000Z</time>
      </trkpt>
      <trkpt lat="47.68194" lon="6.16247">
        <ele>233.80000305176</ele>
        <time>2012-08-11T07:40:46.000Z</time>
      </trkpt>
      <trkpt lat="47.68199" lon="6.1626">
        <ele>233.80000305176</ele>
        <time>2012-08-11T07:40:50.000Z</time>
      </trkpt>
      <trkpt lat="47.68201" lon="6.16262">
        <ele>233.80000305176</ele>
        <time>2012-08-11T07:40:51.000Z</time>
      </trkpt>
      <trkpt lat="47.68215" lon="6.16274">
        <ele>233.80000305176</ele>
        <time>2012-08-11T07:40:56.000Z</time>
      </trkpt>
      <trkpt lat="47.68237" lon="6.16292">
        <ele>233.80000305176</ele>
        <time>2012-08-11T07:41:04.000Z</time>
      </trkpt>
      <trkpt lat="47.68259" lon="6.16311">
        <ele>233.80000305176</ele>
        <time>2012-08-11T07:41:12.000Z</time>
      </trkpt>
      <trkpt lat="47.68279" lon="6.16326">
        <ele>233.80000305176</ele>
        <time>2012-08-11T07:41:19.000Z</time>
      </trkpt>
      <trkpt lat="47.68292" lon="6.16337">
        <ele>233.80000305176</ele>
        <time>2012-08-11T07:41:25.000Z</time>
      </trkpt>
      <trkpt lat="47.68292" lon="6.16337">
        <ele>233.80000305176</ele>
        <time>2012-08-11T07:41:26.000Z</time>
      </trkpt>
      <trkpt lat="47.68292" lon="6.16341">
        <ele>233.80000305176</ele>
        <time>2012-08-11T07:41:36.000Z</time>
      </trkpt>
      <trkpt lat="47.68291" lon="6.16345">
        <ele>233.80000305176</ele>
        <time>2012-08-11T07:41:38.000Z</time>
      </trkpt>
      <trkpt lat="47.68287" lon="6.16357">
        <ele>233.80000305176</ele>
        <time>2012-08-11T07:41:43.000Z</time>
      </trkpt>
      <trkpt lat="47.68287" lon="6.16382">
        <ele>233.80000305176</ele>
        <time>2012-08-11T07:41:50.000Z</time>
      </trkpt>
      <trkpt lat="47.68289" lon="6.164">
        <ele>233.80000305176</ele>
        <time>2012-08-11T07:41:55.000Z</time>
      </trkpt>
      <trkpt lat="47.68297" lon="6.16429">
        <ele>233.80000305176</ele>
        <time>2012-08-11T07:42:02.000Z</time>
      </trkpt>
      <trkpt lat="47.68305" lon="6.16455">
        <ele>233.80000305176</ele>
        <time>2012-08-11T07:42:08.000Z</time>
      </trkpt>
      <trkpt lat="47.68317" lon="6.16485">
        <ele>233.80000305176</ele>
        <time>2012-08-11T07:42:15.000Z</time>
      </trkpt>
      <trkpt lat="47.68328" lon="6.16516">
        <ele>233.80000305176</ele>
        <time>2012-08-11T07:42:22.000Z</time>
      </trkpt>
      <trkpt lat="47.68343" lon="6.16551">
        <ele>233.80000305176</ele>
        <time>2012-08-11T07:42:30.000Z</time>
      </trkpt>
      <trkpt lat="47.68356" lon="6.16586">
        <ele>233.80000305176</ele>
        <time>2012-08-11T07:42:37.000Z</time>
      </trkpt>
      <trkpt lat="47.68365" lon="6.16597">
        <ele>233.80000305176</ele>
        <time>2012-08-11T07:42:41.000Z</time>
      </trkpt>
      <trkpt lat="47.68368" lon="6.16598">
        <ele>233.80000305176</ele>
        <time>2012-08-11T07:42:42.000Z</time>
      </trkpt>
      <trkpt lat="47.68373" lon="6.16596">
        <ele>233.80000305176</ele>
        <time>2012-08-11T07:42:44.000Z</time>
      </trkpt>
      <trkpt lat="47.68385" lon="6.16585">
        <ele>233.80000305176</ele>
        <time>2012-08-11T07:42:50.000Z</time>
      </trkpt>
      <trkpt lat="47.68386" lon="6.16583">
        <ele>234.19999694824</ele>
        <time>2012-08-11T07:42:51.000Z</time>
      </trkpt>
      <trkpt lat="47.68387" lon="6.16581">
        <ele>234.60000610352</ele>
        <time>2012-08-11T07:42:52.000Z</time>
      </trkpt>
      <trkpt lat="47.68389" lon="6.1658">
        <ele>235</ele>
        <time>2012-08-11T07:42:53.000Z</time>
      </trkpt>
      <trkpt lat="47.6839" lon="6.16578">
        <ele>235.39999389648</ele>
        <time>2012-08-11T07:42:54.000Z</time>
      </trkpt>
      <trkpt lat="47.68392" lon="6.16578">
        <ele>235.80000305176</ele>
        <time>2012-08-11T07:42:55.000Z</time>
      </trkpt>
      <trkpt lat="47.68399" lon="6.16574">
        <ele>235.80000305176</ele>
        <time>2012-08-11T07:42:59.000Z</time>
      </trkpt>
      <trkpt lat="47.68404" lon="6.16568">
        <ele>235.80000305176</ele>
        <time>2012-08-11T07:43:02.000Z</time>
      </trkpt>
      <trkpt lat="47.68423" lon="6.16551">
        <ele>235.80000305176</ele>
        <time>2012-08-11T07:43:11.000Z</time>
      </trkpt>
      <trkpt lat="47.68438" lon="6.16534">
        <ele>235.80000305176</ele>
        <time>2012-08-11T07:43:18.000Z</time>
      </trkpt>
      <trkpt lat="47.68452" lon="6.16513">
        <ele>235.80000305176</ele>
        <time>2012-08-11T07:43:25.000Z</time>
      </trkpt>
      <trkpt lat="47.68468" lon="6.16494">
        <ele>235.80000305176</ele>
        <time>2012-08-11T07:43:32.000Z</time>
      </trkpt>
      <trkpt lat="47.6847" lon="6.16492">
        <ele>236.19999694824</ele>
        <time>2012-08-11T07:43:33.000Z</time>
      </trkpt>
      <trkpt lat="47.68473" lon="6.16489">
        <ele>237.19999694824</ele>
        <time>2012-08-11T07:43:34.000Z</time>
      </trkpt>
      <trkpt lat="47.68476" lon="6.16487">
        <ele>237.60000610352</ele>
        <time>2012-08-11T07:43:35.000Z</time>
      </trkpt>
      <trkpt lat="47.68479" lon="6.16486">
        <ele>238</ele>
        <time>2012-08-11T07:43:36.000Z</time>
      </trkpt>
      <trkpt lat="47.68485" lon="6.16486">
        <ele>238</ele>
        <time>2012-08-11T07:43:38.000Z</time>
      </trkpt>
      <trkpt lat="47.68497" lon="6.1649">
        <ele>238</ele>
        <time>2012-08-11T07:43:43.000Z</time>
      </trkpt>
      <trkpt lat="47.68512" lon="6.16505">
        <ele>238</ele>
        <time>2012-08-11T07:43:50.000Z</time>
      </trkpt>
      <trkpt lat="47.68524" lon="6.1652">
        <ele>238.39999389648</ele>
        <time>2012-08-11T07:43:56.000Z</time>
      </trkpt>
      <trkpt lat="47.68527" lon="6.16522">
        <ele>238.80000305176</ele>
        <time>2012-08-11T07:43:57.000Z</time>
      </trkpt>
      <trkpt lat="47.68529" lon="6.16524">
        <ele>239.19999694824</ele>
        <time>2012-08-11T07:43:58.000Z</time>
      </trkpt>
      <trkpt lat="47.68531" lon="6.16527">
        <ele>240</ele>
        <time>2012-08-11T07:43:59.000Z</time>
      </trkpt>
      <trkpt lat="47.68541" lon="6.16537">
        <ele>240</ele>
        <time>2012-08-11T07:44:03.000Z</time>
      </trkpt>
      <trkpt lat="47.68544" lon="6.1654">
        <ele>240</ele>
        <time>2012-08-11T07:44:04.000Z</time>
      </trkpt>
      <trkpt lat="47.6856" lon="6.16558">
        <ele>240</ele>
        <time>2012-08-11T07:44:11.000Z</time>
      </trkpt>
      <trkpt lat="47.68576" lon="6.16572">
        <ele>240</ele>
        <time>2012-08-11T07:44:18.000Z</time>
      </trkpt>
      <trkpt lat="47.68592" lon="6.16585">
        <ele>240</ele>
        <time>2012-08-11T07:44:25.000Z</time>
      </trkpt>
      <trkpt lat="47.68609" lon="6.16602">
        <ele>240</ele>
        <time>2012-08-11T07:44:31.000Z</time>
      </trkpt>
      <trkpt lat="47.68612" lon="6.16605">
        <ele>240.39999389648</ele>
        <time>2012-08-11T07:44:32.000Z</time>
      </trkpt>
      <trkpt lat="47.68615" lon="6.16608">
        <ele>240.80000305176</ele>
        <time>2012-08-11T07:44:33.000Z</time>
      </trkpt>
      <trkpt lat="47.68617" lon="6.16612">
        <ele>241.19999694824</ele>
        <time>2012-08-11T07:44:34.000Z</time>
      </trkpt>
      <trkpt lat="47.6862" lon="6.16615">
        <ele>241.60000610352</ele>
        <time>2012-08-11T07:44:35.000Z</time>
      </trkpt>
      <trkpt lat="47.68623" lon="6.16619">
        <ele>242</ele>
        <time>2012-08-11T07:44:36.000Z</time>
      </trkpt>
      <trkpt lat="47.68626" lon="6.16623">
        <ele>242</ele>
        <time>2012-08-11T07:44:37.000Z</time>
      </trkpt>
      <trkpt lat="47.68649" lon="6.16653">
        <ele>242</ele>
        <time>2012-08-11T07:44:45.000Z</time>
      </trkpt>
      <trkpt lat="47.68667" lon="6.16676">
        <ele>242</ele>
        <time>2012-08-11T07:44:52.000Z</time>
      </trkpt>
      <trkpt lat="47.68681" lon="6.16696">
        <ele>242</ele>
        <time>2012-08-11T07:44:59.000Z</time>
      </trkpt>
      <trkpt lat="47.68694" lon="6.16716">
        <ele>242.39999389648</ele>
        <time>2012-08-11T07:45:06.000Z</time>
      </trkpt>
      <trkpt lat="47.68696" lon="6.16719">
        <ele>242.80000305176</ele>
        <time>2012-08-11T07:45:07.000Z</time>
      </trkpt>
      <trkpt lat="47.68698" lon="6.16722">
        <ele>243.19999694824</ele>
        <time>2012-08-11T07:45:08.000Z</time>
      </trkpt>
      <trkpt lat="47.68699" lon="6.16724">
        <ele>243.80000305176</ele>
        <time>2012-08-11T07:45:09.000Z</time>
      </trkpt>
      <trkpt lat="47.68701" lon="6.16727">
        <ele>244.19999694824</ele>
        <time>2012-08-11T07:45:10.000Z</time>
      </trkpt>
      <trkpt lat="47.6871" lon="6.16742">
        <ele>244.19999694824</ele>
        <time>2012-08-11T07:45:15.000Z</time>
      </trkpt>
      <trkpt lat="47.68729" lon="6.16773">
        <ele>244.19999694824</ele>
        <time>2012-08-11T07:45:26.000Z</time>
      </trkpt>
      <trkpt lat="47.6874" lon="6.16792">
        <ele>244.19999694824</ele>
        <time>2012-08-11T07:45:33.000Z</time>
      </trkpt>
      <trkpt lat="47.68746" lon="6.16803">
        <ele>245</ele>
        <time>2012-08-11T07:45:37.000Z</time>
      </trkpt>
      <trkpt lat="47.68748" lon="6.16806">
        <ele>245.39999389648</ele>
        <time>2012-08-11T07:45:38.000Z</time>
      </trkpt>
      <trkpt lat="47.6875" lon="6.16809">
        <ele>245.80000305176</ele>
        <time>2012-08-11T07:45:39.000Z</time>
      </trkpt>
      <trkpt lat="47.68751" lon="6.16812">
        <ele>246.19999694824</ele>
        <time>2012-08-11T07:45:40.000Z</time>
      </trkpt>
      <trkpt lat="47.68755" lon="6.16817">
        <ele>246.19999694824</ele>
        <time>2012-08-11T07:45:42.000Z</time>
      </trkpt>
      <trkpt lat="47.68768" lon="6.1684">
        <ele>246.19999694824</ele>
        <time>2012-08-11T07:45:51.000Z</time>
      </trkpt>
      <trkpt lat="47.68776" lon="6.16855">
        <ele>246.60000610352</ele>
        <time>2012-08-11T07:45:57.000Z</time>
      </trkpt>
      <trkpt lat="47.68777" lon="6.16857">
        <ele>247</ele>
        <time>2012-08-11T07:45:58.000Z</time>
      </trkpt>
      <trkpt lat="47.68778" lon="6.1686">
        <ele>247.39999389648</ele>
        <time>2012-08-11T07:45:59.000Z</time>
      </trkpt>
      <trkpt lat="47.6878" lon="6.16862">
        <ele>247.80000305176</ele>
        <time>2012-08-11T07:46:00.000Z</time>
      </trkpt>
      <trkpt lat="47.68781" lon="6.16865">
        <ele>248.19999694824</ele>
        <time>2012-08-11T07:46:01.000Z</time>
      </trkpt>
      <trkpt lat="47.68796" lon="6.16893">
        <ele>248.19999694824</ele>
        <time>2012-08-11T07:46:12.000Z</time>
      </trkpt>
      <trkpt lat="47.68811" lon="6.16918">
        <ele>248.60000610352</ele>
        <time>2012-08-11T07:46:21.000Z</time>
      </trkpt>
      <trkpt lat="47.68812" lon="6.16921">
        <ele>249</ele>
        <time>2012-08-11T07:46:22.000Z</time>
      </trkpt>
      <trkpt lat="47.68814" lon="6.16924">
        <ele>249.39999389648</ele>
        <time>2012-08-11T07:46:23.000Z</time>
      </trkpt>
      <trkpt lat="47.68816" lon="6.16926">
        <ele>249.80000305176</ele>
        <time>2012-08-11T07:46:24.000Z</time>
      </trkpt>
      <trkpt lat="47.68817" lon="6.16929">
        <ele>250.39999389648</ele>
        <time>2012-08-11T07:46:25.000Z</time>
      </trkpt>
      <trkpt lat="47.68827" lon="6.16945">
        <ele>250.39999389648</ele>
        <time>2012-08-11T07:46:31.000Z</time>
      </trkpt>
      <trkpt lat="47.68841" lon="6.16967">
        <ele>250.39999389648</ele>
        <time>2012-08-11T07:46:39.000Z</time>
      </trkpt>
      <trkpt lat="47.68856" lon="6.16988">
        <ele>250.39999389648</ele>
        <time>2012-08-11T07:46:47.000Z</time>
      </trkpt>
      <trkpt lat="47.68869" lon="6.17003">
        <ele>250.80000305176</ele>
        <time>2012-08-11T07:46:53.000Z</time>
      </trkpt>
      <trkpt lat="47.68871" lon="6.17006">
        <ele>251.19999694824</ele>
        <time>2012-08-11T07:46:54.000Z</time>
      </trkpt>
      <trkpt lat="47.68872" lon="6.17008">
        <ele>251.60000610352</ele>
        <time>2012-08-11T07:46:55.000Z</time>
      </trkpt>
      <trkpt lat="47.68874" lon="6.17011">
        <ele>252</ele>
        <time>2012-08-11T07:46:56.000Z</time>
      </trkpt>
      <trkpt lat="47.68876" lon="6.17013">
        <ele>252.39999389648</ele>
        <time>2012-08-11T07:46:57.000Z</time>
      </trkpt>
      <trkpt lat="47.68891" lon="6.17034">
        <ele>252.39999389648</ele>
        <time>2012-08-11T07:47:05.000Z</time>
      </trkpt>
      <trkpt lat="47.68906" lon="6.17056">
        <ele>252.39999389648</ele>
        <time>2012-08-11T07:47:13.000Z</time>
      </trkpt>
      <trkpt lat="47.68921" lon="6.17081">
        <ele>252.39999389648</ele>
        <time>2012-08-11T07:47:20.000Z</time>
      </trkpt>
      <trkpt lat="47.68934" lon="6.171">
        <ele>252.39999389648</ele>
        <time>2012-08-11T07:47:24.000Z</time>
      </trkpt>
      <trkpt lat="47.6894" lon="6.1711">
        <ele>252.39999389648</ele>
        <time>2012-08-11T07:47:26.000Z</time>
      </trkpt>
      <trkpt lat="47.68961" lon="6.17142">
        <ele>252.39999389648</ele>
        <time>2012-08-11T07:47:33.000Z</time>
      </trkpt>
      <trkpt lat="47.68972" lon="6.17158">
        <ele>252.39999389648</ele>
        <time>2012-08-11T07:47:36.000Z</time>
      </trkpt>
      <trkpt lat="47.68984" lon="6.1717">
        <ele>252.39999389648</ele>
        <time>2012-08-11T07:47:39.000Z</time>
      </trkpt>
      <trkpt lat="47.6901" lon="6.17187">
        <ele>252.39999389648</ele>
        <time>2012-08-11T07:47:45.000Z</time>
      </trkpt>
      <trkpt lat="47.69031" lon="6.17206">
        <ele>252.39999389648</ele>
        <time>2012-08-11T07:47:52.000Z</time>
      </trkpt>
      <trkpt lat="47.69041" lon="6.17224">
        <ele>252.39999389648</ele>
        <time>2012-08-11T07:47:57.000Z</time>
      </trkpt>
      <trkpt lat="47.6905" lon="6.17239">
        <ele>252.39999389648</ele>
        <time>2012-08-11T07:48:02.000Z</time>
      </trkpt>
      <trkpt lat="47.69054" lon="6.17244">
        <ele>252.39999389648</ele>
        <time>2012-08-11T07:48:04.000Z</time>
      </trkpt>
      <trkpt lat="47.69069" lon="6.17266">
        <ele>252.39999389648</ele>
        <time>2012-08-11T07:48:13.000Z</time>
      </trkpt>
      <trkpt lat="47.69082" lon="6.17283">
        <ele>252.39999389648</ele>
        <time>2012-08-11T07:48:20.000Z</time>
      </trkpt>
      <trkpt lat="47.6909" lon="6.17296">
        <ele>252.80000305176</ele>
        <time>2012-08-11T07:48:25.000Z</time>
      </trkpt>
      <trkpt lat="47.69092" lon="6.17299">
        <ele>253.19999694824</ele>
        <time>2012-08-11T07:48:26.000Z</time>
      </trkpt>
      <trkpt lat="47.69093" lon="6.17302">
        <ele>253.60000610352</ele>
        <time>2012-08-11T07:48:27.000Z</time>
      </trkpt>
      <trkpt lat="47.69095" lon="6.17305">
        <ele>254</ele>
        <time>2012-08-11T07:48:28.000Z</time>
      </trkpt>
      <trkpt lat="47.69096" lon="6.17307">
        <ele>254.39999389648</ele>
        <time>2012-08-11T07:48:29.000Z</time>
      </trkpt>
      <trkpt lat="47.69101" lon="6.17315">
        <ele>254.39999389648</ele>
        <time>2012-08-11T07:48:32.000Z</time>
      </trkpt>
      <trkpt lat="47.69108" lon="6.17327">
        <ele>254.80000305176</ele>
        <time>2012-08-11T07:48:37.000Z</time>
      </trkpt>
      <trkpt lat="47.6911" lon="6.17329">
        <ele>255.19999694824</ele>
        <time>2012-08-11T07:48:38.000Z</time>
      </trkpt>
      <trkpt lat="47.69111" lon="6.17331">
        <ele>255.60000610352</ele>
        <time>2012-08-11T07:48:39.000Z</time>
      </trkpt>
      <trkpt lat="47.69113" lon="6.17333">
        <ele>256</ele>
        <time>2012-08-11T07:48:40.000Z</time>
      </trkpt>
      <trkpt lat="47.69114" lon="6.17335">
        <ele>256.39999389648</ele>
        <time>2012-08-11T07:48:41.000Z</time>
      </trkpt>
      <trkpt lat="47.69124" lon="6.17349">
        <ele>256.39999389648</ele>
        <time>2012-08-11T07:48:47.000Z</time>
      </trkpt>
      <trkpt lat="47.69129" lon="6.17361">
        <ele>256.39999389648</ele>
        <time>2012-08-11T07:48:52.000Z</time>
      </trkpt>
      <trkpt lat="47.69129" lon="6.17364">
        <ele>256.39999389648</ele>
        <time>2012-08-11T07:48:53.000Z</time>
      </trkpt>
      <trkpt lat="47.69128" lon="6.17368">
        <ele>257.20001220703</ele>
        <time>2012-08-11T07:48:55.000Z</time>
      </trkpt>
      <trkpt lat="47.69126" lon="6.17371">
        <ele>257.60000610352</ele>
        <time>2012-08-11T07:48:56.000Z</time>
      </trkpt>
      <trkpt lat="47.69125" lon="6.17373">
        <ele>258</ele>
        <time>2012-08-11T07:48:57.000Z</time>
      </trkpt>
      <trkpt lat="47.69124" lon="6.17375">
        <ele>258.60000610352</ele>
        <time>2012-08-11T07:48:58.000Z</time>
      </trkpt>
      <trkpt lat="47.69119" lon="6.17381">
        <ele>258.60000610352</ele>
        <time>2012-08-11T07:49:01.000Z</time>
      </trkpt>
      <trkpt lat="47.69117" lon="6.17387">
        <ele>258.60000610352</ele>
        <time>2012-08-11T07:49:03.000Z</time>
      </trkpt>
      <trkpt lat="47.69106" lon="6.17404">
        <ele>258.60000610352</ele>
        <time>2012-08-11T07:49:09.000Z</time>
      </trkpt>
      <trkpt lat="47.69096" lon="6.17421">
        <ele>258.60000610352</ele>
        <time>2012-08-11T07:49:15.000Z</time>
      </trkpt>
      <trkpt lat="47.69094" lon="6.17423">
        <ele>258.20001220703</ele>
        <time>2012-08-11T07:49:16.000Z</time>
      </trkpt>
      <trkpt lat="47.69093" lon="6.17424">
        <ele>257.60000610352</ele>
        <time>2012-08-11T07:49:17.000Z</time>
      </trkpt>
      <trkpt lat="47.69091" lon="6.17425">
        <ele>257.20001220703</ele>
        <time>2012-08-11T07:49:18.000Z</time>
      </trkpt>
      <trkpt lat="47.6909" lon="6.17427">
        <ele>256.39999389648</ele>
        <time>2012-08-11T07:49:19.000Z</time>
      </trkpt>
      <trkpt lat="47.69087" lon="6.17432">
        <ele>256.39999389648</ele>
        <time>2012-08-11T07:49:22.000Z</time>
      </trkpt>
      <trkpt lat="47.69087" lon="6.17433">
        <ele>256.39999389648</ele>
        <time>2012-08-11T07:49:23.000Z</time>
      </trkpt>
      <trkpt lat="47.69085" lon="6.17433">
        <ele>256.39999389648</ele>
        <time>2012-08-11T07:49:48.000Z</time>
      </trkpt>
      <trkpt lat="47.69084" lon="6.17434">
        <ele>256</ele>
        <time>2012-08-11T07:49:49.000Z</time>
      </trkpt>
      <trkpt lat="47.69082" lon="6.17435">
        <ele>255.60000610352</ele>
        <time>2012-08-11T07:49:50.000Z</time>
      </trkpt>
      <trkpt lat="47.6908" lon="6.17437">
        <ele>255.19999694824</ele>
        <time>2012-08-11T07:49:51.000Z</time>
      </trkpt>
      <trkpt lat="47.69079" lon="6.17439">
        <ele>254.80000305176</ele>
        <time>2012-08-11T07:49:52.000Z</time>
      </trkpt>
      <trkpt lat="47.69077" lon="6.17442">
        <ele>254.39999389648</ele>
        <time>2012-08-11T07:49:53.000Z</time>
      </trkpt>
      <trkpt lat="47.69075" lon="6.17445">
        <ele>254.39999389648</ele>
        <time>2012-08-11T07:49:54.000Z</time>
      </trkpt>
      <trkpt lat="47.69069" lon="6.17457">
        <ele>254.39999389648</ele>
        <time>2012-08-11T07:50:00.000Z</time>
      </trkpt>
      <trkpt lat="47.69067" lon="6.17458">
        <ele>254.39999389648</ele>
        <time>2012-08-11T07:50:06.000Z</time>
      </trkpt>
      <trkpt lat="47.69063" lon="6.17465">
        <ele>254.39999389648</ele>
        <time>2012-08-11T07:50:09.000Z</time>
      </trkpt>
      <trkpt lat="47.69059" lon="6.1747">
        <ele>254</ele>
        <time>2012-08-11T07:50:11.000Z</time>
      </trkpt>
      <trkpt lat="47.69057" lon="6.17472">
        <ele>253.60000610352</ele>
        <time>2012-08-11T07:50:12.000Z</time>
      </trkpt>
      <trkpt lat="47.69055" lon="6.17474">
        <ele>253</ele>
        <time>2012-08-11T07:50:13.000Z</time>
      </trkpt>
      <trkpt lat="47.69052" lon="6.17475">
        <ele>252.60000610352</ele>
        <time>2012-08-11T07:50:14.000Z</time>
      </trkpt>
      <trkpt lat="47.6905" lon="6.17476">
        <ele>252.19999694824</ele>
        <time>2012-08-11T07:50:15.000Z</time>
      </trkpt>
      <trkpt lat="47.69032" lon="6.17476">
        <ele>251.80000305176</ele>
        <time>2012-08-11T07:50:21.000Z</time>
      </trkpt>
      <trkpt lat="47.69028" lon="6.17476">
        <ele>251.39999389648</ele>
        <time>2012-08-11T07:50:22.000Z</time>
      </trkpt>
      <trkpt lat="47.69025" lon="6.17476">
        <ele>251</ele>
        <time>2012-08-11T07:50:23.000Z</time>
      </trkpt>
      <trkpt lat="47.69022" lon="6.17477">
        <ele>250.60000610352</ele>
        <time>2012-08-11T07:50:24.000Z</time>
      </trkpt>
      <trkpt lat="47.69019" lon="6.17478">
        <ele>250.19999694824</ele>
        <time>2012-08-11T07:50:25.000Z</time>
      </trkpt>
      <trkpt lat="47.69012" lon="6.17478">
        <ele>250.19999694824</ele>
        <time>2012-08-11T07:50:27.000Z</time>
      </trkpt>
      <trkpt lat="47.68999" lon="6.17478">
        <ele>249.80000305176</ele>
        <time>2012-08-11T07:50:31.000Z</time>
      </trkpt>
      <trkpt lat="47.68996" lon="6.17478">
        <ele>249.39999389648</ele>
        <time>2012-08-11T07:50:32.000Z</time>
      </trkpt>
      <trkpt lat="47.68993" lon="6.17477">
        <ele>248.39999389648</ele>
        <time>2012-08-11T07:50:33.000Z</time>
      </trkpt>
      <trkpt lat="47.68989" lon="6.17477">
        <ele>248</ele>
        <time>2012-08-11T07:50:34.000Z</time>
      </trkpt>
      <trkpt lat="47.68977" lon="6.17477">
        <ele>247.60000610352</ele>
        <time>2012-08-11T07:50:38.000Z</time>
      </trkpt>
      <trkpt lat="47.68975" lon="6.17479">
        <ele>247.19999694824</ele>
        <time>2012-08-11T07:50:39.000Z</time>
      </trkpt>
      <trkpt lat="47.68972" lon="6.17479">
        <ele>246.80000305176</ele>
        <time>2012-08-11T07:50:40.000Z</time>
      </trkpt>
      <trkpt lat="47.6897" lon="6.17481">
        <ele>246.39999389648</ele>
        <time>2012-08-11T07:50:41.000Z</time>
      </trkpt>
      <trkpt lat="47.68967" lon="6.17482">
        <ele>246</ele>
        <time>2012-08-11T07:50:42.000Z</time>
      </trkpt>
      <trkpt lat="47.68953" lon="6.17487">
        <ele>246</ele>
        <time>2012-08-11T07:50:47.000Z</time>
      </trkpt>
      <trkpt lat="47.68936" lon="6.1749">
        <ele>246</ele>
        <time>2012-08-11T07:50:53.000Z</time>
      </trkpt>
      <trkpt lat="47.68933" lon="6.1749">
        <ele>245.60000610352</ele>
        <time>2012-08-11T07:50:54.000Z</time>
      </trkpt>
      <trkpt lat="47.6893" lon="6.1749">
        <ele>245.19999694824</ele>
        <time>2012-08-11T07:50:55.000Z</time>
      </trkpt>
      <trkpt lat="47.68928" lon="6.1749">
        <ele>244.80000305176</ele>
        <time>2012-08-11T07:50:56.000Z</time>
      </trkpt>
      <trkpt lat="47.68925" lon="6.1749">
        <ele>244.39999389648</ele>
        <time>2012-08-11T07:50:57.000Z</time>
      </trkpt>
      <trkpt lat="47.68922" lon="6.1749">
        <ele>244</ele>
        <time>2012-08-11T07:50:58.000Z</time>
      </trkpt>
      <trkpt lat="47.68919" lon="6.1749">
        <ele>244</ele>
        <time>2012-08-11T07:50:59.000Z</time>
      </trkpt>
      <trkpt lat="47.68901" lon="6.17489">
        <ele>243.60000610352</ele>
        <time>2012-08-11T07:51:05.000Z</time>
      </trkpt>
      <trkpt lat="47.68897" lon="6.17489">
        <ele>243.19999694824</ele>
        <time>2012-08-11T07:51:06.000Z</time>
      </trkpt>
      <trkpt lat="47.68894" lon="6.17489">
        <ele>242.60000610352</ele>
        <time>2012-08-11T07:51:07.000Z</time>
      </trkpt>
      <trkpt lat="47.68891" lon="6.1749">
        <ele>242.19999694824</ele>
        <time>2012-08-11T07:51:08.000Z</time>
      </trkpt>
      <trkpt lat="47.68888" lon="6.1749">
        <ele>241.80000305176</ele>
        <time>2012-08-11T07:51:09.000Z</time>
      </trkpt>
      <trkpt lat="47.68875" lon="6.17491">
        <ele>241.80000305176</ele>
        <time>2012-08-11T07:51:13.000Z</time>
      </trkpt>
      <trkpt lat="47.68855" lon="6.17494">
        <ele>241.80000305176</ele>
        <time>2012-08-11T07:51:19.000Z</time>
      </trkpt>
      <trkpt lat="47.6885" lon="6.17495">
        <ele>241.39999389648</ele>
        <time>2012-08-11T07:51:21.000Z</time>
      </trkpt>
      <trkpt lat="47.68847" lon="6.17496">
        <ele>241</ele>
        <time>2012-08-11T07:51:22.000Z</time>
      </trkpt>
      <trkpt lat="47.68844" lon="6.17497">
        <ele>240</ele>
        <time>2012-08-11T07:51:23.000Z</time>
      </trkpt>
      <trkpt lat="47.68841" lon="6.17497">
        <ele>239.60000610352</ele>
        <time>2012-08-11T07:51:24.000Z</time>
      </trkpt>
      <trkpt lat="47.68837" lon="6.17497">
        <ele>239.60000610352</ele>
        <time>2012-08-11T07:51:25.000Z</time>
      </trkpt>
      <trkpt lat="47.68817" lon="6.17501">
        <ele>239.19999694824</ele>
        <time>2012-08-11T07:51:33.000Z</time>
      </trkpt>
      <trkpt lat="47.68814" lon="6.17502">
        <ele>238.80000305176</ele>
        <time>2012-08-11T07:51:34.000Z</time>
      </trkpt>
      <trkpt lat="47.68813" lon="6.17503">
        <ele>238.39999389648</ele>
        <time>2012-08-11T07:51:35.000Z</time>
      </trkpt>
      <trkpt lat="47.68811" lon="6.17505">
        <ele>237.80000305176</ele>
        <time>2012-08-11T07:51:36.000Z</time>
      </trkpt>
      <trkpt lat="47.6881" lon="6.17506">
        <ele>237.39999389648</ele>
        <time>2012-08-11T07:51:37.000Z</time>
      </trkpt>
      <trkpt lat="47.68809" lon="6.17507">
        <ele>237.39999389648</ele>
        <time>2012-08-11T07:51:39.000Z</time>
      </trkpt>
      <trkpt lat="47.68806" lon="6.1751">
        <ele>237.39999389648</ele>
        <time>2012-08-11T07:52:20.000Z</time>
      </trkpt>
      <trkpt lat="47.68807" lon="6.17517">
        <ele>237.39999389648</ele>
        <time>2012-08-11T07:52:23.000Z</time>
      </trkpt>
      <trkpt lat="47.68809" lon="6.17524">
        <ele>237.39999389648</ele>
        <time>2012-08-11T07:52:25.000Z</time>
      </trkpt>
      <trkpt lat="47.68813" lon="6.17529">
        <ele>237.39999389648</ele>
        <time>2012-08-11T07:52:27.000Z</time>
      </trkpt>
      <trkpt lat="47.68825" lon="6.17542">
        <ele>237.39999389648</ele>
        <time>2012-08-11T07:52:32.000Z</time>
      </trkpt>
      <trkpt lat="47.68834" lon="6.17551">
        <ele>237.39999389648</ele>
        <time>2012-08-11T07:52:35.000Z</time>
      </trkpt>
      <trkpt lat="47.68855" lon="6.17572">
        <ele>237.39999389648</ele>
        <time>2012-08-11T07:52:43.000Z</time>
      </trkpt>
      <trkpt lat="47.68873" lon="6.1759">
        <ele>237.39999389648</ele>
        <time>2012-08-11T07:52:50.000Z</time>
      </trkpt>
      <trkpt lat="47.68897" lon="6.17614">
        <ele>237.39999389648</ele>
        <time>2012-08-11T07:52:59.000Z</time>
      </trkpt>
      <trkpt lat="47.68921" lon="6.1764">
        <ele>237.39999389648</ele>
        <time>2012-08-11T07:53:08.000Z</time>
      </trkpt>
      <trkpt lat="47.68933" lon="6.17652">
        <ele>237.80000305176</ele>
        <time>2012-08-11T07:53:13.000Z</time>
      </trkpt>
      <trkpt lat="47.68936" lon="6.17655">
        <ele>238.19999694824</ele>
        <time>2012-08-11T07:53:14.000Z</time>
      </trkpt>
      <trkpt lat="47.68938" lon="6.17657">
        <ele>238.60000610352</ele>
        <time>2012-08-11T07:53:15.000Z</time>
      </trkpt>
      <trkpt lat="47.68941" lon="6.1766">
        <ele>239.19999694824</ele>
        <time>2012-08-11T07:53:16.000Z</time>
      </trkpt>
      <trkpt lat="47.68943" lon="6.17662">
        <ele>239.60000610352</ele>
        <time>2012-08-11T07:53:17.000Z</time>
      </trkpt>
      <trkpt lat="47.68959" lon="6.17677">
        <ele>239.60000610352</ele>
        <time>2012-08-11T07:53:24.000Z</time>
      </trkpt>
      <trkpt lat="47.68977" lon="6.17695">
        <ele>239.60000610352</ele>
        <time>2012-08-11T07:53:32.000Z</time>
      </trkpt>
      <trkpt lat="47.68984" lon="6.17703">
        <ele>240</ele>
        <time>2012-08-11T07:53:35.000Z</time>
      </trkpt>
      <trkpt lat="47.68986" lon="6.17705">
        <ele>240.39999389648</ele>
        <time>2012-08-11T07:53:36.000Z</time>
      </trkpt>
      <trkpt lat="47.68989" lon="6.17707">
        <ele>240.80000305176</ele>
        <time>2012-08-11T07:53:37.000Z</time>
      </trkpt>
      <trkpt lat="47.68992" lon="6.1771">
        <ele>241.19999694824</ele>
        <time>2012-08-11T07:53:38.000Z</time>
      </trkpt>
      <trkpt lat="47.68994" lon="6.17712">
        <ele>241.60000610352</ele>
        <time>2012-08-11T07:53:39.000Z</time>
      </trkpt>
      <trkpt lat="47.68996" lon="6.17715">
        <ele>241.60000610352</ele>
        <time>2012-08-11T07:53:40.000Z</time>
      </trkpt>
      <trkpt lat="47.69018" lon="6.17737">
        <ele>241.60000610352</ele>
        <time>2012-08-11T07:53:49.000Z</time>
      </trkpt>
      <trkpt lat="47.69037" lon="6.17757">
        <ele>241.60000610352</ele>
        <time>2012-08-11T07:53:56.000Z</time>
      </trkpt>
      <trkpt lat="47.6904" lon="6.17761">
        <ele>241.60000610352</ele>
        <time>2012-08-11T07:53:57.000Z</time>
      </trkpt>
      <trkpt lat="47.69055" lon="6.1778">
        <ele>241.60000610352</ele>
        <time>2012-08-11T07:54:02.000Z</time>
      </trkpt>
      <trkpt lat="47.69069" lon="6.17794">
        <ele>241.60000610352</ele>
        <time>2012-08-11T07:54:07.000Z</time>
      </trkpt>
      <trkpt lat="47.6909" lon="6.1782">
        <ele>242</ele>
        <time>2012-08-11T07:54:15.000Z</time>
      </trkpt>
      <trkpt lat="47.69092" lon="6.17823">
        <ele>242.39999389648</ele>
        <time>2012-08-11T07:54:16.000Z</time>
      </trkpt>
      <trkpt lat="47.69095" lon="6.17826">
        <ele>242.80000305176</ele>
        <time>2012-08-11T07:54:17.000Z</time>
      </trkpt>
      <trkpt lat="47.69097" lon="6.17829">
        <ele>243.39999389648</ele>
        <time>2012-08-11T07:54:18.000Z</time>
      </trkpt>
      <trkpt lat="47.69099" lon="6.17832">
        <ele>243.80000305176</ele>
        <time>2012-08-11T07:54:19.000Z</time>
      </trkpt>
      <trkpt lat="47.6911" lon="6.17849">
        <ele>243.80000305176</ele>
        <time>2012-08-11T07:54:24.000Z</time>
      </trkpt>
      <trkpt lat="47.69127" lon="6.17875">
        <ele>243.80000305176</ele>
        <time>2012-08-11T07:54:32.000Z</time>
      </trkpt>
      <trkpt lat="47.69147" lon="6.17902">
        <ele>244.19999694824</ele>
        <time>2012-08-11T07:54:41.000Z</time>
      </trkpt>
      <trkpt lat="47.69149" lon="6.17906">
        <ele>244.60000610352</ele>
        <time>2012-08-11T07:54:42.000Z</time>
      </trkpt>
      <trkpt lat="47.69151" lon="6.17909">
        <ele>245</ele>
        <time>2012-08-11T07:54:43.000Z</time>
      </trkpt>
      <trkpt lat="47.69153" lon="6.17912">
        <ele>245.39999389648</ele>
        <time>2012-08-11T07:54:44.000Z</time>
      </trkpt>
      <trkpt lat="47.69155" lon="6.17915">
        <ele>245.80000305176</ele>
        <time>2012-08-11T07:54:45.000Z</time>
      </trkpt>
      <trkpt lat="47.69169" lon="6.17934">
        <ele>245.80000305176</ele>
        <time>2012-08-11T07:54:51.000Z</time>
      </trkpt>
      <trkpt lat="47.6919" lon="6.17965">
        <ele>245.80000305176</ele>
        <time>2012-08-11T07:54:59.000Z</time>
      </trkpt>
      <trkpt lat="47.69215" lon="6.17998">
        <ele>245.80000305176</ele>
        <time>2012-08-11T07:55:06.000Z</time>
      </trkpt>
      <trkpt lat="47.69249" lon="6.18044">
        <ele>245.39999389648</ele>
        <time>2012-08-11T07:55:14.000Z</time>
      </trkpt>
      <trkpt lat="47.69253" lon="6.1805">
        <ele>245</ele>
        <time>2012-08-11T07:55:15.000Z</time>
      </trkpt>
      <trkpt lat="47.69257" lon="6.18056">
        <ele>244.60000610352</ele>
        <time>2012-08-11T07:55:16.000Z</time>
      </trkpt>
      <trkpt lat="47.69262" lon="6.18062">
        <ele>244.19999694824</ele>
        <time>2012-08-11T07:55:17.000Z</time>
      </trkpt>
      <trkpt lat="47.69266" lon="6.18068">
        <ele>243.80000305176</ele>
        <time>2012-08-11T07:55:18.000Z</time>
      </trkpt>
      <trkpt lat="47.6928" lon="6.18087">
        <ele>243.80000305176</ele>
        <time>2012-08-11T07:55:21.000Z</time>
      </trkpt>
      <trkpt lat="47.69285" lon="6.18094">
        <ele>243.80000305176</ele>
        <time>2012-08-11T07:55:22.000Z</time>
      </trkpt>
      <trkpt lat="47.69295" lon="6.18107">
        <ele>243.39999389648</ele>
        <time>2012-08-11T07:55:24.000Z</time>
      </trkpt>
      <trkpt lat="47.693" lon="6.18114">
        <ele>243</ele>
        <time>2012-08-11T07:55:25.000Z</time>
      </trkpt>
      <trkpt lat="47.69306" lon="6.1812">
        <ele>242.60000610352</ele>
        <time>2012-08-11T07:55:26.000Z</time>
      </trkpt>
      <trkpt lat="47.69312" lon="6.18128">
        <ele>242.19999694824</ele>
        <time>2012-08-11T07:55:27.000Z</time>
      </trkpt>
      <trkpt lat="47.69317" lon="6.18135">
        <ele>241.80000305176</ele>
        <time>2012-08-11T07:55:28.000Z</time>
      </trkpt>
      <trkpt lat="47.69334" lon="6.18159">
        <ele>241.19999694824</ele>
        <time>2012-08-11T07:55:31.000Z</time>
      </trkpt>
      <trkpt lat="47.69339" lon="6.18167">
        <ele>240.80000305176</ele>
        <time>2012-08-11T07:55:32.000Z</time>
      </trkpt>
      <trkpt lat="47.69345" lon="6.18175">
        <ele>240.39999389648</ele>
        <time>2012-08-11T07:55:33.000Z</time>
      </trkpt>
      <trkpt lat="47.69351" lon="6.18182">
        <ele>240</ele>
        <time>2012-08-11T07:55:34.000Z</time>
      </trkpt>
      <trkpt lat="47.69356" lon="6.1819">
        <ele>239.60000610352</ele>
        <time>2012-08-11T07:55:35.000Z</time>
      </trkpt>
      <trkpt lat="47.69379" lon="6.18222">
        <ele>239</ele>
        <time>2012-08-11T07:55:39.000Z</time>
      </trkpt>
      <trkpt lat="47.69385" lon="6.18229">
        <ele>238.60000610352</ele>
        <time>2012-08-11T07:55:40.000Z</time>
      </trkpt>
      <trkpt lat="47.6939" lon="6.18237">
        <ele>238.19999694824</ele>
        <time>2012-08-11T07:55:41.000Z</time>
      </trkpt>
      <trkpt lat="47.69395" lon="6.18244">
        <ele>237.80000305176</ele>
        <time>2012-08-11T07:55:42.000Z</time>
      </trkpt>
      <trkpt lat="47.69401" lon="6.18251">
        <ele>237.39999389648</ele>
        <time>2012-08-11T07:55:43.000Z</time>
      </trkpt>
      <trkpt lat="47.69433" lon="6.18299">
        <ele>237.39999389648</ele>
        <time>2012-08-11T07:55:50.000Z</time>
      </trkpt>
      <trkpt lat="47.69451" lon="6.18341">
        <ele>237.39999389648</ele>
        <time>2012-08-11T07:55:56.000Z</time>
      </trkpt>
      <trkpt lat="47.69468" lon="6.18392">
        <ele>237.39999389648</ele>
        <time>2012-08-11T07:56:03.000Z</time>
      </trkpt>
      <trkpt lat="47.69475" lon="6.18427">
        <ele>237.39999389648</ele>
        <time>2012-08-11T07:56:08.000Z</time>
      </trkpt>
      <trkpt lat="47.69475" lon="6.18433">
        <ele>237.39999389648</ele>
        <time>2012-08-11T07:56:09.000Z</time>
      </trkpt>
      <trkpt lat="47.69478" lon="6.18459">
        <ele>237.39999389648</ele>
        <time>2012-08-11T07:56:13.000Z</time>
      </trkpt>
      <trkpt lat="47.69479" lon="6.18478">
        <ele>237.39999389648</ele>
        <time>2012-08-11T07:56:16.000Z</time>
      </trkpt>
      <trkpt lat="47.69487" lon="6.1855">
        <ele>237.39999389648</ele>
        <time>2012-08-11T07:56:27.000Z</time>
      </trkpt>
      <trkpt lat="47.69502" lon="6.18598">
        <ele>237.39999389648</ele>
        <time>2012-08-11T07:56:35.000Z</time>
      </trkpt>
      <trkpt lat="47.69524" lon="6.18639">
        <ele>237.39999389648</ele>
        <time>2012-08-11T07:56:43.000Z</time>
      </trkpt>
      <trkpt lat="47.69552" lon="6.1867">
        <ele>237.39999389648</ele>
        <time>2012-08-11T07:56:51.000Z</time>
      </trkpt>
      <trkpt lat="47.69585" lon="6.18691">
        <ele>237.39999389648</ele>
        <time>2012-08-11T07:56:59.000Z</time>
      </trkpt>
      <trkpt lat="47.6962" lon="6.18701">
        <ele>237.39999389648</ele>
        <time>2012-08-11T07:57:07.000Z</time>
      </trkpt>
      <trkpt lat="47.69632" lon="6.18704">
        <ele>237.39999389648</ele>
        <time>2012-08-11T07:57:10.000Z</time>
      </trkpt>
      <trkpt lat="47.69645" lon="6.18708">
        <ele>237.39999389648</ele>
        <time>2012-08-11T07:57:13.000Z</time>
      </trkpt>
      <trkpt lat="47.69681" lon="6.1872">
        <ele>237.39999389648</ele>
        <time>2012-08-11T07:57:21.000Z</time>
      </trkpt>
      <trkpt lat="47.69705" lon="6.18736">
        <ele>237.39999389648</ele>
        <time>2012-08-11T07:57:27.000Z</time>
      </trkpt>
      <trkpt lat="47.69734" lon="6.18769">
        <ele>237.39999389648</ele>
        <time>2012-08-11T07:57:35.000Z</time>
      </trkpt>
      <trkpt lat="47.69764" lon="6.18808">
        <ele>237.39999389648</ele>
        <time>2012-08-11T07:57:44.000Z</time>
      </trkpt>
      <trkpt lat="47.69794" lon="6.18845">
        <ele>237.39999389648</ele>
        <time>2012-08-11T07:57:53.000Z</time>
      </trkpt>
      <trkpt lat="47.69817" lon="6.18875">
        <ele>237.39999389648</ele>
        <time>2012-08-11T07:58:01.000Z</time>
      </trkpt>
      <trkpt lat="47.69818" lon="6.18879">
        <ele>237.39999389648</ele>
        <time>2012-08-11T07:58:02.000Z</time>
      </trkpt>
      <trkpt lat="47.69816" lon="6.18887">
        <ele>237.39999389648</ele>
        <time>2012-08-11T07:58:04.000Z</time>
      </trkpt>
      <trkpt lat="47.69803" lon="6.18901">
        <ele>237.39999389648</ele>
        <time>2012-08-11T07:58:08.000Z</time>
      </trkpt>
      <trkpt lat="47.69801" lon="6.18918">
        <ele>237.39999389648</ele>
        <time>2012-08-11T07:58:11.000Z</time>
      </trkpt>
      <trkpt lat="47.698" lon="6.18924">
        <ele>237.39999389648</ele>
        <time>2012-08-11T07:58:12.000Z</time>
      </trkpt>
      <trkpt lat="47.69802" lon="6.1896">
        <ele>237.39999389648</ele>
        <time>2012-08-11T07:58:18.000Z</time>
      </trkpt>
      <trkpt lat="47.69807" lon="6.19001">
        <ele>237.39999389648</ele>
        <time>2012-08-11T07:58:25.000Z</time>
      </trkpt>
      <trkpt lat="47.69812" lon="6.19038">
        <ele>237.39999389648</ele>
        <time>2012-08-11T07:58:32.000Z</time>
      </trkpt>
      <trkpt lat="47.69816" lon="6.19077">
        <ele>237.39999389648</ele>
        <time>2012-08-11T07:58:40.000Z</time>
      </trkpt>
      <trkpt lat="47.69817" lon="6.191">
        <ele>237.39999389648</ele>
        <time>2012-08-11T07:58:45.000Z</time>
      </trkpt>
      <trkpt lat="47.6981" lon="6.19118">
        <ele>237.39999389648</ele>
        <time>2012-08-11T07:58:49.000Z</time>
      </trkpt>
      <trkpt lat="47.69791" lon="6.19133">
        <ele>237.39999389648</ele>
        <time>2012-08-11T07:58:56.000Z</time>
      </trkpt>
      <trkpt lat="47.69767" lon="6.19149">
        <ele>237.39999389648</ele>
        <time>2012-08-11T07:59:03.000Z</time>
      </trkpt>
      <trkpt lat="47.69748" lon="6.19162">
        <ele>237.39999389648</ele>
        <time>2012-08-11T07:59:09.000Z</time>
      </trkpt>
      <trkpt lat="47.69723" lon="6.1918">
        <ele>237.39999389648</ele>
        <time>2012-08-11T07:59:17.000Z</time>
      </trkpt>
      <trkpt lat="47.69702" lon="6.192">
        <ele>237.39999389648</ele>
        <time>2012-08-11T07:59:25.000Z</time>
      </trkpt>
      <trkpt lat="47.69686" lon="6.19214">
        <ele>237.39999389648</ele>
        <time>2012-08-11T07:59:32.000Z</time>
      </trkpt>
      <trkpt lat="47.69682" lon="6.19223">
        <ele>237.39999389648</ele>
        <time>2012-08-11T07:59:38.000Z</time>
      </trkpt>
      <trkpt lat="47.69689" lon="6.19233">
        <ele>237.39999389648</ele>
        <time>2012-08-11T07:59:43.000Z</time>
      </trkpt>
      <trkpt lat="47.69688" lon="6.19246">
        <ele>237.39999389648</ele>
        <time>2012-08-11T07:59:48.000Z</time>
      </trkpt>
      <trkpt lat="47.69687" lon="6.19249">
        <ele>237.39999389648</ele>
        <time>2012-08-11T07:59:49.000Z</time>
      </trkpt>
      <trkpt lat="47.6968" lon="6.19278">
        <ele>237.39999389648</ele>
        <time>2012-08-11T07:59:57.000Z</time>
      </trkpt>
      <trkpt lat="47.69675" lon="6.19305">
        <ele>237.39999389648</ele>
        <time>2012-08-11T08:00:03.000Z</time>
      </trkpt>
      <trkpt lat="47.69674" lon="6.19333">
        <ele>237.39999389648</ele>
        <time>2012-08-11T08:00:08.000Z</time>
      </trkpt>
      <trkpt lat="47.69682" lon="6.19369">
        <ele>237.39999389648</ele>
        <time>2012-08-11T08:00:15.000Z</time>
      </trkpt>
      <trkpt lat="47.69692" lon="6.19415">
        <ele>237.39999389648</ele>
        <time>2012-08-11T08:00:25.000Z</time>
      </trkpt>
      <trkpt lat="47.697" lon="6.19451">
        <ele>237.39999389648</ele>
        <time>2012-08-11T08:00:33.000Z</time>
      </trkpt>
      <trkpt lat="47.69705" lon="6.19481">
        <ele>237.39999389648</ele>
        <time>2012-08-11T08:00:40.000Z</time>
      </trkpt>
      <trkpt lat="47.69711" lon="6.19509">
        <ele>237.39999389648</ele>
        <time>2012-08-11T08:00:47.000Z</time>
      </trkpt>
      <trkpt lat="47.69714" lon="6.19522">
        <ele>237.80000305176</ele>
        <time>2012-08-11T08:00:50.000Z</time>
      </trkpt>
      <trkpt lat="47.69715" lon="6.19527">
        <ele>238.19999694824</ele>
        <time>2012-08-11T08:00:51.000Z</time>
      </trkpt>
      <trkpt lat="47.69716" lon="6.19531">
        <ele>238.60000610352</ele>
        <time>2012-08-11T08:00:52.000Z</time>
      </trkpt>
      <trkpt lat="47.69717" lon="6.19534">
        <ele>239</ele>
        <time>2012-08-11T08:00:53.000Z</time>
      </trkpt>
      <trkpt lat="47.69718" lon="6.19538">
        <ele>239.39999389648</ele>
        <time>2012-08-11T08:00:54.000Z</time>
      </trkpt>
      <trkpt lat="47.69719" lon="6.19542">
        <ele>239.39999389648</ele>
        <time>2012-08-11T08:00:55.000Z</time>
      </trkpt>
      <trkpt lat="47.69725" lon="6.19576">
        <ele>239.39999389648</ele>
        <time>2012-08-11T08:01:03.000Z</time>
      </trkpt>
      <trkpt lat="47.6973" lon="6.19599">
        <ele>239.39999389648</ele>
        <time>2012-08-11T08:01:09.000Z</time>
      </trkpt>
      <trkpt lat="47.69736" lon="6.19629">
        <ele>239.39999389648</ele>
        <time>2012-08-11T08:01:17.000Z</time>
      </trkpt>
      <trkpt lat="47.69741" lon="6.19654">
        <ele>239.80000305176</ele>
        <time>2012-08-11T08:01:23.000Z</time>
      </trkpt>
      <trkpt lat="47.69742" lon="6.19659">
        <ele>240.19999694824</ele>
        <time>2012-08-11T08:01:24.000Z</time>
      </trkpt>
      <trkpt lat="47.69743" lon="6.19663">
        <ele>240.60000610352</ele>
        <time>2012-08-11T08:01:25.000Z</time>
      </trkpt>
      <trkpt lat="47.69743" lon="6.19667">
        <ele>241.19999694824</ele>
        <time>2012-08-11T08:01:26.000Z</time>
      </trkpt>
      <trkpt lat="47.69744" lon="6.19671">
        <ele>241.60000610352</ele>
        <time>2012-08-11T08:01:27.000Z</time>
      </trkpt>
      <trkpt lat="47.69746" lon="6.19689">
        <ele>241.60000610352</ele>
        <time>2012-08-11T08:01:31.000Z</time>
      </trkpt>
      <trkpt lat="47.69746" lon="6.1972">
        <ele>241.60000610352</ele>
        <time>2012-08-11T08:01:39.000Z</time>
      </trkpt>
      <trkpt lat="47.69741" lon="6.19743">
        <ele>241.60000610352</ele>
        <time>2012-08-11T08:01:45.000Z</time>
      </trkpt>
      <trkpt lat="47.69732" lon="6.19781">
        <ele>242</ele>
        <time>2012-08-11T08:01:53.000Z</time>
      </trkpt>
      <trkpt lat="47.69731" lon="6.19787">
        <ele>242.39999389648</ele>
        <time>2012-08-11T08:01:54.000Z</time>
      </trkpt>
      <trkpt lat="47.6973" lon="6.19792">
        <ele>242.80000305176</ele>
        <time>2012-08-11T08:01:55.000Z</time>
      </trkpt>
      <trkpt lat="47.69729" lon="6.19798">
        <ele>243.19999694824</ele>
        <time>2012-08-11T08:01:56.000Z</time>
      </trkpt>
      <trkpt lat="47.69728" lon="6.19803">
        <ele>243.60000610352</ele>
        <time>2012-08-11T08:01:57.000Z</time>
      </trkpt>
      <trkpt lat="47.69722" lon="6.19826">
        <ele>243.60000610352</ele>
        <time>2012-08-11T08:02:02.000Z</time>
      </trkpt>
      <trkpt lat="47.69716" lon="6.19866">
        <ele>243.60000610352</ele>
        <time>2012-08-11T08:02:10.000Z</time>
      </trkpt>
      <trkpt lat="47.69713" lon="6.19905">
        <ele>243.60000610352</ele>
        <time>2012-08-11T08:02:18.000Z</time>
      </trkpt>
      <trkpt lat="47.69711" lon="6.19931">
        <ele>243.60000610352</ele>
        <time>2012-08-11T08:02:24.000Z</time>
      </trkpt>
      <trkpt lat="47.6971" lon="6.19967">
        <ele>243.60000610352</ele>
        <time>2012-08-11T08:02:32.000Z</time>
      </trkpt>
      <trkpt lat="47.69708" lon="6.2">
        <ele>244</ele>
        <time>2012-08-11T08:02:39.000Z</time>
      </trkpt>
      <trkpt lat="47.69708" lon="6.20004">
        <ele>244.39999389648</ele>
        <time>2012-08-11T08:02:40.000Z</time>
      </trkpt>
      <trkpt lat="47.69707" lon="6.20008">
        <ele>244.80000305176</ele>
        <time>2012-08-11T08:02:41.000Z</time>
      </trkpt>
      <trkpt lat="47.69706" lon="6.20012">
        <ele>245.19999694824</ele>
        <time>2012-08-11T08:02:42.000Z</time>
      </trkpt>
      <trkpt lat="47.69706" lon="6.20017">
        <ele>245.80000305176</ele>
        <time>2012-08-11T08:02:43.000Z</time>
      </trkpt>
      <trkpt lat="47.69705" lon="6.20024">
        <ele>245.80000305176</ele>
        <time>2012-08-11T08:02:45.000Z</time>
      </trkpt>
      <trkpt lat="47.69698" lon="6.20064">
        <ele>245.80000305176</ele>
        <time>2012-08-11T08:02:54.000Z</time>
      </trkpt>
      <trkpt lat="47.69693" lon="6.20104">
        <ele>245.80000305176</ele>
        <time>2012-08-11T08:03:03.000Z</time>
      </trkpt>
      <trkpt lat="47.69691" lon="6.20129">
        <ele>245.80000305176</ele>
        <time>2012-08-11T08:03:09.000Z</time>
      </trkpt>
      <trkpt lat="47.69691" lon="6.20133">
        <ele>246.19999694824</ele>
        <time>2012-08-11T08:03:10.000Z</time>
      </trkpt>
      <trkpt lat="47.69692" lon="6.20137">
        <ele>246.60000610352</ele>
        <time>2012-08-11T08:03:11.000Z</time>
      </trkpt>
      <trkpt lat="47.69691" lon="6.20141">
        <ele>247</ele>
        <time>2012-08-11T08:03:12.000Z</time>
      </trkpt>
      <trkpt lat="47.69691" lon="6.20145">
        <ele>247.39999389648</ele>
        <time>2012-08-11T08:03:13.000Z</time>
      </trkpt>
      <trkpt lat="47.69691" lon="6.20149">
        <ele>247.80000305176</ele>
        <time>2012-08-11T08:03:14.000Z</time>
      </trkpt>
      <trkpt lat="47.69691" lon="6.20161">
        <ele>247.80000305176</ele>
        <time>2012-08-11T08:03:17.000Z</time>
      </trkpt>
      <trkpt lat="47.69692" lon="6.20193">
        <ele>247.80000305176</ele>
        <time>2012-08-11T08:03:25.000Z</time>
      </trkpt>
      <trkpt lat="47.69694" lon="6.2022">
        <ele>247.80000305176</ele>
        <time>2012-08-11T08:03:32.000Z</time>
      </trkpt>
      <trkpt lat="47.69697" lon="6.20251">
        <ele>247.80000305176</ele>
        <time>2012-08-11T08:03:40.000Z</time>
      </trkpt>
      <trkpt lat="47.69699" lon="6.20267">
        <ele>248.19999694824</ele>
        <time>2012-08-11T08:03:44.000Z</time>
      </trkpt>
      <trkpt lat="47.69699" lon="6.20271">
        <ele>248.60000610352</ele>
        <time>2012-08-11T08:03:45.000Z</time>
      </trkpt>
      <trkpt lat="47.69699" lon="6.20275">
        <ele>249</ele>
        <time>2012-08-11T08:03:46.000Z</time>
      </trkpt>
      <trkpt lat="47.69699" lon="6.20279">
        <ele>249.39999389648</ele>
        <time>2012-08-11T08:03:47.000Z</time>
      </trkpt>
      <trkpt lat="47.697" lon="6.20283">
        <ele>249.80000305176</ele>
        <time>2012-08-11T08:03:48.000Z</time>
      </trkpt>
      <trkpt lat="47.69703" lon="6.20314">
        <ele>249.80000305176</ele>
        <time>2012-08-11T08:03:56.000Z</time>
      </trkpt>
      <trkpt lat="47.69706" lon="6.20339">
        <ele>249.80000305176</ele>
        <time>2012-08-11T08:04:03.000Z</time>
      </trkpt>
      <trkpt lat="47.69709" lon="6.20372">
        <ele>249.80000305176</ele>
        <time>2012-08-11T08:04:12.000Z</time>
      </trkpt>
      <trkpt lat="47.6971" lon="6.20381">
        <ele>250.19999694824</ele>
        <time>2012-08-11T08:04:14.000Z</time>
      </trkpt>
      <trkpt lat="47.69711" lon="6.20385">
        <ele>250.60000610352</ele>
        <time>2012-08-11T08:04:15.000Z</time>
      </trkpt>
      <trkpt lat="47.69711" lon="6.20389">
        <ele>251</ele>
        <time>2012-08-11T08:04:16.000Z</time>
      </trkpt>
      <trkpt lat="47.69711" lon="6.20393">
        <ele>251.39999389648</ele>
        <time>2012-08-11T08:04:17.000Z</time>
      </trkpt>
      <trkpt lat="47.69712" lon="6.20396">
        <ele>251.80000305176</ele>
        <time>2012-08-11T08:04:18.000Z</time>
      </trkpt>
      <trkpt lat="47.69712" lon="6.204">
        <ele>251.80000305176</ele>
        <time>2012-08-11T08:04:19.000Z</time>
      </trkpt>
      <trkpt lat="47.69715" lon="6.20424">
        <ele>251.80000305176</ele>
        <time>2012-08-11T08:04:26.000Z</time>
      </trkpt>
      <trkpt lat="47.69715" lon="6.20431">
        <ele>252.19999694824</ele>
        <time>2012-08-11T08:04:28.000Z</time>
      </trkpt>
      <trkpt lat="47.69714" lon="6.20434">
        <ele>252.80000305176</ele>
        <time>2012-08-11T08:04:29.000Z</time>
      </trkpt>
      <trkpt lat="47.69715" lon="6.20438">
        <ele>253.19999694824</ele>
        <time>2012-08-11T08:04:30.000Z</time>
      </trkpt>
      <trkpt lat="47.69715" lon="6.20441">
        <ele>253.60000610352</ele>
        <time>2012-08-11T08:04:31.000Z</time>
      </trkpt>
      <trkpt lat="47.69715" lon="6.20444">
        <ele>254</ele>
        <time>2012-08-11T08:04:32.000Z</time>
      </trkpt>
      <trkpt lat="47.69714" lon="6.20447">
        <ele>254</ele>
        <time>2012-08-11T08:04:33.000Z</time>
      </trkpt>
      <trkpt lat="47.69713" lon="6.20475">
        <ele>254</ele>
        <time>2012-08-11T08:04:42.000Z</time>
      </trkpt>
      <trkpt lat="47.69709" lon="6.20493">
        <ele>254.39999389648</ele>
        <time>2012-08-11T08:04:48.000Z</time>
      </trkpt>
      <trkpt lat="47.69708" lon="6.20496">
        <ele>254.80000305176</ele>
        <time>2012-08-11T08:04:49.000Z</time>
      </trkpt>
      <trkpt lat="47.69707" lon="6.20499">
        <ele>255.19999694824</ele>
        <time>2012-08-11T08:04:50.000Z</time>
      </trkpt>
      <trkpt lat="47.69706" lon="6.20503">
        <ele>255.60000610352</ele>
        <time>2012-08-11T08:04:51.000Z</time>
      </trkpt>
      <trkpt lat="47.69705" lon="6.20505">
        <ele>256</ele>
        <time>2012-08-11T08:04:52.000Z</time>
      </trkpt>
      <trkpt lat="47.697" lon="6.20517">
        <ele>256</ele>
        <time>2012-08-11T08:04:56.000Z</time>
      </trkpt>
      <trkpt lat="47.69691" lon="6.20535">
        <ele>256</ele>
        <time>2012-08-11T08:05:03.000Z</time>
      </trkpt>
      <trkpt lat="47.69681" lon="6.2055">
        <ele>256</ele>
        <time>2012-08-11T08:05:10.000Z</time>
      </trkpt>
      <trkpt lat="47.6968" lon="6.20552">
        <ele>256.39999389648</ele>
        <time>2012-08-11T08:05:11.000Z</time>
      </trkpt>
      <trkpt lat="47.69678" lon="6.20554">
        <ele>256.79998779297</ele>
        <time>2012-08-11T08:05:12.000Z</time>
      </trkpt>
      <trkpt lat="47.69677" lon="6.20556">
        <ele>257.39999389648</ele>
        <time>2012-08-11T08:05:13.000Z</time>
      </trkpt>
      <trkpt lat="47.69675" lon="6.20558">
        <ele>257.79998779297</ele>
        <time>2012-08-11T08:05:14.000Z</time>
      </trkpt>
      <trkpt lat="47.69673" lon="6.20561">
        <ele>258.20001220703</ele>
        <time>2012-08-11T08:05:15.000Z</time>
      </trkpt>
      <trkpt lat="47.69666" lon="6.2057">
        <ele>258.20001220703</ele>
        <time>2012-08-11T08:05:19.000Z</time>
      </trkpt>
      <trkpt lat="47.69649" lon="6.2059">
        <ele>258.60000610352</ele>
        <time>2012-08-11T08:05:28.000Z</time>
      </trkpt>
      <trkpt lat="47.69648" lon="6.20593">
        <ele>259</ele>
        <time>2012-08-11T08:05:29.000Z</time>
      </trkpt>
      <trkpt lat="47.69646" lon="6.20595">
        <ele>259.39999389648</ele>
        <time>2012-08-11T08:05:30.000Z</time>
      </trkpt>
      <trkpt lat="47.69644" lon="6.20597">
        <ele>259.79998779297</ele>
        <time>2012-08-11T08:05:31.000Z</time>
      </trkpt>
      <trkpt lat="47.69642" lon="6.206">
        <ele>260.20001220703</ele>
        <time>2012-08-11T08:05:32.000Z</time>
      </trkpt>
      <trkpt lat="47.69633" lon="6.20616">
        <ele>260.20001220703</ele>
        <time>2012-08-11T08:05:38.000Z</time>
      </trkpt>
      <trkpt lat="47.69629" lon="6.20627">
        <ele>260.60000610352</ele>
        <time>2012-08-11T08:05:42.000Z</time>
      </trkpt>
      <trkpt lat="47.69628" lon="6.20629">
        <ele>261</ele>
        <time>2012-08-11T08:05:43.000Z</time>
      </trkpt>
      <trkpt lat="47.69626" lon="6.20632">
        <ele>261.60000610352</ele>
        <time>2012-08-11T08:05:44.000Z</time>
      </trkpt>
      <trkpt lat="47.69625" lon="6.20634">
        <ele>262</ele>
        <time>2012-08-11T08:05:45.000Z</time>
      </trkpt>
      <trkpt lat="47.69624" lon="6.20637">
        <ele>262.39999389648</ele>
        <time>2012-08-11T08:05:46.000Z</time>
      </trkpt>
      <trkpt lat="47.69616" lon="6.20652">
        <ele>263</ele>
        <time>2012-08-11T08:05:52.000Z</time>
      </trkpt>
      <trkpt lat="47.69614" lon="6.20655">
        <ele>263.39999389648</ele>
        <time>2012-08-11T08:05:53.000Z</time>
      </trkpt>
      <trkpt lat="47.69613" lon="6.20658">
        <ele>263.79998779297</ele>
        <time>2012-08-11T08:05:54.000Z</time>
      </trkpt>
      <trkpt lat="47.69612" lon="6.2066">
        <ele>264.20001220703</ele>
        <time>2012-08-11T08:05:55.000Z</time>
      </trkpt>
      <trkpt lat="47.6961" lon="6.20663">
        <ele>264.79998779297</ele>
        <time>2012-08-11T08:05:56.000Z</time>
      </trkpt>
      <trkpt lat="47.69606" lon="6.20672">
        <ele>264.79998779297</ele>
        <time>2012-08-11T08:06:00.000Z</time>
      </trkpt>
      <trkpt lat="47.69595" lon="6.20687">
        <ele>265.20001220703</ele>
        <time>2012-08-11T08:06:08.000Z</time>
      </trkpt>
      <trkpt lat="47.69594" lon="6.20689">
        <ele>265.60000610352</ele>
        <time>2012-08-11T08:06:09.000Z</time>
      </trkpt>
      <trkpt lat="47.69592" lon="6.2069">
        <ele>266</ele>
        <time>2012-08-11T08:06:10.000Z</time>
      </trkpt>
      <trkpt lat="47.6959" lon="6.20692">
        <ele>266.39999389648</ele>
        <time>2012-08-11T08:06:11.000Z</time>
      </trkpt>
      <trkpt lat="47.69589" lon="6.20694">
        <ele>266.79998779297</ele>
        <time>2012-08-11T08:06:12.000Z</time>
      </trkpt>
      <trkpt lat="47.69582" lon="6.20702">
        <ele>266.79998779297</ele>
        <time>2012-08-11T08:06:17.000Z</time>
      </trkpt>
      <trkpt lat="47.69577" lon="6.20708">
        <ele>267.20001220703</ele>
        <time>2012-08-11T08:06:21.000Z</time>
      </trkpt>
      <trkpt lat="47.69575" lon="6.20709">
        <ele>267.60000610352</ele>
        <time>2012-08-11T08:06:22.000Z</time>
      </trkpt>
      <trkpt lat="47.69574" lon="6.20711">
        <ele>268</ele>
        <time>2012-08-11T08:06:23.000Z</time>
      </trkpt>
      <trkpt lat="47.69573" lon="6.20712">
        <ele>268.39999389648</ele>
        <time>2012-08-11T08:06:24.000Z</time>
      </trkpt>
      <trkpt lat="47.69571" lon="6.20714">
        <ele>268.79998779297</ele>
        <time>2012-08-11T08:06:25.000Z</time>
      </trkpt>
      <trkpt lat="47.69564" lon="6.2072">
        <ele>268.79998779297</ele>
        <time>2012-08-11T08:06:31.000Z</time>
      </trkpt>
      <trkpt lat="47.6956" lon="6.20725">
        <ele>269.20001220703</ele>
        <time>2012-08-11T08:06:35.000Z</time>
      </trkpt>
      <trkpt lat="47.69559" lon="6.20725">
        <ele>269.79998779297</ele>
        <time>2012-08-11T08:06:36.000Z</time>
      </trkpt>
      <trkpt lat="47.69557" lon="6.20726">
        <ele>270.60000610352</ele>
        <time>2012-08-11T08:06:37.000Z</time>
      </trkpt>
      <trkpt lat="47.69556" lon="6.20728">
        <ele>271</ele>
        <time>2012-08-11T08:06:38.000Z</time>
      </trkpt>
      <trkpt lat="47.69554" lon="6.2073">
        <ele>271</ele>
        <time>2012-08-11T08:06:40.000Z</time>
      </trkpt>
      <trkpt lat="47.69545" lon="6.20738">
        <ele>271.39999389648</ele>
        <time>2012-08-11T08:06:48.000Z</time>
      </trkpt>
      <trkpt lat="47.69543" lon="6.20739">
        <ele>271.79998779297</ele>
        <time>2012-08-11T08:06:49.000Z</time>
      </trkpt>
      <trkpt lat="47.69542" lon="6.2074">
        <ele>272.20001220703</ele>
        <time>2012-08-11T08:06:50.000Z</time>
      </trkpt>
      <trkpt lat="47.69541" lon="6.2074">
        <ele>272.60000610352</ele>
        <time>2012-08-11T08:06:51.000Z</time>
      </trkpt>
      <trkpt lat="47.6954" lon="6.20741">
        <ele>273</ele>
        <time>2012-08-11T08:06:52.000Z</time>
      </trkpt>
      <trkpt lat="47.69532" lon="6.20748">
        <ele>273</ele>
        <time>2012-08-11T08:06:59.000Z</time>
      </trkpt>
      <trkpt lat="47.69526" lon="6.20753">
        <ele>273.39999389648</ele>
        <time>2012-08-11T08:07:05.000Z</time>
      </trkpt>
      <trkpt lat="47.69525" lon="6.20754">
        <ele>273.79998779297</ele>
        <time>2012-08-11T08:07:06.000Z</time>
      </trkpt>
      <trkpt lat="47.69524" lon="6.20755">
        <ele>274.20001220703</ele>
        <time>2012-08-11T08:07:07.000Z</time>
      </trkpt>
      <trkpt lat="47.69523" lon="6.20756">
        <ele>274.60000610352</ele>
        <time>2012-08-11T08:07:08.000Z</time>
      </trkpt>
      <trkpt lat="47.69522" lon="6.20757">
        <ele>275.20001220703</ele>
        <time>2012-08-11T08:07:09.000Z</time>
      </trkpt>
      <trkpt lat="47.69516" lon="6.20763">
        <ele>275.20001220703</ele>
        <time>2012-08-11T08:07:15.000Z</time>
      </trkpt>
      <trkpt lat="47.69511" lon="6.20767">
        <ele>275.60000610352</ele>
        <time>2012-08-11T08:07:20.000Z</time>
      </trkpt>
      <trkpt lat="47.6951" lon="6.20768">
        <ele>276</ele>
        <time>2012-08-11T08:07:21.000Z</time>
      </trkpt>
      <trkpt lat="47.69508" lon="6.20769">
        <ele>276.39999389648</ele>
        <time>2012-08-11T08:07:22.000Z</time>
      </trkpt>
      <trkpt lat="47.69507" lon="6.2077">
        <ele>276.79998779297</ele>
        <time>2012-08-11T08:07:23.000Z</time>
      </trkpt>
      <trkpt lat="47.69507" lon="6.20771">
        <ele>277.20001220703</ele>
        <time>2012-08-11T08:07:24.000Z</time>
      </trkpt>
      <trkpt lat="47.69504" lon="6.20774">
        <ele>277.20001220703</ele>
        <time>2012-08-11T08:07:26.000Z</time>
      </trkpt>
      <trkpt lat="47.69501" lon="6.20777">
        <ele>277.20001220703</ele>
        <time>2012-08-11T08:07:29.000Z</time>
      </trkpt>
      <trkpt lat="47.69491" lon="6.20782">
        <ele>277.20001220703</ele>
        <time>2012-08-11T08:07:37.000Z</time>
      </trkpt>
      <trkpt lat="47.69483" lon="6.20785">
        <ele>277.60000610352</ele>
        <time>2012-08-11T08:07:43.000Z</time>
      </trkpt>
      <trkpt lat="47.69481" lon="6.20786">
        <ele>278</ele>
        <time>2012-08-11T08:07:44.000Z</time>
      </trkpt>
      <trkpt lat="47.6948" lon="6.20786">
        <ele>278.39999389648</ele>
        <time>2012-08-11T08:07:45.000Z</time>
      </trkpt>
      <trkpt lat="47.69479" lon="6.20787">
        <ele>278.79998779297</ele>
        <time>2012-08-11T08:07:46.000Z</time>
      </trkpt>
      <trkpt lat="47.69478" lon="6.20788">
        <ele>279.39999389648</ele>
        <time>2012-08-11T08:07:47.000Z</time>
      </trkpt>
      <trkpt lat="47.69471" lon="6.2079">
        <ele>279.39999389648</ele>
        <time>2012-08-11T08:07:52.000Z</time>
      </trkpt>
      <trkpt lat="47.69461" lon="6.20796">
        <ele>279.39999389648</ele>
        <time>2012-08-11T08:08:00.000Z</time>
      </trkpt>
      <trkpt lat="47.69456" lon="6.20797">
        <ele>279.79998779297</ele>
        <time>2012-08-11T08:08:04.000Z</time>
      </trkpt>
      <trkpt lat="47.69455" lon="6.20798">
        <ele>280.20001220703</ele>
        <time>2012-08-11T08:08:05.000Z</time>
      </trkpt>
      <trkpt lat="47.69454" lon="6.20797">
        <ele>280.60000610352</ele>
        <time>2012-08-11T08:08:06.000Z</time>
      </trkpt>
      <trkpt lat="47.69452" lon="6.20798">
        <ele>281</ele>
        <time>2012-08-11T08:08:07.000Z</time>
      </trkpt>
      <trkpt lat="47.69451" lon="6.20798">
        <ele>281.39999389648</ele>
        <time>2012-08-11T08:08:08.000Z</time>
      </trkpt>
      <trkpt lat="47.6944" lon="6.208">
        <ele>281.39999389648</ele>
        <time>2012-08-11T08:08:16.000Z</time>
      </trkpt>
      <trkpt lat="47.69439" lon="6.20799">
        <ele>281.39999389648</ele>
        <time>2012-08-11T08:08:17.000Z</time>
      </trkpt>
      <trkpt lat="47.69432" lon="6.20802">
        <ele>281.39999389648</ele>
        <time>2012-08-11T08:08:23.000Z</time>
      </trkpt>
      <trkpt lat="47.6943" lon="6.20804">
        <ele>281.39999389648</ele>
        <time>2012-08-11T08:08:25.000Z</time>
      </trkpt>
      <trkpt lat="47.69427" lon="6.20812">
        <ele>281.39999389648</ele>
        <time>2012-08-11T08:08:29.000Z</time>
      </trkpt>
      <trkpt lat="47.69426" lon="6.20816">
        <ele>281.39999389648</ele>
        <time>2012-08-11T08:08:31.000Z</time>
      </trkpt>
      <trkpt lat="47.69425" lon="6.2082">
        <ele>281.39999389648</ele>
        <time>2012-08-11T08:08:34.000Z</time>
      </trkpt>
      <trkpt lat="47.69423" lon="6.20822">
        <ele>281.79998779297</ele>
        <time>2012-08-11T08:08:36.000Z</time>
      </trkpt>
      <trkpt lat="47.69421" lon="6.20823">
        <ele>282.39999389648</ele>
        <time>2012-08-11T08:08:37.000Z</time>
      </trkpt>
      <trkpt lat="47.6942" lon="6.20825">
        <ele>282.79998779297</ele>
        <time>2012-08-11T08:08:38.000Z</time>
      </trkpt>
      <trkpt lat="47.69419" lon="6.20826">
        <ele>283.20001220703</ele>
        <time>2012-08-11T08:08:39.000Z</time>
      </trkpt>
      <trkpt lat="47.69418" lon="6.20829">
        <ele>283.60000610352</ele>
        <time>2012-08-11T08:08:40.000Z</time>
      </trkpt>
      <trkpt lat="47.69416" lon="6.2083">
        <ele>283.60000610352</ele>
        <time>2012-08-11T08:08:41.000Z</time>
      </trkpt>
      <trkpt lat="47.69415" lon="6.20832">
        <ele>283.60000610352</ele>
        <time>2012-08-11T08:08:42.000Z</time>
      </trkpt>
      <trkpt lat="47.69407" lon="6.20844">
        <ele>283.60000610352</ele>
        <time>2012-08-11T08:08:49.000Z</time>
      </trkpt>
      <trkpt lat="47.69398" lon="6.2086">
        <ele>283.60000610352</ele>
        <time>2012-08-11T08:08:56.000Z</time>
      </trkpt>
      <trkpt lat="47.69389" lon="6.20876">
        <ele>283.60000610352</ele>
        <time>2012-08-11T08:09:02.000Z</time>
      </trkpt>
      <trkpt lat="47.69375" lon="6.20896">
        <ele>283.60000610352</ele>
        <time>2012-08-11T08:09:08.000Z</time>
      </trkpt>
      <trkpt lat="47.69369" lon="6.20904">
        <ele>283.20001220703</ele>
        <time>2012-08-11T08:09:10.000Z</time>
      </trkpt>
      <trkpt lat="47.69366" lon="6.20909">
        <ele>282.79998779297</ele>
        <time>2012-08-11T08:09:11.000Z</time>
      </trkpt>
      <trkpt lat="47.69362" lon="6.20914">
        <ele>282.20001220703</ele>
        <time>2012-08-11T08:09:12.000Z</time>
      </trkpt>
      <trkpt lat="47.69359" lon="6.20919">
        <ele>281.79998779297</ele>
        <time>2012-08-11T08:09:13.000Z</time>
      </trkpt>
      <trkpt lat="47.69356" lon="6.20925">
        <ele>281.39999389648</ele>
        <time>2012-08-11T08:09:14.000Z</time>
      </trkpt>
      <trkpt lat="47.69349" lon="6.20936">
        <ele>281.39999389648</ele>
        <time>2012-08-11T08:09:16.000Z</time>
      </trkpt>
      <trkpt lat="47.69345" lon="6.20941">
        <ele>280.79998779297</ele>
        <time>2012-08-11T08:09:17.000Z</time>
      </trkpt>
      <trkpt lat="47.69341" lon="6.20947">
        <ele>280.39999389648</ele>
        <time>2012-08-11T08:09:18.000Z</time>
      </trkpt>
      <trkpt lat="47.69337" lon="6.20953">
        <ele>279.79998779297</ele>
        <time>2012-08-11T08:09:19.000Z</time>
      </trkpt>
      <trkpt lat="47.69333" lon="6.20959">
        <ele>279.20001220703</ele>
        <time>2012-08-11T08:09:20.000Z</time>
      </trkpt>
      <trkpt lat="47.6933" lon="6.20965">
        <ele>278.79998779297</ele>
        <time>2012-08-11T08:09:21.000Z</time>
      </trkpt>
      <trkpt lat="47.69318" lon="6.20985">
        <ele>278.39999389648</ele>
        <time>2012-08-11T08:09:25.000Z</time>
      </trkpt>
      <trkpt lat="47.69315" lon="6.20988">
        <ele>277.79998779297</ele>
        <time>2012-08-11T08:09:26.000Z</time>
      </trkpt>
      <trkpt lat="47.69312" lon="6.2099">
        <ele>277.39999389648</ele>
        <time>2012-08-11T08:09:27.000Z</time>
      </trkpt>
      <trkpt lat="47.6931" lon="6.20992">
        <ele>277</ele>
        <time>2012-08-11T08:09:28.000Z</time>
      </trkpt>
      <trkpt lat="47.69307" lon="6.20994">
        <ele>276.39999389648</ele>
        <time>2012-08-11T08:09:29.000Z</time>
      </trkpt>
      <trkpt lat="47.69302" lon="6.20997">
        <ele>276.39999389648</ele>
        <time>2012-08-11T08:09:31.000Z</time>
      </trkpt>
      <trkpt lat="47.69298" lon="6.20997">
        <ele>276</ele>
        <time>2012-08-11T08:09:33.000Z</time>
      </trkpt>
      <trkpt lat="47.69297" lon="6.20998">
        <ele>275.60000610352</ele>
        <time>2012-08-11T08:09:34.000Z</time>
      </trkpt>
      <trkpt lat="47.69295" lon="6.20998">
        <ele>275.20001220703</ele>
        <time>2012-08-11T08:09:35.000Z</time>
      </trkpt>
      <trkpt lat="47.69295" lon="6.20999">
        <ele>274.79998779297</ele>
        <time>2012-08-11T08:09:36.000Z</time>
      </trkpt>
      <trkpt lat="47.69295" lon="6.20998">
        <ele>274.39999389648</ele>
        <time>2012-08-11T08:09:37.000Z</time>
      </trkpt>
      <trkpt lat="47.69295" lon="6.20998">
        <ele>274.39999389648</ele>
        <time>2012-08-11T08:09:38.000Z</time>
      </trkpt>
      <trkpt lat="47.69291" lon="6.21">
        <ele>274.39999389648</ele>
        <time>2012-08-11T08:10:44.000Z</time>
      </trkpt>
      <trkpt lat="47.69289" lon="6.21001">
        <ele>274.39999389648</ele>
        <time>2012-08-11T08:10:45.000Z</time>
      </trkpt>
      <trkpt lat="47.6928" lon="6.21006">
        <ele>274.39999389648</ele>
        <time>2012-08-11T08:10:50.000Z</time>
      </trkpt>
      <trkpt lat="47.69269" lon="6.21017">
        <ele>274.39999389648</ele>
        <time>2012-08-11T08:10:56.000Z</time>
      </trkpt>
      <trkpt lat="47.69257" lon="6.21021">
        <ele>274.39999389648</ele>
        <time>2012-08-11T08:11:02.000Z</time>
      </trkpt>
      <trkpt lat="47.69247" lon="6.21023">
        <ele>274.39999389648</ele>
        <time>2012-08-11T08:11:08.000Z</time>
      </trkpt>
      <trkpt lat="47.69234" lon="6.21026">
        <ele>274.39999389648</ele>
        <time>2012-08-11T08:11:15.000Z</time>
      </trkpt>
      <trkpt lat="47.69224" lon="6.21029">
        <ele>274.39999389648</ele>
        <time>2012-08-11T08:11:21.000Z</time>
      </trkpt>
      <trkpt lat="47.69214" lon="6.21031">
        <ele>274.39999389648</ele>
        <time>2012-08-11T08:11:27.000Z</time>
      </trkpt>
      <trkpt lat="47.69206" lon="6.21034">
        <ele>274.79998779297</ele>
        <time>2012-08-11T08:11:31.000Z</time>
      </trkpt>
      <trkpt lat="47.69204" lon="6.21034">
        <ele>275.20001220703</ele>
        <time>2012-08-11T08:11:32.000Z</time>
      </trkpt>
      <trkpt lat="47.69202" lon="6.21035">
        <ele>275.60000610352</ele>
        <time>2012-08-11T08:11:33.000Z</time>
      </trkpt>
      <trkpt lat="47.692" lon="6.21035">
        <ele>276.39999389648</ele>
        <time>2012-08-11T08:11:34.000Z</time>
      </trkpt>
      <trkpt lat="47.69191" lon="6.21042">
        <ele>276.39999389648</ele>
        <time>2012-08-11T08:11:40.000Z</time>
      </trkpt>
      <trkpt lat="47.69189" lon="6.21042">
        <ele>276.39999389648</ele>
        <time>2012-08-11T08:11:44.000Z</time>
      </trkpt>
      <trkpt lat="47.69176" lon="6.21045">
        <ele>276.39999389648</ele>
        <time>2012-08-11T08:12:00.000Z</time>
      </trkpt>
      <trkpt lat="47.69172" lon="6.21048">
        <ele>276.39999389648</ele>
        <time>2012-08-11T08:12:06.000Z</time>
      </trkpt>
      <trkpt lat="47.69166" lon="6.21051">
        <ele>276.79998779297</ele>
        <time>2012-08-11T08:12:11.000Z</time>
      </trkpt>
      <trkpt lat="47.69166" lon="6.21051">
        <ele>277.20001220703</ele>
        <time>2012-08-11T08:12:12.000Z</time>
      </trkpt>
      <trkpt lat="47.69165" lon="6.21051">
        <ele>277.60000610352</ele>
        <time>2012-08-11T08:12:13.000Z</time>
      </trkpt>
      <trkpt lat="47.69163" lon="6.2105">
        <ele>278</ele>
        <time>2012-08-11T08:12:14.000Z</time>
      </trkpt>
      <trkpt lat="47.69162" lon="6.2105">
        <ele>278.39999389648</ele>
        <time>2012-08-11T08:12:15.000Z</time>
      </trkpt>
      <trkpt lat="47.69158" lon="6.2105">
        <ele>278.39999389648</ele>
        <time>2012-08-11T08:12:19.000Z</time>
      </trkpt>
      <trkpt lat="47.69153" lon="6.21052">
        <ele>278.39999389648</ele>
        <time>2012-08-11T08:12:25.000Z</time>
      </trkpt>
      <trkpt lat="47.69147" lon="6.21057">
        <ele>278.39999389648</ele>
        <time>2012-08-11T08:12:32.000Z</time>
      </trkpt>
      <trkpt lat="47.69145" lon="6.2106">
        <ele>278.79998779297</ele>
        <time>2012-08-11T08:12:36.000Z</time>
      </trkpt>
      <trkpt lat="47.69143" lon="6.21061">
        <ele>279.20001220703</ele>
        <time>2012-08-11T08:12:37.000Z</time>
      </trkpt>
      <trkpt lat="47.69142" lon="6.21062">
        <ele>279.79998779297</ele>
        <time>2012-08-11T08:12:38.000Z</time>
      </trkpt>
      <trkpt lat="47.69141" lon="6.21062">
        <ele>280.20001220703</ele>
        <time>2012-08-11T08:12:39.000Z</time>
      </trkpt>
      <trkpt lat="47.6914" lon="6.21063">
        <ele>280.60000610352</ele>
        <time>2012-08-11T08:12:40.000Z</time>
      </trkpt>
      <trkpt lat="47.69139" lon="6.21064">
        <ele>280.60000610352</ele>
        <time>2012-08-11T08:12:41.000Z</time>
      </trkpt>
      <trkpt lat="47.69133" lon="6.21067">
        <ele>280.60000610352</ele>
        <time>2012-08-11T08:12:48.000Z</time>
      </trkpt>
      <trkpt lat="47.69132" lon="6.21068">
        <ele>280.60000610352</ele>
        <time>2012-08-11T08:12:50.000Z</time>
      </trkpt>
      <trkpt lat="47.69115" lon="6.21075">
        <ele>282.60000610352</ele>
        <time>2012-08-11T08:13:22.000Z</time>
      </trkpt>
      <trkpt lat="47.69113" lon="6.21075">
        <ele>282.60000610352</ele>
        <time>2012-08-11T08:13:24.000Z</time>
      </trkpt>
      <trkpt lat="47.69108" lon="6.21075">
        <ele>283</ele>
        <time>2012-08-11T08:13:29.000Z</time>
      </trkpt>
      <trkpt lat="47.69106" lon="6.21075">
        <ele>283.39999389648</ele>
        <time>2012-08-11T08:13:30.000Z</time>
      </trkpt>
      <trkpt lat="47.69106" lon="6.21075">
        <ele>284</ele>
        <time>2012-08-11T08:13:31.000Z</time>
      </trkpt>
      <trkpt lat="47.69105" lon="6.21076">
        <ele>284.39999389648</ele>
        <time>2012-08-11T08:13:32.000Z</time>
      </trkpt>
      <trkpt lat="47.69103" lon="6.21076">
        <ele>284.79998779297</ele>
        <time>2012-08-11T08:13:33.000Z</time>
      </trkpt>
      <trkpt lat="47.69099" lon="6.21079">
        <ele>284.79998779297</ele>
        <time>2012-08-11T08:13:37.000Z</time>
      </trkpt>
      <trkpt lat="47.69091" lon="6.21082">
        <ele>285.20001220703</ele>
        <time>2012-08-11T08:13:42.000Z</time>
      </trkpt>
      <trkpt lat="47.69089" lon="6.21082">
        <ele>285.60000610352</ele>
        <time>2012-08-11T08:13:43.000Z</time>
      </trkpt>
      <trkpt lat="47.69088" lon="6.21083">
        <ele>286</ele>
        <time>2012-08-11T08:13:44.000Z</time>
      </trkpt>
      <trkpt lat="47.69085" lon="6.21085">
        <ele>286.39999389648</ele>
        <time>2012-08-11T08:13:45.000Z</time>
      </trkpt>
      <trkpt lat="47.69084" lon="6.21085">
        <ele>287</ele>
        <time>2012-08-11T08:13:46.000Z</time>
      </trkpt>
      <trkpt lat="47.69077" lon="6.21088">
        <ele>287</ele>
        <time>2012-08-11T08:13:51.000Z</time>
      </trkpt>
      <trkpt lat="47.6907" lon="6.2109">
        <ele>287.39999389648</ele>
        <time>2012-08-11T08:13:57.000Z</time>
      </trkpt>
      <trkpt lat="47.69068" lon="6.2109">
        <ele>287.79998779297</ele>
        <time>2012-08-11T08:13:58.000Z</time>
      </trkpt>
      <trkpt lat="47.69067" lon="6.21091">
        <ele>288.20001220703</ele>
        <time>2012-08-11T08:13:59.000Z</time>
      </trkpt>
      <trkpt lat="47.69066" lon="6.21091">
        <ele>288.60000610352</ele>
        <time>2012-08-11T08:14:00.000Z</time>
      </trkpt>
      <trkpt lat="47.69064" lon="6.21091">
        <ele>289</ele>
        <time>2012-08-11T08:14:01.000Z</time>
      </trkpt>
      <trkpt lat="47.6906" lon="6.2109">
        <ele>289</ele>
        <time>2012-08-11T08:14:05.000Z</time>
      </trkpt>
      <trkpt lat="47.69054" lon="6.21088">
        <ele>289.39999389648</ele>
        <time>2012-08-11T08:14:11.000Z</time>
      </trkpt>
      <trkpt lat="47.69053" lon="6.21088">
        <ele>289.79998779297</ele>
        <time>2012-08-11T08:14:12.000Z</time>
      </trkpt>
      <trkpt lat="47.69052" lon="6.21088">
        <ele>290.20001220703</ele>
        <time>2012-08-11T08:14:13.000Z</time>
      </trkpt>
      <trkpt lat="47.6905" lon="6.21087">
        <ele>290.60000610352</ele>
        <time>2012-08-11T08:14:14.000Z</time>
      </trkpt>
      <trkpt lat="47.69049" lon="6.21087">
        <ele>291</ele>
        <time>2012-08-11T08:14:15.000Z</time>
      </trkpt>
      <trkpt lat="47.69041" lon="6.21085">
        <ele>291</ele>
        <time>2012-08-11T08:14:21.000Z</time>
      </trkpt>
      <trkpt lat="47.69037" lon="6.21087">
        <ele>291</ele>
        <time>2012-08-11T08:14:25.000Z</time>
      </trkpt>
      <trkpt lat="47.69035" lon="6.21087">
        <ele>291.39999389648</ele>
        <time>2012-08-11T08:14:26.000Z</time>
      </trkpt>
      <trkpt lat="47.69034" lon="6.21087">
        <ele>292.20001220703</ele>
        <time>2012-08-11T08:14:27.000Z</time>
      </trkpt>
      <trkpt lat="47.69033" lon="6.21088">
        <ele>292.60000610352</ele>
        <time>2012-08-11T08:14:28.000Z</time>
      </trkpt>
      <trkpt lat="47.69032" lon="6.21088">
        <ele>293</ele>
        <time>2012-08-11T08:14:29.000Z</time>
      </trkpt>
      <trkpt lat="47.69022" lon="6.21087">
        <ele>293</ele>
        <time>2012-08-11T08:14:35.000Z</time>
      </trkpt>
      <trkpt lat="47.69021" lon="6.21087">
        <ele>293.39999389648</ele>
        <time>2012-08-11T08:14:36.000Z</time>
      </trkpt>
      <trkpt lat="47.6902" lon="6.21086">
        <ele>293.79998779297</ele>
        <time>2012-08-11T08:14:37.000Z</time>
      </trkpt>
      <trkpt lat="47.6902" lon="6.21085">
        <ele>294.20001220703</ele>
        <time>2012-08-11T08:14:38.000Z</time>
      </trkpt>
      <trkpt lat="47.69019" lon="6.21085">
        <ele>294.60000610352</ele>
        <time>2012-08-11T08:14:39.000Z</time>
      </trkpt>
      <trkpt lat="47.69017" lon="6.21085">
        <ele>295</ele>
        <time>2012-08-11T08:14:40.000Z</time>
      </trkpt>
      <trkpt lat="47.69013" lon="6.21086">
        <ele>295</ele>
        <time>2012-08-11T08:14:43.000Z</time>
      </trkpt>
      <trkpt lat="47.69003" lon="6.21087">
        <ele>295.39999389648</ele>
        <time>2012-08-11T08:14:50.000Z</time>
      </trkpt>
      <trkpt lat="47.69001" lon="6.21088">
        <ele>295.79998779297</ele>
        <time>2012-08-11T08:14:51.000Z</time>
      </trkpt>
      <trkpt lat="47.69001" lon="6.21088">
        <ele>296.79998779297</ele>
        <time>2012-08-11T08:14:52.000Z</time>
      </trkpt>
      <trkpt lat="47.69" lon="6.21089">
        <ele>297.20001220703</ele>
        <time>2012-08-11T08:14:53.000Z</time>
      </trkpt>
      <trkpt lat="47.68993" lon="6.21087">
        <ele>297.20001220703</ele>
        <time>2012-08-11T08:15:00.000Z</time>
      </trkpt>
      <trkpt lat="47.68989" lon="6.21087">
        <ele>297.60000610352</ele>
        <time>2012-08-11T08:15:04.000Z</time>
      </trkpt>
      <trkpt lat="47.68988" lon="6.21087">
        <ele>298</ele>
        <time>2012-08-11T08:15:05.000Z</time>
      </trkpt>
      <trkpt lat="47.68987" lon="6.21087">
        <ele>298.39999389648</ele>
        <time>2012-08-11T08:15:06.000Z</time>
      </trkpt>
      <trkpt lat="47.68986" lon="6.21087">
        <ele>298.79998779297</ele>
        <time>2012-08-11T08:15:07.000Z</time>
      </trkpt>
      <trkpt lat="47.68985" lon="6.21087">
        <ele>299.20001220703</ele>
        <time>2012-08-11T08:15:08.000Z</time>
      </trkpt>
      <trkpt lat="47.6898" lon="6.21086">
        <ele>299.60000610352</ele>
        <time>2012-08-11T08:15:13.000Z</time>
      </trkpt>
      <trkpt lat="47.68979" lon="6.21086">
        <ele>300</ele>
        <time>2012-08-11T08:15:14.000Z</time>
      </trkpt>
      <trkpt lat="47.68978" lon="6.21086">
        <ele>300.39999389648</ele>
        <time>2012-08-11T08:15:15.000Z</time>
      </trkpt>
      <trkpt lat="47.68977" lon="6.21086">
        <ele>301.20001220703</ele>
        <time>2012-08-11T08:15:16.000Z</time>
      </trkpt>
      <trkpt lat="47.68969" lon="6.21086">
        <ele>301.20001220703</ele>
        <time>2012-08-11T08:15:21.000Z</time>
      </trkpt>
      <trkpt lat="47.68959" lon="6.21087">
        <ele>301.20001220703</ele>
        <time>2012-08-11T08:15:28.000Z</time>
      </trkpt>
      <trkpt lat="47.68957" lon="6.21088">
        <ele>301.60000610352</ele>
        <time>2012-08-11T08:15:30.000Z</time>
      </trkpt>
      <trkpt lat="47.68956" lon="6.21088">
        <ele>302</ele>
        <time>2012-08-11T08:15:31.000Z</time>
      </trkpt>
      <trkpt lat="47.68954" lon="6.21088">
        <ele>302.60000610352</ele>
        <time>2012-08-11T08:15:32.000Z</time>
      </trkpt>
      <trkpt lat="47.68953" lon="6.21087">
        <ele>303</ele>
        <time>2012-08-11T08:15:33.000Z</time>
      </trkpt>
      <trkpt lat="47.68952" lon="6.21087">
        <ele>303.39999389648</ele>
        <time>2012-08-11T08:15:34.000Z</time>
      </trkpt>
      <trkpt lat="47.6895" lon="6.21087">
        <ele>303.39999389648</ele>
        <time>2012-08-11T08:15:35.000Z</time>
      </trkpt>
      <trkpt lat="47.68945" lon="6.21087">
        <ele>303.39999389648</ele>
        <time>2012-08-11T08:15:39.000Z</time>
      </trkpt>
      <trkpt lat="47.68875" lon="6.21073">
        <ele>315.79998779297</ele>
        <time>2012-08-11T08:17:14.000Z</time>
      </trkpt>
      <trkpt lat="47.68874" lon="6.21073">
        <ele>315.79998779297</ele>
        <time>2012-08-11T08:17:15.000Z</time>
      </trkpt>
      <trkpt lat="47.68865" lon="6.21069">
        <ele>315.79998779297</ele>
        <time>2012-08-11T08:17:23.000Z</time>
      </trkpt>
      <trkpt lat="47.6886" lon="6.21068">
        <ele>316.20001220703</ele>
        <time>2012-08-11T08:17:27.000Z</time>
      </trkpt>
      <trkpt lat="47.68859" lon="6.21068">
        <ele>316.60000610352</ele>
        <time>2012-08-11T08:17:28.000Z</time>
      </trkpt>
      <trkpt lat="47.68843" lon="6.21042">
        <ele>317.79998779297</ele>
        <time>2012-08-11T08:20:27.000Z</time>
      </trkpt>
      <trkpt lat="47.68841" lon="6.21024">
        <ele>317.79998779297</ele>
        <time>2012-08-11T08:20:34.000Z</time>
      </trkpt>
      <trkpt lat="47.68842" lon="6.2102">
        <ele>318.20001220703</ele>
        <time>2012-08-11T08:20:36.000Z</time>
      </trkpt>
      <trkpt lat="47.68842" lon="6.21018">
        <ele>318.60000610352</ele>
        <time>2012-08-11T08:20:37.000Z</time>
      </trkpt>
      <trkpt lat="47.68842" lon="6.21015">
        <ele>319.39999389648</ele>
        <time>2012-08-11T08:20:38.000Z</time>
      </trkpt>
      <trkpt lat="47.68842" lon="6.21013">
        <ele>319.79998779297</ele>
        <time>2012-08-11T08:20:39.000Z</time>
      </trkpt>
      <trkpt lat="47.6884" lon="6.21005">
        <ele>319.79998779297</ele>
        <time>2012-08-11T08:20:42.000Z</time>
      </trkpt>
      <trkpt lat="47.68839" lon="6.20993">
        <ele>319.79998779297</ele>
        <time>2012-08-11T08:20:46.000Z</time>
      </trkpt>
      <trkpt lat="47.68834" lon="6.20975">
        <ele>319.79998779297</ele>
        <time>2012-08-11T08:20:52.000Z</time>
      </trkpt>
      <trkpt lat="47.68829" lon="6.20966">
        <ele>319.79998779297</ele>
        <time>2012-08-11T08:20:58.000Z</time>
      </trkpt>
      <trkpt lat="47.68825" lon="6.2096">
        <ele>320.20001220703</ele>
        <time>2012-08-11T08:21:02.000Z</time>
      </trkpt>
      <trkpt lat="47.68824" lon="6.20959">
        <ele>321</ele>
        <time>2012-08-11T08:21:03.000Z</time>
      </trkpt>
      <trkpt lat="47.68823" lon="6.20956">
        <ele>321.39999389648</ele>
        <time>2012-08-11T08:21:04.000Z</time>
      </trkpt>
      <trkpt lat="47.68821" lon="6.20955">
        <ele>321.79998779297</ele>
        <time>2012-08-11T08:21:05.000Z</time>
      </trkpt>
      <trkpt lat="47.68816" lon="6.20945">
        <ele>321.79998779297</ele>
        <time>2012-08-11T08:21:11.000Z</time>
      </trkpt>
      <trkpt lat="47.68808" lon="6.20941">
        <ele>321.79998779297</ele>
        <time>2012-08-11T08:21:16.000Z</time>
      </trkpt>
      <trkpt lat="47.68797" lon="6.20938">
        <ele>321.79998779297</ele>
        <time>2012-08-11T08:21:22.000Z</time>
      </trkpt>
      <trkpt lat="47.68788" lon="6.2093">
        <ele>321.79998779297</ele>
        <time>2012-08-11T08:21:30.000Z</time>
      </trkpt>
      <trkpt lat="47.68779" lon="6.20926">
        <ele>321.79998779297</ele>
        <time>2012-08-11T08:21:35.000Z</time>
      </trkpt>
      <trkpt lat="47.68767" lon="6.20922">
        <ele>321.79998779297</ele>
        <time>2012-08-11T08:21:41.000Z</time>
      </trkpt>
      <trkpt lat="47.68755" lon="6.20923">
        <ele>321.79998779297</ele>
        <time>2012-08-11T08:21:48.000Z</time>
      </trkpt>
      <trkpt lat="47.68752" lon="6.20922">
        <ele>322.20001220703</ele>
        <time>2012-08-11T08:21:50.000Z</time>
      </trkpt>
      <trkpt lat="47.6875" lon="6.20921">
        <ele>322.60000610352</ele>
        <time>2012-08-11T08:21:51.000Z</time>
      </trkpt>
      <trkpt lat="47.68749" lon="6.2092">
        <ele>323.39999389648</ele>
        <time>2012-08-11T08:21:52.000Z</time>
      </trkpt>
      <trkpt lat="47.68748" lon="6.20919">
        <ele>323.79998779297</ele>
        <time>2012-08-11T08:21:53.000Z</time>
      </trkpt>
      <trkpt lat="47.68746" lon="6.20918">
        <ele>323.79998779297</ele>
        <time>2012-08-11T08:21:54.000Z</time>
      </trkpt>
      <trkpt lat="47.68737" lon="6.20918">
        <ele>323.79998779297</ele>
        <time>2012-08-11T08:22:00.000Z</time>
      </trkpt>
      <trkpt lat="47.68734" lon="6.20918">
        <ele>324.20001220703</ele>
        <time>2012-08-11T08:22:01.000Z</time>
      </trkpt>
      <trkpt lat="47.68731" lon="6.20919">
        <ele>324.79998779297</ele>
        <time>2012-08-11T08:22:02.000Z</time>
      </trkpt>
      <trkpt lat="47.68729" lon="6.20919">
        <ele>325.20001220703</ele>
        <time>2012-08-11T08:22:03.000Z</time>
      </trkpt>
      <trkpt lat="47.68726" lon="6.20919">
        <ele>325.60000610352</ele>
        <time>2012-08-11T08:22:04.000Z</time>
      </trkpt>
      <trkpt lat="47.68724" lon="6.20918">
        <ele>326</ele>
        <time>2012-08-11T08:22:05.000Z</time>
      </trkpt>
      <trkpt lat="47.68722" lon="6.20918">
        <ele>326</ele>
        <time>2012-08-11T08:22:07.000Z</time>
      </trkpt>
      <trkpt lat="47.68708" lon="6.20918">
        <ele>326</ele>
        <time>2012-08-11T08:22:13.000Z</time>
      </trkpt>
      <trkpt lat="47.68701" lon="6.20917">
        <ele>326.39999389648</ele>
        <time>2012-08-11T08:22:16.000Z</time>
      </trkpt>
      <trkpt lat="47.68699" lon="6.20916">
        <ele>327.20001220703</ele>
        <time>2012-08-11T08:22:17.000Z</time>
      </trkpt>
      <trkpt lat="47.68697" lon="6.20916">
        <ele>327.79998779297</ele>
        <time>2012-08-11T08:22:18.000Z</time>
      </trkpt>
      <trkpt lat="47.68696" lon="6.20916">
        <ele>328.20001220703</ele>
        <time>2012-08-11T08:22:19.000Z</time>
      </trkpt>
      <trkpt lat="47.68684" lon="6.20913">
        <ele>328.20001220703</ele>
        <time>2012-08-11T08:22:26.000Z</time>
      </trkpt>
      <trkpt lat="47.68681" lon="6.20911">
        <ele>328.20001220703</ele>
        <time>2012-08-11T08:22:29.000Z</time>
      </trkpt>
      <trkpt lat="47.68676" lon="6.20907">
        <ele>328.20001220703</ele>
        <time>2012-08-11T08:22:33.000Z</time>
      </trkpt>
      <trkpt lat="47.68665" lon="6.209">
        <ele>328.60000610352</ele>
        <time>2012-08-11T08:22:39.000Z</time>
      </trkpt>
      <trkpt lat="47.68663" lon="6.20898">
        <ele>329</ele>
        <time>2012-08-11T08:22:40.000Z</time>
      </trkpt>
      <trkpt lat="47.68662" lon="6.20897">
        <ele>329.79998779297</ele>
        <time>2012-08-11T08:22:41.000Z</time>
      </trkpt>
      <trkpt lat="47.68661" lon="6.20896">
        <ele>330.20001220703</ele>
        <time>2012-08-11T08:22:42.000Z</time>
      </trkpt>
      <trkpt lat="47.68658" lon="6.20893">
        <ele>330.20001220703</ele>
        <time>2012-08-11T08:22:45.000Z</time>
      </trkpt>
      <trkpt lat="47.68649" lon="6.20886">
        <ele>330.20001220703</ele>
        <time>2012-08-11T08:22:51.000Z</time>
      </trkpt>
      <trkpt lat="47.68638" lon="6.20864">
        <ele>330.20001220703</ele>
        <time>2012-08-11T08:22:58.000Z</time>
      </trkpt>
      <trkpt lat="47.68631" lon="6.2085">
        <ele>330.20001220703</ele>
        <time>2012-08-11T08:23:03.000Z</time>
      </trkpt>
      <trkpt lat="47.68629" lon="6.20845">
        <ele>330.20001220703</ele>
        <time>2012-08-11T08:23:04.000Z</time>
      </trkpt>
      <trkpt lat="47.68617" lon="6.20818">
        <ele>330.20001220703</ele>
        <time>2012-08-11T08:23:10.000Z</time>
      </trkpt>
      <trkpt lat="47.68609" lon="6.20801">
        <ele>330.20001220703</ele>
        <time>2012-08-11T08:23:15.000Z</time>
      </trkpt>
      <trkpt lat="47.68603" lon="6.20787">
        <ele>330.20001220703</ele>
        <time>2012-08-11T08:23:20.000Z</time>
      </trkpt>
      <trkpt lat="47.68599" lon="6.20779">
        <ele>330.20001220703</ele>
        <time>2012-08-11T08:23:23.000Z</time>
      </trkpt>
      <trkpt lat="47.68597" lon="6.20773">
        <ele>330.20001220703</ele>
        <time>2012-08-11T08:23:25.000Z</time>
      </trkpt>
      <trkpt lat="47.68589" lon="6.20758">
        <ele>330.20001220703</ele>
        <time>2012-08-11T08:23:30.000Z</time>
      </trkpt>
      <trkpt lat="47.68582" lon="6.20746">
        <ele>330.20001220703</ele>
        <time>2012-08-11T08:23:35.000Z</time>
      </trkpt>
      <trkpt lat="47.68573" lon="6.20732">
        <ele>330.20001220703</ele>
        <time>2012-08-11T08:23:41.000Z</time>
      </trkpt>
      <trkpt lat="47.68561" lon="6.20714">
        <ele>330.20001220703</ele>
        <time>2012-08-11T08:23:47.000Z</time>
      </trkpt>
      <trkpt lat="47.68551" lon="6.20692">
        <ele>329.79998779297</ele>
        <time>2012-08-11T08:23:52.000Z</time>
      </trkpt>
      <trkpt lat="47.68548" lon="6.20688">
        <ele>329.39999389648</ele>
        <time>2012-08-11T08:23:53.000Z</time>
      </trkpt>
      <trkpt lat="47.68544" lon="6.20683">
        <ele>329</ele>
        <time>2012-08-11T08:23:54.000Z</time>
      </trkpt>
      <trkpt lat="47.68541" lon="6.20678">
        <ele>328.20001220703</ele>
        <time>2012-08-11T08:23:55.000Z</time>
      </trkpt>
      <trkpt lat="47.68535" lon="6.20669">
        <ele>328.20001220703</ele>
        <time>2012-08-11T08:23:57.000Z</time>
      </trkpt>
      <trkpt lat="47.68529" lon="6.2066">
        <ele>328.20001220703</ele>
        <time>2012-08-11T08:23:59.000Z</time>
      </trkpt>
      <trkpt lat="47.6851" lon="6.20635">
        <ele>328.20001220703</ele>
        <time>2012-08-11T08:24:05.000Z</time>
      </trkpt>
      <trkpt lat="47.68493" lon="6.20608">
        <ele>328.20001220703</ele>
        <time>2012-08-11T08:24:11.000Z</time>
      </trkpt>
      <trkpt lat="47.68477" lon="6.20586">
        <ele>327.60000610352</ele>
        <time>2012-08-11T08:24:17.000Z</time>
      </trkpt>
      <trkpt lat="47.68474" lon="6.20581">
        <ele>327.20001220703</ele>
        <time>2012-08-11T08:24:18.000Z</time>
      </trkpt>
      <trkpt lat="47.6847" lon="6.20577">
        <ele>326.79998779297</ele>
        <time>2012-08-11T08:24:19.000Z</time>
      </trkpt>
      <trkpt lat="47.68466" lon="6.20573">
        <ele>326</ele>
        <time>2012-08-11T08:24:20.000Z</time>
      </trkpt>
      <trkpt lat="47.6845" lon="6.2056">
        <ele>326</ele>
        <time>2012-08-11T08:24:24.000Z</time>
      </trkpt>
      <trkpt lat="47.68429" lon="6.20542">
        <ele>326</ele>
        <time>2012-08-11T08:24:30.000Z</time>
      </trkpt>
      <trkpt lat="47.68409" lon="6.20528">
        <ele>326</ele>
        <time>2012-08-11T08:24:36.000Z</time>
      </trkpt>
      <trkpt lat="47.68389" lon="6.20517">
        <ele>326</ele>
        <time>2012-08-11T08:24:43.000Z</time>
      </trkpt>
      <trkpt lat="47.68371" lon="6.20506">
        <ele>326</ele>
        <time>2012-08-11T08:24:50.000Z</time>
      </trkpt>
      <trkpt lat="47.68354" lon="6.20497">
        <ele>326</ele>
        <time>2012-08-11T08:24:56.000Z</time>
      </trkpt>
      <trkpt lat="47.68336" lon="6.2049">
        <ele>326</ele>
        <time>2012-08-11T08:25:03.000Z</time>
      </trkpt>
      <trkpt lat="47.68321" lon="6.20481">
        <ele>326</ele>
        <time>2012-08-11T08:25:09.000Z</time>
      </trkpt>
      <trkpt lat="47.68308" lon="6.20473">
        <ele>326.39999389648</ele>
        <time>2012-08-11T08:25:14.000Z</time>
      </trkpt>
      <trkpt lat="47.68306" lon="6.2047">
        <ele>326.79998779297</ele>
        <time>2012-08-11T08:25:15.000Z</time>
      </trkpt>
      <trkpt lat="47.68303" lon="6.20467">
        <ele>327.20001220703</ele>
        <time>2012-08-11T08:25:16.000Z</time>
      </trkpt>
      <trkpt lat="47.68301" lon="6.20465">
        <ele>327.60000610352</ele>
        <time>2012-08-11T08:25:17.000Z</time>
      </trkpt>
      <trkpt lat="47.68299" lon="6.20463">
        <ele>328</ele>
        <time>2012-08-11T08:25:18.000Z</time>
      </trkpt>
      <trkpt lat="47.6829" lon="6.20457">
        <ele>328</ele>
        <time>2012-08-11T08:25:23.000Z</time>
      </trkpt>
      <trkpt lat="47.68276" lon="6.20446">
        <ele>328</ele>
        <time>2012-08-11T08:25:29.000Z</time>
      </trkpt>
      <trkpt lat="47.68256" lon="6.20431">
        <ele>328</ele>
        <time>2012-08-11T08:25:36.000Z</time>
      </trkpt>
      <trkpt lat="47.68231" lon="6.2041">
        <ele>328</ele>
        <time>2012-08-11T08:25:44.000Z</time>
      </trkpt>
      <trkpt lat="47.68209" lon="6.20392">
        <ele>328</ele>
        <time>2012-08-11T08:25:52.000Z</time>
      </trkpt>
      <trkpt lat="47.68196" lon="6.20384">
        <ele>328.39999389648</ele>
        <time>2012-08-11T08:25:57.000Z</time>
      </trkpt>
      <trkpt lat="47.68194" lon="6.20382">
        <ele>328.79998779297</ele>
        <time>2012-08-11T08:25:58.000Z</time>
      </trkpt>
      <trkpt lat="47.68191" lon="6.20381">
        <ele>329.60000610352</ele>
        <time>2012-08-11T08:25:59.000Z</time>
      </trkpt>
      <trkpt lat="47.68188" lon="6.2038">
        <ele>330.20001220703</ele>
        <time>2012-08-11T08:26:00.000Z</time>
      </trkpt>
      <trkpt lat="47.68167" lon="6.20371">
        <ele>330.20001220703</ele>
        <time>2012-08-11T08:26:07.000Z</time>
      </trkpt>
      <trkpt lat="47.68162" lon="6.2037">
        <ele>330.60000610352</ele>
        <time>2012-08-11T08:26:09.000Z</time>
      </trkpt>
      <trkpt lat="47.6816" lon="6.20369">
        <ele>331</ele>
        <time>2012-08-11T08:26:10.000Z</time>
      </trkpt>
      <trkpt lat="47.68157" lon="6.20369">
        <ele>331.39999389648</ele>
        <time>2012-08-11T08:26:11.000Z</time>
      </trkpt>
      <trkpt lat="47.68155" lon="6.20368">
        <ele>331.79998779297</ele>
        <time>2012-08-11T08:26:12.000Z</time>
      </trkpt>
      <trkpt lat="47.68152" lon="6.20367">
        <ele>332.20001220703</ele>
        <time>2012-08-11T08:26:13.000Z</time>
      </trkpt>
      <trkpt lat="47.68137" lon="6.2036">
        <ele>332.60000610352</ele>
        <time>2012-08-11T08:26:19.000Z</time>
      </trkpt>
      <trkpt lat="47.68134" lon="6.20359">
        <ele>333</ele>
        <time>2012-08-11T08:26:20.000Z</time>
      </trkpt>
      <trkpt lat="47.68131" lon="6.20358">
        <ele>333.39999389648</ele>
        <time>2012-08-11T08:26:21.000Z</time>
      </trkpt>
      <trkpt lat="47.68129" lon="6.20357">
        <ele>333.79998779297</ele>
        <time>2012-08-11T08:26:22.000Z</time>
      </trkpt>
      <trkpt lat="47.68126" lon="6.20356">
        <ele>334.20001220703</ele>
        <time>2012-08-11T08:26:23.000Z</time>
      </trkpt>
      <trkpt lat="47.68121" lon="6.20354">
        <ele>334.20001220703</ele>
        <time>2012-08-11T08:26:25.000Z</time>
      </trkpt>
      <trkpt lat="47.68102" lon="6.20347">
        <ele>334.20001220703</ele>
        <time>2012-08-11T08:26:31.000Z</time>
      </trkpt>
      <trkpt lat="47.68084" lon="6.2034">
        <ele>334.20001220703</ele>
        <time>2012-08-11T08:26:36.000Z</time>
      </trkpt>
      <trkpt lat="47.68067" lon="6.20334">
        <ele>334.20001220703</ele>
        <time>2012-08-11T08:26:41.000Z</time>
      </trkpt>
      <trkpt lat="47.68048" lon="6.20326">
        <ele>334.20001220703</ele>
        <time>2012-08-11T08:26:47.000Z</time>
      </trkpt>
      <trkpt lat="47.6803" lon="6.20318">
        <ele>334.20001220703</ele>
        <time>2012-08-11T08:26:53.000Z</time>
      </trkpt>
      <trkpt lat="47.68008" lon="6.20308">
        <ele>334.20001220703</ele>
        <time>2012-08-11T08:27:01.000Z</time>
      </trkpt>
      <trkpt lat="47.67984" lon="6.20299">
        <ele>334.20001220703</ele>
        <time>2012-08-11T08:27:09.000Z</time>
      </trkpt>
      <trkpt lat="47.67959" lon="6.20292">
        <ele>334.20001220703</ele>
        <time>2012-08-11T08:27:16.000Z</time>
      </trkpt>
      <trkpt lat="47.67941" lon="6.20279">
        <ele>334.20001220703</ele>
        <time>2012-08-11T08:27:20.000Z</time>
      </trkpt>
      <trkpt lat="47.67936" lon="6.20276">
        <ele>334.20001220703</ele>
        <time>2012-08-11T08:27:21.000Z</time>
      </trkpt>
      <trkpt lat="47.67909" lon="6.20252">
        <ele>333.79998779297</ele>
        <time>2012-08-11T08:27:26.000Z</time>
      </trkpt>
      <trkpt lat="47.67903" lon="6.20247">
        <ele>333.39999389648</ele>
        <time>2012-08-11T08:27:27.000Z</time>
      </trkpt>
      <trkpt lat="47.67897" lon="6.20241">
        <ele>333</ele>
        <time>2012-08-11T08:27:28.000Z</time>
      </trkpt>
      <trkpt lat="47.6789" lon="6.20235">
        <ele>332.60000610352</ele>
        <time>2012-08-11T08:27:29.000Z</time>
      </trkpt>
      <trkpt lat="47.67884" lon="6.2023">
        <ele>332</ele>
        <time>2012-08-11T08:27:30.000Z</time>
      </trkpt>
      <trkpt lat="47.67878" lon="6.20224">
        <ele>331.60000610352</ele>
        <time>2012-08-11T08:27:31.000Z</time>
      </trkpt>
      <trkpt lat="47.67871" lon="6.20218">
        <ele>331.20001220703</ele>
        <time>2012-08-11T08:27:32.000Z</time>
      </trkpt>
      <trkpt lat="47.67865" lon="6.20212">
        <ele>330.60000610352</ele>
        <time>2012-08-11T08:27:33.000Z</time>
      </trkpt>
      <trkpt lat="47.67858" lon="6.20206">
        <ele>330.20001220703</ele>
        <time>2012-08-11T08:27:34.000Z</time>
      </trkpt>
      <trkpt lat="47.6784" lon="6.20192">
        <ele>330.20001220703</ele>
        <time>2012-08-11T08:27:37.000Z</time>
      </trkpt>
      <trkpt lat="47.67834" lon="6.20191">
        <ele>329.20001220703</ele>
        <time>2012-08-11T08:27:38.000Z</time>
      </trkpt>
      <trkpt lat="47.67829" lon="6.20192">
        <ele>328.79998779297</ele>
        <time>2012-08-11T08:27:39.000Z</time>
      </trkpt>
      <trkpt lat="47.67823" lon="6.20196">
        <ele>328.39999389648</ele>
        <time>2012-08-11T08:27:40.000Z</time>
      </trkpt>
      <trkpt lat="47.67818" lon="6.202">
        <ele>328</ele>
        <time>2012-08-11T08:27:41.000Z</time>
      </trkpt>
      <trkpt lat="47.67811" lon="6.20209">
        <ele>327.60000610352</ele>
        <time>2012-08-11T08:27:43.000Z</time>
      </trkpt>
      <trkpt lat="47.67807" lon="6.20214">
        <ele>327.20001220703</ele>
        <time>2012-08-11T08:27:44.000Z</time>
      </trkpt>
      <trkpt lat="47.67803" lon="6.20219">
        <ele>326.79998779297</ele>
        <time>2012-08-11T08:27:45.000Z</time>
      </trkpt>
      <trkpt lat="47.67799" lon="6.20224">
        <ele>326.20001220703</ele>
        <time>2012-08-11T08:27:46.000Z</time>
      </trkpt>
      <trkpt lat="47.67795" lon="6.20228">
        <ele>325.79998779297</ele>
        <time>2012-08-11T08:27:47.000Z</time>
      </trkpt>
      <trkpt lat="47.67778" lon="6.20236">
        <ele>325.79998779297</ele>
        <time>2012-08-11T08:27:50.000Z</time>
      </trkpt>
      <trkpt lat="47.67772" lon="6.20238">
        <ele>325.39999389648</ele>
        <time>2012-08-11T08:27:51.000Z</time>
      </trkpt>
      <trkpt lat="47.67765" lon="6.20239">
        <ele>325</ele>
        <time>2012-08-11T08:27:52.000Z</time>
      </trkpt>
      <trkpt lat="47.67758" lon="6.20241">
        <ele>324.60000610352</ele>
        <time>2012-08-11T08:27:53.000Z</time>
      </trkpt>
      <trkpt lat="47.67752" lon="6.20242">
        <ele>324.20001220703</ele>
        <time>2012-08-11T08:27:54.000Z</time>
      </trkpt>
      <trkpt lat="47.67746" lon="6.20244">
        <ele>323.60000610352</ele>
        <time>2012-08-11T08:27:55.000Z</time>
      </trkpt>
      <trkpt lat="47.67741" lon="6.20246">
        <ele>323.20001220703</ele>
        <time>2012-08-11T08:27:56.000Z</time>
      </trkpt>
      <trkpt lat="47.67735" lon="6.20247">
        <ele>322.60000610352</ele>
        <time>2012-08-11T08:27:57.000Z</time>
      </trkpt>
      <trkpt lat="47.6773" lon="6.20247">
        <ele>322.20001220703</ele>
        <time>2012-08-11T08:27:58.000Z</time>
      </trkpt>
      <trkpt lat="47.67725" lon="6.20247">
        <ele>321.60000610352</ele>
        <time>2012-08-11T08:27:59.000Z</time>
      </trkpt>
      <trkpt lat="47.67721" lon="6.20246">
        <ele>321</ele>
        <time>2012-08-11T08:28:00.000Z</time>
      </trkpt>
      <trkpt lat="47.67714" lon="6.20244">
        <ele>320.60000610352</ele>
        <time>2012-08-11T08:28:02.000Z</time>
      </trkpt>
      <trkpt lat="47.6771" lon="6.20243">
        <ele>319.79998779297</ele>
        <time>2012-08-11T08:28:03.000Z</time>
      </trkpt>
      <trkpt lat="47.67707" lon="6.20242">
        <ele>319.20001220703</ele>
        <time>2012-08-11T08:28:04.000Z</time>
      </trkpt>
      <trkpt lat="47.67704" lon="6.2024">
        <ele>318.79998779297</ele>
        <time>2012-08-11T08:28:05.000Z</time>
      </trkpt>
      <trkpt lat="47.67685" lon="6.20228">
        <ele>318.79998779297</ele>
        <time>2012-08-11T08:28:11.000Z</time>
      </trkpt>
      <trkpt lat="47.67665" lon="6.20218">
        <ele>318.39999389648</ele>
        <time>2012-08-11T08:28:16.000Z</time>
      </trkpt>
      <trkpt lat="47.6766" lon="6.20217">
        <ele>318</ele>
        <time>2012-08-11T08:28:17.000Z</time>
      </trkpt>
      <trkpt lat="47.67654" lon="6.20214">
        <ele>317.60000610352</ele>
        <time>2012-08-11T08:28:18.000Z</time>
      </trkpt>
      <trkpt lat="47.67649" lon="6.20211">
        <ele>317.20001220703</ele>
        <time>2012-08-11T08:28:19.000Z</time>
      </trkpt>
      <trkpt lat="47.67643" lon="6.20208">
        <ele>316.79998779297</ele>
        <time>2012-08-11T08:28:20.000Z</time>
      </trkpt>
      <trkpt lat="47.67634" lon="6.20201">
        <ele>316.79998779297</ele>
        <time>2012-08-11T08:28:22.000Z</time>
      </trkpt>
      <trkpt lat="47.67605" lon="6.20183">
        <ele>316.79998779297</ele>
        <time>2012-08-11T08:28:28.000Z</time>
      </trkpt>
      <trkpt lat="47.67575" lon="6.20175">
        <ele>316.39999389648</ele>
        <time>2012-08-11T08:28:34.000Z</time>
      </trkpt>
      <trkpt lat="47.6757" lon="6.20174">
        <ele>316</ele>
        <time>2012-08-11T08:28:35.000Z</time>
      </trkpt>
      <trkpt lat="47.67564" lon="6.20173">
        <ele>315.60000610352</ele>
        <time>2012-08-11T08:28:36.000Z</time>
      </trkpt>
      <trkpt lat="47.67559" lon="6.20171">
        <ele>315.20001220703</ele>
        <time>2012-08-11T08:28:37.000Z</time>
      </trkpt>
      <trkpt lat="47.67553" lon="6.20171">
        <ele>314.79998779297</ele>
        <time>2012-08-11T08:28:38.000Z</time>
      </trkpt>
      <trkpt lat="47.67547" lon="6.2017">
        <ele>314.79998779297</ele>
        <time>2012-08-11T08:28:39.000Z</time>
      </trkpt>
      <trkpt lat="47.67515" lon="6.20167">
        <ele>314.39999389648</ele>
        <time>2012-08-11T08:28:45.000Z</time>
      </trkpt>
      <trkpt lat="47.6751" lon="6.20167">
        <ele>314</ele>
        <time>2012-08-11T08:28:46.000Z</time>
      </trkpt>
      <trkpt lat="47.67505" lon="6.20166">
        <ele>313.60000610352</ele>
        <time>2012-08-11T08:28:47.000Z</time>
      </trkpt>
      <trkpt lat="47.675" lon="6.20165">
        <ele>313.20001220703</ele>
        <time>2012-08-11T08:28:48.000Z</time>
      </trkpt>
      <trkpt lat="47.67494" lon="6.20164">
        <ele>312.79998779297</ele>
        <time>2012-08-11T08:28:49.000Z</time>
      </trkpt>
      <trkpt lat="47.67479" lon="6.20162">
        <ele>312.79998779297</ele>
        <time>2012-08-11T08:28:52.000Z</time>
      </trkpt>
      <trkpt lat="47.67464" lon="6.20158">
        <ele>312.79998779297</ele>
        <time>2012-08-11T08:28:55.000Z</time>
      </trkpt>
      <trkpt lat="47.67455" lon="6.20158">
        <ele>312.79998779297</ele>
        <time>2012-08-11T08:28:57.000Z</time>
      </trkpt>
      <trkpt lat="47.67438" lon="6.20154">
        <ele>312.39999389648</ele>
        <time>2012-08-11T08:29:02.000Z</time>
      </trkpt>
      <trkpt lat="47.67434" lon="6.20154">
        <ele>312</ele>
        <time>2012-08-11T08:29:03.000Z</time>
      </trkpt>
      <trkpt lat="47.67431" lon="6.20154">
        <ele>311.60000610352</ele>
        <time>2012-08-11T08:29:04.000Z</time>
      </trkpt>
      <trkpt lat="47.67428" lon="6.20155">
        <ele>311.20001220703</ele>
        <time>2012-08-11T08:29:05.000Z</time>
      </trkpt>
      <trkpt lat="47.67427" lon="6.20155">
        <ele>310.79998779297</ele>
        <time>2012-08-11T08:29:06.000Z</time>
      </trkpt>
      <trkpt lat="47.67427" lon="6.20155">
        <ele>310.79998779297</ele>
        <time>2012-08-11T08:29:07.000Z</time>
      </trkpt>
      <trkpt lat="47.67427" lon="6.20155">
        <ele>310.79998779297</ele>
        <time>2012-08-11T08:29:08.000Z</time>
      </trkpt>
      <trkpt lat="47.67425" lon="6.20156">
        <ele>310.79998779297</ele>
        <time>2012-08-11T08:29:20.000Z</time>
      </trkpt>
      <trkpt lat="47.67421" lon="6.20157">
        <ele>310.79998779297</ele>
        <time>2012-08-11T08:29:22.000Z</time>
      </trkpt>
      <trkpt lat="47.67413" lon="6.20158">
        <ele>310.79998779297</ele>
        <time>2012-08-11T08:29:25.000Z</time>
      </trkpt>
      <trkpt lat="47.67395" lon="6.20163">
        <ele>310.79998779297</ele>
        <time>2012-08-11T08:29:31.000Z</time>
      </trkpt>
      <trkpt lat="47.67376" lon="6.20173">
        <ele>310.79998779297</ele>
        <time>2012-08-11T08:29:38.000Z</time>
      </trkpt>
      <trkpt lat="47.67355" lon="6.20186">
        <ele>310.79998779297</ele>
        <time>2012-08-11T08:29:45.000Z</time>
      </trkpt>
      <trkpt lat="47.67337" lon="6.20198">
        <ele>310.39999389648</ele>
        <time>2012-08-11T08:29:51.000Z</time>
      </trkpt>
      <trkpt lat="47.67334" lon="6.20201">
        <ele>310</ele>
        <time>2012-08-11T08:29:52.000Z</time>
      </trkpt>
      <trkpt lat="47.67332" lon="6.20203">
        <ele>309.60000610352</ele>
        <time>2012-08-11T08:29:53.000Z</time>
      </trkpt>
      <trkpt lat="47.67329" lon="6.20206">
        <ele>309.20001220703</ele>
        <time>2012-08-11T08:29:54.000Z</time>
      </trkpt>
      <trkpt lat="47.67326" lon="6.20208">
        <ele>308.79998779297</ele>
        <time>2012-08-11T08:29:55.000Z</time>
      </trkpt>
      <trkpt lat="47.67314" lon="6.2022">
        <ele>308.79998779297</ele>
        <time>2012-08-11T08:29:59.000Z</time>
      </trkpt>
      <trkpt lat="47.67289" lon="6.20248">
        <ele>308.79998779297</ele>
        <time>2012-08-11T08:30:07.000Z</time>
      </trkpt>
      <trkpt lat="47.67281" lon="6.20255">
        <ele>308.79998779297</ele>
        <time>2012-08-11T08:30:09.000Z</time>
      </trkpt>
      <trkpt lat="47.67268" lon="6.20265">
        <ele>308.79998779297</ele>
        <time>2012-08-11T08:30:13.000Z</time>
      </trkpt>
      <trkpt lat="47.6724" lon="6.2028">
        <ele>308.79998779297</ele>
        <time>2012-08-11T08:30:21.000Z</time>
      </trkpt>
      <trkpt lat="47.67228" lon="6.2029">
        <ele>308.20001220703</ele>
        <time>2012-08-11T08:30:25.000Z</time>
      </trkpt>
      <trkpt lat="47.67225" lon="6.20293">
        <ele>307.60000610352</ele>
        <time>2012-08-11T08:30:26.000Z</time>
      </trkpt>
      <trkpt lat="47.67223" lon="6.20296">
        <ele>307</ele>
        <time>2012-08-11T08:30:27.000Z</time>
      </trkpt>
      <trkpt lat="47.67221" lon="6.203">
        <ele>306.60000610352</ele>
        <time>2012-08-11T08:30:28.000Z</time>
      </trkpt>
      <trkpt lat="47.67218" lon="6.20303">
        <ele>306</ele>
        <time>2012-08-11T08:30:29.000Z</time>
      </trkpt>
      <trkpt lat="47.67206" lon="6.20311">
        <ele>306</ele>
        <time>2012-08-11T08:30:33.000Z</time>
      </trkpt>
      <trkpt lat="47.67195" lon="6.20304">
        <ele>306</ele>
        <time>2012-08-11T08:30:37.000Z</time>
      </trkpt>
      <trkpt lat="47.67178" lon="6.20288">
        <ele>306</ele>
        <time>2012-08-11T08:30:43.000Z</time>
      </trkpt>
      <trkpt lat="47.67154" lon="6.20265">
        <ele>306</ele>
        <time>2012-08-11T08:30:51.000Z</time>
      </trkpt>
      <trkpt lat="47.67126" lon="6.20234">
        <ele>306</ele>
        <time>2012-08-11T08:31:01.000Z</time>
      </trkpt>
      <trkpt lat="47.67107" lon="6.20216">
        <ele>306</ele>
        <time>2012-08-11T08:31:07.000Z</time>
      </trkpt>
      <trkpt lat="47.67104" lon="6.20214">
        <ele>306.39999389648</ele>
        <time>2012-08-11T08:31:08.000Z</time>
      </trkpt>
      <trkpt lat="47.67101" lon="6.20211">
        <ele>306.79998779297</ele>
        <time>2012-08-11T08:31:09.000Z</time>
      </trkpt>
      <trkpt lat="47.67098" lon="6.20208">
        <ele>307.20001220703</ele>
        <time>2012-08-11T08:31:10.000Z</time>
      </trkpt>
      <trkpt lat="47.67096" lon="6.20205">
        <ele>307.60000610352</ele>
        <time>2012-08-11T08:31:11.000Z</time>
      </trkpt>
      <trkpt lat="47.67092" lon="6.20203">
        <ele>308</ele>
        <time>2012-08-11T08:31:12.000Z</time>
      </trkpt>
      <trkpt lat="47.67089" lon="6.202">
        <ele>308</ele>
        <time>2012-08-11T08:31:13.000Z</time>
      </trkpt>
      <trkpt lat="47.67072" lon="6.20182">
        <ele>308</ele>
        <time>2012-08-11T08:31:19.000Z</time>
      </trkpt>
      <trkpt lat="47.67051" lon="6.20161">
        <ele>308</ele>
        <time>2012-08-11T08:31:26.000Z</time>
      </trkpt>
      <trkpt lat="47.67036" lon="6.2014">
        <ele>308</ele>
        <time>2012-08-11T08:31:32.000Z</time>
      </trkpt>
      <trkpt lat="47.67017" lon="6.20115">
        <ele>308</ele>
        <time>2012-08-11T08:31:40.000Z</time>
      </trkpt>
      <trkpt lat="47.6701" lon="6.20105">
        <ele>308</ele>
        <time>2012-08-11T08:31:44.000Z</time>
      </trkpt>
      <trkpt lat="47.67009" lon="6.20102">
        <ele>308</ele>
        <time>2012-08-11T08:31:45.000Z</time>
      </trkpt>
      <trkpt lat="47.67005" lon="6.20097">
        <ele>308.39999389648</ele>
        <time>2012-08-11T08:31:47.000Z</time>
      </trkpt>
      <trkpt lat="47.67004" lon="6.20095">
        <ele>309</ele>
        <time>2012-08-11T08:31:48.000Z</time>
      </trkpt>
      <trkpt lat="47.67002" lon="6.20093">
        <ele>309.39999389648</ele>
        <time>2012-08-11T08:31:49.000Z</time>
      </trkpt>
      <trkpt lat="47.67001" lon="6.20091">
        <ele>309.79998779297</ele>
        <time>2012-08-11T08:31:50.000Z</time>
      </trkpt>
      <trkpt lat="47.66999" lon="6.20089">
        <ele>310.20001220703</ele>
        <time>2012-08-11T08:31:51.000Z</time>
      </trkpt>
      <trkpt lat="47.66984" lon="6.20074">
        <ele>310.20001220703</ele>
        <time>2012-08-11T08:31:57.000Z</time>
      </trkpt>
      <trkpt lat="47.66968" lon="6.20054">
        <ele>310.20001220703</ele>
        <time>2012-08-11T08:32:04.000Z</time>
      </trkpt>
      <trkpt lat="47.66945" lon="6.20036">
        <ele>310.20001220703</ele>
        <time>2012-08-11T08:32:12.000Z</time>
      </trkpt>
      <trkpt lat="47.66943" lon="6.20035">
        <ele>310.60000610352</ele>
        <time>2012-08-11T08:32:13.000Z</time>
      </trkpt>
      <trkpt lat="47.66939" lon="6.20034">
        <ele>311</ele>
        <time>2012-08-11T08:32:14.000Z</time>
      </trkpt>
      <trkpt lat="47.66936" lon="6.20032">
        <ele>311.39999389648</ele>
        <time>2012-08-11T08:32:15.000Z</time>
      </trkpt>
      <trkpt lat="47.66934" lon="6.2003">
        <ele>311.79998779297</ele>
        <time>2012-08-11T08:32:16.000Z</time>
      </trkpt>
      <trkpt lat="47.66931" lon="6.20027">
        <ele>312.39999389648</ele>
        <time>2012-08-11T08:32:17.000Z</time>
      </trkpt>
      <trkpt lat="47.66928" lon="6.20025">
        <ele>312.39999389648</ele>
        <time>2012-08-11T08:32:18.000Z</time>
      </trkpt>
      <trkpt lat="47.66915" lon="6.20009">
        <ele>312.39999389648</ele>
        <time>2012-08-11T08:32:24.000Z</time>
      </trkpt>
      <trkpt lat="47.66904" lon="6.19995">
        <ele>312.39999389648</ele>
        <time>2012-08-11T08:32:30.000Z</time>
      </trkpt>
      <trkpt lat="47.66893" lon="6.19984">
        <ele>312.39999389648</ele>
        <time>2012-08-11T08:32:37.000Z</time>
      </trkpt>
      <trkpt lat="47.6688" lon="6.19972">
        <ele>312.39999389648</ele>
        <time>2012-08-11T08:32:43.000Z</time>
      </trkpt>
      <trkpt lat="47.66869" lon="6.19964">
        <ele>312.39999389648</ele>
        <time>2012-08-11T08:32:48.000Z</time>
      </trkpt>
      <trkpt lat="47.66861" lon="6.19958">
        <ele>312.79998779297</ele>
        <time>2012-08-11T08:32:51.000Z</time>
      </trkpt>
      <trkpt lat="47.66859" lon="6.19956">
        <ele>313.20001220703</ele>
        <time>2012-08-11T08:32:52.000Z</time>
      </trkpt>
      <trkpt lat="47.66856" lon="6.19954">
        <ele>313.60000610352</ele>
        <time>2012-08-11T08:32:53.000Z</time>
      </trkpt>
      <trkpt lat="47.66853" lon="6.19953">
        <ele>314</ele>
        <time>2012-08-11T08:32:54.000Z</time>
      </trkpt>
      <trkpt lat="47.66851" lon="6.19951">
        <ele>314.39999389648</ele>
        <time>2012-08-11T08:32:55.000Z</time>
      </trkpt>
      <trkpt lat="47.66839" lon="6.19942">
        <ele>314.39999389648</ele>
        <time>2012-08-11T08:33:00.000Z</time>
      </trkpt>
      <trkpt lat="47.66817" lon="6.19928">
        <ele>314.39999389648</ele>
        <time>2012-08-11T08:33:08.000Z</time>
      </trkpt>
      <trkpt lat="47.668" lon="6.1992">
        <ele>314.39999389648</ele>
        <time>2012-08-11T08:33:13.000Z</time>
      </trkpt>
      <trkpt lat="47.66781" lon="6.19906">
        <ele>314.39999389648</ele>
        <time>2012-08-11T08:33:19.000Z</time>
      </trkpt>
      <trkpt lat="47.66765" lon="6.19887">
        <ele>314.39999389648</ele>
        <time>2012-08-11T08:33:26.000Z</time>
      </trkpt>
      <trkpt lat="47.6675" lon="6.19869">
        <ele>314.79998779297</ele>
        <time>2012-08-11T08:33:34.000Z</time>
      </trkpt>
      <trkpt lat="47.66748" lon="6.19867">
        <ele>315.20001220703</ele>
        <time>2012-08-11T08:33:35.000Z</time>
      </trkpt>
      <trkpt lat="47.66747" lon="6.19865">
        <ele>315.79998779297</ele>
        <time>2012-08-11T08:33:36.000Z</time>
      </trkpt>
      <trkpt lat="47.66745" lon="6.19862">
        <ele>316.20001220703</ele>
        <time>2012-08-11T08:33:37.000Z</time>
      </trkpt>
      <trkpt lat="47.66743" lon="6.19861">
        <ele>316.60000610352</ele>
        <time>2012-08-11T08:33:38.000Z</time>
      </trkpt>
      <trkpt lat="47.66739" lon="6.19857">
        <ele>316.60000610352</ele>
        <time>2012-08-11T08:33:40.000Z</time>
      </trkpt>
      <trkpt lat="47.66729" lon="6.19844">
        <ele>316.60000610352</ele>
        <time>2012-08-11T08:33:46.000Z</time>
      </trkpt>
      <trkpt lat="47.66715" lon="6.19826">
        <ele>316.60000610352</ele>
        <time>2012-08-11T08:33:54.000Z</time>
      </trkpt>
      <trkpt lat="47.66709" lon="6.19818">
        <ele>317</ele>
        <time>2012-08-11T08:33:57.000Z</time>
      </trkpt>
      <trkpt lat="47.66707" lon="6.19815">
        <ele>317.39999389648</ele>
        <time>2012-08-11T08:33:58.000Z</time>
      </trkpt>
      <trkpt lat="47.66705" lon="6.19812">
        <ele>317.79998779297</ele>
        <time>2012-08-11T08:33:59.000Z</time>
      </trkpt>
      <trkpt lat="47.66703" lon="6.19809">
        <ele>318.39999389648</ele>
        <time>2012-08-11T08:34:00.000Z</time>
      </trkpt>
      <trkpt lat="47.66701" lon="6.19807">
        <ele>318.79998779297</ele>
        <time>2012-08-11T08:34:01.000Z</time>
      </trkpt>
      <trkpt lat="47.66689" lon="6.19788">
        <ele>318.79998779297</ele>
        <time>2012-08-11T08:34:08.000Z</time>
      </trkpt>
      <trkpt lat="47.66674" lon="6.19765">
        <ele>318.79998779297</ele>
        <time>2012-08-11T08:34:17.000Z</time>
      </trkpt>
      <trkpt lat="47.66668" lon="6.19757">
        <ele>319.20001220703</ele>
        <time>2012-08-11T08:34:20.000Z</time>
      </trkpt>
      <trkpt lat="47.66666" lon="6.19755">
        <ele>319.60000610352</ele>
        <time>2012-08-11T08:34:21.000Z</time>
      </trkpt>
      <trkpt lat="47.66665" lon="6.19753">
        <ele>320</ele>
        <time>2012-08-11T08:34:22.000Z</time>
      </trkpt>
      <trkpt lat="47.66664" lon="6.19751">
        <ele>320.39999389648</ele>
        <time>2012-08-11T08:34:23.000Z</time>
      </trkpt>
      <trkpt lat="47.66662" lon="6.19749">
        <ele>320.79998779297</ele>
        <time>2012-08-11T08:34:24.000Z</time>
      </trkpt>
      <trkpt lat="47.66661" lon="6.19747">
        <ele>320.79998779297</ele>
        <time>2012-08-11T08:34:25.000Z</time>
      </trkpt>
      <trkpt lat="47.66652" lon="6.19733">
        <ele>320.79998779297</ele>
        <time>2012-08-11T08:34:31.000Z</time>
      </trkpt>
      <trkpt lat="47.66647" lon="6.19723">
        <ele>321.20001220703</ele>
        <time>2012-08-11T08:34:35.000Z</time>
      </trkpt>
      <trkpt lat="47.66646" lon="6.19721">
        <ele>321.60000610352</ele>
        <time>2012-08-11T08:34:36.000Z</time>
      </trkpt>
      <trkpt lat="47.66645" lon="6.19718">
        <ele>322.39999389648</ele>
        <time>2012-08-11T08:34:37.000Z</time>
      </trkpt>
      <trkpt lat="47.66643" lon="6.19715">
        <ele>322.79998779297</ele>
        <time>2012-08-11T08:34:38.000Z</time>
      </trkpt>
      <trkpt lat="47.66634" lon="6.197">
        <ele>323.20001220703</ele>
        <time>2012-08-11T08:34:45.000Z</time>
      </trkpt>
      <trkpt lat="47.66633" lon="6.19698">
        <ele>323.79998779297</ele>
        <time>2012-08-11T08:34:46.000Z</time>
      </trkpt>
      <trkpt lat="47.66631" lon="6.19696">
        <ele>324.20001220703</ele>
        <time>2012-08-11T08:34:47.000Z</time>
      </trkpt>
      <trkpt lat="47.6663" lon="6.19693">
        <ele>324.60000610352</ele>
        <time>2012-08-11T08:34:48.000Z</time>
      </trkpt>
      <trkpt lat="47.66628" lon="6.19691">
        <ele>325</ele>
        <time>2012-08-11T08:34:49.000Z</time>
      </trkpt>
      <trkpt lat="47.66624" lon="6.19685">
        <ele>325</ele>
        <time>2012-08-11T08:34:52.000Z</time>
      </trkpt>
      <trkpt lat="47.66612" lon="6.1967">
        <ele>325</ele>
        <time>2012-08-11T08:35:00.000Z</time>
      </trkpt>
      <trkpt lat="47.66602" lon="6.19661">
        <ele>325.39999389648</ele>
        <time>2012-08-11T08:35:07.000Z</time>
      </trkpt>
      <trkpt lat="47.666" lon="6.19659">
        <ele>326</ele>
        <time>2012-08-11T08:35:08.000Z</time>
      </trkpt>
      <trkpt lat="47.66599" lon="6.19658">
        <ele>326.39999389648</ele>
        <time>2012-08-11T08:35:09.000Z</time>
      </trkpt>
      <trkpt lat="47.66598" lon="6.19657">
        <ele>326.79998779297</ele>
        <time>2012-08-11T08:35:10.000Z</time>
      </trkpt>
      <trkpt lat="47.66596" lon="6.19656">
        <ele>327.20001220703</ele>
        <time>2012-08-11T08:35:11.000Z</time>
      </trkpt>
      <trkpt lat="47.66589" lon="6.19651">
        <ele>327.20001220703</ele>
        <time>2012-08-11T08:35:15.000Z</time>
      </trkpt>
      <trkpt lat="47.66586" lon="6.19649">
        <ele>327.60000610352</ele>
        <time>2012-08-11T08:35:17.000Z</time>
      </trkpt>
      <trkpt lat="47.66584" lon="6.19649">
        <ele>328.20001220703</ele>
        <time>2012-08-11T08:35:19.000Z</time>
      </trkpt>
      <trkpt lat="47.66582" lon="6.19648">
        <ele>328.60000610352</ele>
        <time>2012-08-11T08:35:20.000Z</time>
      </trkpt>
      <trkpt lat="47.6658" lon="6.19647">
        <ele>329</ele>
        <time>2012-08-11T08:35:21.000Z</time>
      </trkpt>
      <trkpt lat="47.66579" lon="6.19645">
        <ele>329.39999389648</ele>
        <time>2012-08-11T08:35:22.000Z</time>
      </trkpt>
      <trkpt lat="47.66572" lon="6.19639">
        <ele>329.39999389648</ele>
        <time>2012-08-11T08:35:27.000Z</time>
      </trkpt>
      <trkpt lat="47.66569" lon="6.19637">
        <ele>329.79998779297</ele>
        <time>2012-08-11T08:35:29.000Z</time>
      </trkpt>
      <trkpt lat="47.66568" lon="6.19636">
        <ele>330.20001220703</ele>
        <time>2012-08-11T08:35:30.000Z</time>
      </trkpt>
      <trkpt lat="47.66566" lon="6.19635">
        <ele>330.79998779297</ele>
        <time>2012-08-11T08:35:31.000Z</time>
      </trkpt>
      <trkpt lat="47.66564" lon="6.19633">
        <ele>331.20001220703</ele>
        <time>2012-08-11T08:35:32.000Z</time>
      </trkpt>
      <trkpt lat="47.66563" lon="6.19632">
        <ele>331.60000610352</ele>
        <time>2012-08-11T08:35:33.000Z</time>
      </trkpt>
      <trkpt lat="47.66558" lon="6.19628">
        <ele>331.60000610352</ele>
        <time>2012-08-11T08:35:36.000Z</time>
      </trkpt>
      <trkpt lat="47.66547" lon="6.19618">
        <ele>331.60000610352</ele>
        <time>2012-08-11T08:35:43.000Z</time>
      </trkpt>
      <trkpt lat="47.66543" lon="6.19614">
        <ele>332</ele>
        <time>2012-08-11T08:35:46.000Z</time>
      </trkpt>
      <trkpt lat="47.66541" lon="6.19613">
        <ele>332.39999389648</ele>
        <time>2012-08-11T08:35:47.000Z</time>
      </trkpt>
      <trkpt lat="47.6654" lon="6.19612">
        <ele>332.79998779297</ele>
        <time>2012-08-11T08:35:48.000Z</time>
      </trkpt>
      <trkpt lat="47.66539" lon="6.19612">
        <ele>333.20001220703</ele>
        <time>2012-08-11T08:35:49.000Z</time>
      </trkpt>
      <trkpt lat="47.66537" lon="6.19611">
        <ele>333.60000610352</ele>
        <time>2012-08-11T08:35:50.000Z</time>
      </trkpt>
      <trkpt lat="47.66536" lon="6.1961">
        <ele>333.60000610352</ele>
        <time>2012-08-11T08:35:51.000Z</time>
      </trkpt>
      <trkpt lat="47.66525" lon="6.19595">
        <ele>333.60000610352</ele>
        <time>2012-08-11T08:35:59.000Z</time>
      </trkpt>
      <trkpt lat="47.66514" lon="6.19585">
        <ele>334</ele>
        <time>2012-08-11T08:36:06.000Z</time>
      </trkpt>
      <trkpt lat="47.66513" lon="6.19584">
        <ele>334.39999389648</ele>
        <time>2012-08-11T08:36:07.000Z</time>
      </trkpt>
      <trkpt lat="47.66511" lon="6.19583">
        <ele>334.79998779297</ele>
        <time>2012-08-11T08:36:08.000Z</time>
      </trkpt>
      <trkpt lat="47.66509" lon="6.19583">
        <ele>335.39999389648</ele>
        <time>2012-08-11T08:36:09.000Z</time>
      </trkpt>
      <trkpt lat="47.66507" lon="6.19582">
        <ele>335.79998779297</ele>
        <time>2012-08-11T08:36:10.000Z</time>
      </trkpt>
      <trkpt lat="47.66504" lon="6.19579">
        <ele>335.79998779297</ele>
        <time>2012-08-11T08:36:12.000Z</time>
      </trkpt>
      <trkpt lat="47.66495" lon="6.1957">
        <ele>335.79998779297</ele>
        <time>2012-08-11T08:36:19.000Z</time>
      </trkpt>
      <trkpt lat="47.66493" lon="6.19569">
        <ele>335.79998779297</ele>
        <time>2012-08-11T08:36:20.000Z</time>
      </trkpt>
      <trkpt lat="47.66485" lon="6.19562">
        <ele>335.79998779297</ele>
        <time>2012-08-11T08:36:25.000Z</time>
      </trkpt>
      <trkpt lat="47.66482" lon="6.1956">
        <ele>335.79998779297</ele>
        <time>2012-08-11T08:36:27.000Z</time>
      </trkpt>
      <trkpt lat="47.6647" lon="6.19551">
        <ele>335.79998779297</ele>
        <time>2012-08-11T08:36:35.000Z</time>
      </trkpt>
      <trkpt lat="47.66466" lon="6.19549">
        <ele>336.20001220703</ele>
        <time>2012-08-11T08:36:37.000Z</time>
      </trkpt>
      <trkpt lat="47.66464" lon="6.19548">
        <ele>336.60000610352</ele>
        <time>2012-08-11T08:36:38.000Z</time>
      </trkpt>
      <trkpt lat="47.66462" lon="6.19548">
        <ele>337</ele>
        <time>2012-08-11T08:36:39.000Z</time>
      </trkpt>
      <trkpt lat="47.6646" lon="6.19547">
        <ele>337.39999389648</ele>
        <time>2012-08-11T08:36:40.000Z</time>
      </trkpt>
      <trkpt lat="47.66458" lon="6.19547">
        <ele>337.79998779297</ele>
        <time>2012-08-11T08:36:41.000Z</time>
      </trkpt>
      <trkpt lat="47.66453" lon="6.19545">
        <ele>337.79998779297</ele>
        <time>2012-08-11T08:36:44.000Z</time>
      </trkpt>
      <trkpt lat="47.66439" lon="6.1954">
        <ele>337.79998779297</ele>
        <time>2012-08-11T08:36:52.000Z</time>
      </trkpt>
      <trkpt lat="47.66428" lon="6.19539">
        <ele>337.79998779297</ele>
        <time>2012-08-11T08:36:58.000Z</time>
      </trkpt>
      <trkpt lat="47.66417" lon="6.19536">
        <ele>338.20001220703</ele>
        <time>2012-08-11T08:37:05.000Z</time>
      </trkpt>
      <trkpt lat="47.66416" lon="6.19537">
        <ele>339</ele>
        <time>2012-08-11T08:37:06.000Z</time>
      </trkpt>
      <trkpt lat="47.66414" lon="6.19536">
        <ele>339.39999389648</ele>
        <time>2012-08-11T08:37:07.000Z</time>
      </trkpt>
      <trkpt lat="47.66413" lon="6.19536">
        <ele>339.79998779297</ele>
        <time>2012-08-11T08:37:08.000Z</time>
      </trkpt>
      <trkpt lat="47.66408" lon="6.19535">
        <ele>339.79998779297</ele>
        <time>2012-08-11T08:37:11.000Z</time>
      </trkpt>
      <trkpt lat="47.66392" lon="6.19533">
        <ele>339.79998779297</ele>
        <time>2012-08-11T08:37:18.000Z</time>
      </trkpt>
      <trkpt lat="47.66374" lon="6.19525">
        <ele>339.79998779297</ele>
        <time>2012-08-11T08:37:25.000Z</time>
      </trkpt>
      <trkpt lat="47.66357" lon="6.19524">
        <ele>339.79998779297</ele>
        <time>2012-08-11T08:37:32.000Z</time>
      </trkpt>
      <trkpt lat="47.66343" lon="6.19522">
        <ele>339.79998779297</ele>
        <time>2012-08-11T08:37:38.000Z</time>
      </trkpt>
      <trkpt lat="47.66335" lon="6.1952">
        <ele>340.20001220703</ele>
        <time>2012-08-11T08:37:42.000Z</time>
      </trkpt>
      <trkpt lat="47.66333" lon="6.1952">
        <ele>340.60000610352</ele>
        <time>2012-08-11T08:37:43.000Z</time>
      </trkpt>
      <trkpt lat="47.66331" lon="6.19519">
        <ele>341</ele>
        <time>2012-08-11T08:37:44.000Z</time>
      </trkpt>
      <trkpt lat="47.66329" lon="6.19519">
        <ele>341.39999389648</ele>
        <time>2012-08-11T08:37:45.000Z</time>
      </trkpt>
      <trkpt lat="47.66327" lon="6.19519">
        <ele>341.79998779297</ele>
        <time>2012-08-11T08:37:46.000Z</time>
      </trkpt>
      <trkpt lat="47.66316" lon="6.19516">
        <ele>341.79998779297</ele>
        <time>2012-08-11T08:37:51.000Z</time>
      </trkpt>
      <trkpt lat="47.663" lon="6.19512">
        <ele>341.79998779297</ele>
        <time>2012-08-11T08:37:58.000Z</time>
      </trkpt>
      <trkpt lat="47.66285" lon="6.19509">
        <ele>341.79998779297</ele>
        <time>2012-08-11T08:38:05.000Z</time>
      </trkpt>
      <trkpt lat="47.66269" lon="6.19507">
        <ele>341.79998779297</ele>
        <time>2012-08-11T08:38:13.000Z</time>
      </trkpt>
      <trkpt lat="47.66254" lon="6.19502">
        <ele>341.79998779297</ele>
        <time>2012-08-11T08:38:20.000Z</time>
      </trkpt>
      <trkpt lat="47.66248" lon="6.19502">
        <ele>341.79998779297</ele>
        <time>2012-08-11T08:38:24.000Z</time>
      </trkpt>
      <trkpt lat="47.66248" lon="6.19502">
        <ele>341.79998779297</ele>
        <time>2012-08-11T08:38:26.000Z</time>
      </trkpt>
      <trkpt lat="47.66246" lon="6.19502">
        <ele>341.79998779297</ele>
        <time>2012-08-11T08:38:44.000Z</time>
      </trkpt>
      <trkpt lat="47.66242" lon="6.19501">
        <ele>341.79998779297</ele>
        <time>2012-08-11T08:38:46.000Z</time>
      </trkpt>
      <trkpt lat="47.66224" lon="6.19497">
        <ele>341.79998779297</ele>
        <time>2012-08-11T08:38:51.000Z</time>
      </trkpt>
      <trkpt lat="47.66213" lon="6.19493">
        <ele>341.39999389648</ele>
        <time>2012-08-11T08:38:54.000Z</time>
      </trkpt>
      <trkpt lat="47.66209" lon="6.19493">
        <ele>341</ele>
        <time>2012-08-11T08:38:55.000Z</time>
      </trkpt>
      <trkpt lat="47.66205" lon="6.19491">
        <ele>340.60000610352</ele>
        <time>2012-08-11T08:38:56.000Z</time>
      </trkpt>
      <trkpt lat="47.66201" lon="6.1949">
        <ele>340.20001220703</ele>
        <time>2012-08-11T08:38:57.000Z</time>
      </trkpt>
      <trkpt lat="47.66197" lon="6.19489">
        <ele>339.79998779297</ele>
        <time>2012-08-11T08:38:58.000Z</time>
      </trkpt>
      <trkpt lat="47.66184" lon="6.19486">
        <ele>339.79998779297</ele>
        <time>2012-08-11T08:39:02.000Z</time>
      </trkpt>
      <trkpt lat="47.66169" lon="6.19491">
        <ele>339.79998779297</ele>
        <time>2012-08-11T08:39:08.000Z</time>
      </trkpt>
      <trkpt lat="47.66157" lon="6.19491">
        <ele>339.79998779297</ele>
        <time>2012-08-11T08:39:13.000Z</time>
      </trkpt>
      <trkpt lat="47.66143" lon="6.19494">
        <ele>339.79998779297</ele>
        <time>2012-08-11T08:39:18.000Z</time>
      </trkpt>
      <trkpt lat="47.66129" lon="6.19503">
        <ele>339.39999389648</ele>
        <time>2012-08-11T08:39:22.000Z</time>
      </trkpt>
      <trkpt lat="47.66126" lon="6.19506">
        <ele>339</ele>
        <time>2012-08-11T08:39:23.000Z</time>
      </trkpt>
      <trkpt lat="47.66123" lon="6.1951">
        <ele>338.60000610352</ele>
        <time>2012-08-11T08:39:24.000Z</time>
      </trkpt>
      <trkpt lat="47.6612" lon="6.19514">
        <ele>338.20001220703</ele>
        <time>2012-08-11T08:39:25.000Z</time>
      </trkpt>
      <trkpt lat="47.66119" lon="6.19519">
        <ele>337.79998779297</ele>
        <time>2012-08-11T08:39:26.000Z</time>
      </trkpt>
      <trkpt lat="47.66116" lon="6.19533">
        <ele>337.79998779297</ele>
        <time>2012-08-11T08:39:29.000Z</time>
      </trkpt>
      <trkpt lat="47.66111" lon="6.1956">
        <ele>337.79998779297</ele>
        <time>2012-08-11T08:39:35.000Z</time>
      </trkpt>
      <trkpt lat="47.66097" lon="6.19586">
        <ele>337.79998779297</ele>
        <time>2012-08-11T08:39:42.000Z</time>
      </trkpt>
      <trkpt lat="47.66091" lon="6.19591">
        <ele>337.39999389648</ele>
        <time>2012-08-11T08:39:44.000Z</time>
      </trkpt>
      <trkpt lat="47.66088" lon="6.19593">
        <ele>337</ele>
        <time>2012-08-11T08:39:45.000Z</time>
      </trkpt>
      <trkpt lat="47.66083" lon="6.19596">
        <ele>336.39999389648</ele>
        <time>2012-08-11T08:39:46.000Z</time>
      </trkpt>
      <trkpt lat="47.66078" lon="6.19599">
        <ele>336</ele>
        <time>2012-08-11T08:39:47.000Z</time>
      </trkpt>
      <trkpt lat="47.66072" lon="6.19602">
        <ele>335.60000610352</ele>
        <time>2012-08-11T08:39:48.000Z</time>
      </trkpt>
      <trkpt lat="47.66066" lon="6.19606">
        <ele>335.20001220703</ele>
        <time>2012-08-11T08:39:49.000Z</time>
      </trkpt>
      <trkpt lat="47.66062" lon="6.19609">
        <ele>334.79998779297</ele>
        <time>2012-08-11T08:39:50.000Z</time>
      </trkpt>
      <trkpt lat="47.66057" lon="6.19612">
        <ele>334.39999389648</ele>
        <time>2012-08-11T08:39:51.000Z</time>
      </trkpt>
      <trkpt lat="47.66051" lon="6.19616">
        <ele>334</ele>
        <time>2012-08-11T08:39:52.000Z</time>
      </trkpt>
      <trkpt lat="47.66046" lon="6.1962">
        <ele>333.60000610352</ele>
        <time>2012-08-11T08:39:53.000Z</time>
      </trkpt>
      <trkpt lat="47.66041" lon="6.19624">
        <ele>333</ele>
        <time>2012-08-11T08:39:54.000Z</time>
      </trkpt>
      <trkpt lat="47.66037" lon="6.19627">
        <ele>332.60000610352</ele>
        <time>2012-08-11T08:39:55.000Z</time>
      </trkpt>
      <trkpt lat="47.66033" lon="6.1963">
        <ele>332</ele>
        <time>2012-08-11T08:39:56.000Z</time>
      </trkpt>
      <trkpt lat="47.66029" lon="6.19632">
        <ele>331.60000610352</ele>
        <time>2012-08-11T08:39:57.000Z</time>
      </trkpt>
      <trkpt lat="47.66025" lon="6.19633">
        <ele>331</ele>
        <time>2012-08-11T08:39:58.000Z</time>
      </trkpt>
      <trkpt lat="47.66021" lon="6.19633">
        <ele>330</ele>
        <time>2012-08-11T08:39:59.000Z</time>
      </trkpt>
      <trkpt lat="47.66017" lon="6.19633">
        <ele>329.39999389648</ele>
        <time>2012-08-11T08:40:00.000Z</time>
      </trkpt>
      <trkpt lat="47.66013" lon="6.19634">
        <ele>329</ele>
        <time>2012-08-11T08:40:01.000Z</time>
      </trkpt>
      <trkpt lat="47.66008" lon="6.19635">
        <ele>328.60000610352</ele>
        <time>2012-08-11T08:40:02.000Z</time>
      </trkpt>
      <trkpt lat="47.66004" lon="6.19635">
        <ele>328.20001220703</ele>
        <time>2012-08-11T08:40:03.000Z</time>
      </trkpt>
      <trkpt lat="47.66" lon="6.19634">
        <ele>327.60000610352</ele>
        <time>2012-08-11T08:40:04.000Z</time>
      </trkpt>
      <trkpt lat="47.65996" lon="6.19634">
        <ele>327.20001220703</ele>
        <time>2012-08-11T08:40:05.000Z</time>
      </trkpt>
      <trkpt lat="47.65992" lon="6.19634">
        <ele>326.79998779297</ele>
        <time>2012-08-11T08:40:06.000Z</time>
      </trkpt>
      <trkpt lat="47.65988" lon="6.19634">
        <ele>326.39999389648</ele>
        <time>2012-08-11T08:40:07.000Z</time>
      </trkpt>
      <trkpt lat="47.65983" lon="6.19635">
        <ele>326</ele>
        <time>2012-08-11T08:40:08.000Z</time>
      </trkpt>
      <trkpt lat="47.65979" lon="6.19636">
        <ele>325.60000610352</ele>
        <time>2012-08-11T08:40:09.000Z</time>
      </trkpt>
      <trkpt lat="47.65974" lon="6.19638">
        <ele>325.20001220703</ele>
        <time>2012-08-11T08:40:10.000Z</time>
      </trkpt>
      <trkpt lat="47.6597" lon="6.19642">
        <ele>324.60000610352</ele>
        <time>2012-08-11T08:40:11.000Z</time>
      </trkpt>
      <trkpt lat="47.65966" lon="6.19646">
        <ele>324.20001220703</ele>
        <time>2012-08-11T08:40:12.000Z</time>
      </trkpt>
      <trkpt lat="47.65962" lon="6.19653">
        <ele>323.79998779297</ele>
        <time>2012-08-11T08:40:13.000Z</time>
      </trkpt>
      <trkpt lat="47.65959" lon="6.1966">
        <ele>323.39999389648</ele>
        <time>2012-08-11T08:40:14.000Z</time>
      </trkpt>
      <trkpt lat="47.65957" lon="6.19669">
        <ele>322.79998779297</ele>
        <time>2012-08-11T08:40:15.000Z</time>
      </trkpt>
      <trkpt lat="47.65955" lon="6.19677">
        <ele>322.20001220703</ele>
        <time>2012-08-11T08:40:16.000Z</time>
      </trkpt>
      <trkpt lat="47.65954" lon="6.19684">
        <ele>321.60000610352</ele>
        <time>2012-08-11T08:40:17.000Z</time>
      </trkpt>
      <trkpt lat="47.65952" lon="6.1969">
        <ele>321</ele>
        <time>2012-08-11T08:40:18.000Z</time>
      </trkpt>
      <trkpt lat="47.65951" lon="6.19695">
        <ele>320.39999389648</ele>
        <time>2012-08-11T08:40:19.000Z</time>
      </trkpt>
      <trkpt lat="47.65944" lon="6.19707">
        <ele>320.39999389648</ele>
        <time>2012-08-11T08:40:22.000Z</time>
      </trkpt>
      <trkpt lat="47.65936" lon="6.19714">
        <ele>320.39999389648</ele>
        <time>2012-08-11T08:40:24.000Z</time>
      </trkpt>
      <trkpt lat="47.65932" lon="6.19717">
        <ele>320</ele>
        <time>2012-08-11T08:40:25.000Z</time>
      </trkpt>
      <trkpt lat="47.65927" lon="6.19719">
        <ele>319.39999389648</ele>
        <time>2012-08-11T08:40:26.000Z</time>
      </trkpt>
      <trkpt lat="47.65921" lon="6.19722">
        <ele>319</ele>
        <time>2012-08-11T08:40:27.000Z</time>
      </trkpt>
      <trkpt lat="47.65915" lon="6.19724">
        <ele>318.39999389648</ele>
        <time>2012-08-11T08:40:28.000Z</time>
      </trkpt>
      <trkpt lat="47.65908" lon="6.19727">
        <ele>318</ele>
        <time>2012-08-11T08:40:29.000Z</time>
      </trkpt>
      <trkpt lat="47.65901" lon="6.19731">
        <ele>317.39999389648</ele>
        <time>2012-08-11T08:40:30.000Z</time>
      </trkpt>
      <trkpt lat="47.65895" lon="6.19735">
        <ele>317</ele>
        <time>2012-08-11T08:40:31.000Z</time>
      </trkpt>
      <trkpt lat="47.65888" lon="6.19739">
        <ele>316.60000610352</ele>
        <time>2012-08-11T08:40:32.000Z</time>
      </trkpt>
      <trkpt lat="47.65883" lon="6.19743">
        <ele>316</ele>
        <time>2012-08-11T08:40:33.000Z</time>
      </trkpt>
      <trkpt lat="47.65877" lon="6.19748">
        <ele>315.39999389648</ele>
        <time>2012-08-11T08:40:34.000Z</time>
      </trkpt>
      <trkpt lat="47.65871" lon="6.19755">
        <ele>314.79998779297</ele>
        <time>2012-08-11T08:40:35.000Z</time>
      </trkpt>
      <trkpt lat="47.65865" lon="6.19762">
        <ele>314.20001220703</ele>
        <time>2012-08-11T08:40:36.000Z</time>
      </trkpt>
      <trkpt lat="47.65859" lon="6.1977">
        <ele>313.60000610352</ele>
        <time>2012-08-11T08:40:37.000Z</time>
      </trkpt>
      <trkpt lat="47.65854" lon="6.19779">
        <ele>313</ele>
        <time>2012-08-11T08:40:38.000Z</time>
      </trkpt>
      <trkpt lat="47.65849" lon="6.19789">
        <ele>312.39999389648</ele>
        <time>2012-08-11T08:40:39.000Z</time>
      </trkpt>
      <trkpt lat="47.65843" lon="6.198">
        <ele>311.79998779297</ele>
        <time>2012-08-11T08:40:40.000Z</time>
      </trkpt>
      <trkpt lat="47.65837" lon="6.19811">
        <ele>311.20001220703</ele>
        <time>2012-08-11T08:40:41.000Z</time>
      </trkpt>
      <trkpt lat="47.65832" lon="6.19821">
        <ele>310.39999389648</ele>
        <time>2012-08-11T08:40:42.000Z</time>
      </trkpt>
      <trkpt lat="47.65827" lon="6.1983">
        <ele>309.79998779297</ele>
        <time>2012-08-11T08:40:43.000Z</time>
      </trkpt>
      <trkpt lat="47.65822" lon="6.19839">
        <ele>309</ele>
        <time>2012-08-11T08:40:44.000Z</time>
      </trkpt>
      <trkpt lat="47.65817" lon="6.19848">
        <ele>308.20001220703</ele>
        <time>2012-08-11T08:40:45.000Z</time>
      </trkpt>
      <trkpt lat="47.65811" lon="6.19856">
        <ele>307.39999389648</ele>
        <time>2012-08-11T08:40:46.000Z</time>
      </trkpt>
      <trkpt lat="47.65806" lon="6.19863">
        <ele>306.60000610352</ele>
        <time>2012-08-11T08:40:47.000Z</time>
      </trkpt>
      <trkpt lat="47.658" lon="6.19871">
        <ele>305.39999389648</ele>
        <time>2012-08-11T08:40:48.000Z</time>
      </trkpt>
      <trkpt lat="47.65793" lon="6.19879">
        <ele>304.79998779297</ele>
        <time>2012-08-11T08:40:49.000Z</time>
      </trkpt>
      <trkpt lat="47.65786" lon="6.19888">
        <ele>304.20001220703</ele>
        <time>2012-08-11T08:40:50.000Z</time>
      </trkpt>
      <trkpt lat="47.6578" lon="6.19898">
        <ele>303.60000610352</ele>
        <time>2012-08-11T08:40:51.000Z</time>
      </trkpt>
      <trkpt lat="47.65775" lon="6.19908">
        <ele>302.79998779297</ele>
        <time>2012-08-11T08:40:52.000Z</time>
      </trkpt>
      <trkpt lat="47.65769" lon="6.19919">
        <ele>302</ele>
        <time>2012-08-11T08:40:53.000Z</time>
      </trkpt>
      <trkpt lat="47.65764" lon="6.19928">
        <ele>301.39999389648</ele>
        <time>2012-08-11T08:40:54.000Z</time>
      </trkpt>
      <trkpt lat="47.65759" lon="6.19937">
        <ele>300.60000610352</ele>
        <time>2012-08-11T08:40:55.000Z</time>
      </trkpt>
      <trkpt lat="47.65754" lon="6.19946">
        <ele>299.79998779297</ele>
        <time>2012-08-11T08:40:56.000Z</time>
      </trkpt>
      <trkpt lat="47.65749" lon="6.19955">
        <ele>299</ele>
        <time>2012-08-11T08:40:57.000Z</time>
      </trkpt>
      <trkpt lat="47.65745" lon="6.19964">
        <ele>298.20001220703</ele>
        <time>2012-08-11T08:40:58.000Z</time>
      </trkpt>
      <trkpt lat="47.65741" lon="6.19973">
        <ele>297.60000610352</ele>
        <time>2012-08-11T08:40:59.000Z</time>
      </trkpt>
      <trkpt lat="47.65737" lon="6.19982">
        <ele>296.79998779297</ele>
        <time>2012-08-11T08:41:00.000Z</time>
      </trkpt>
      <trkpt lat="47.65732" lon="6.1999">
        <ele>296</ele>
        <time>2012-08-11T08:41:01.000Z</time>
      </trkpt>
      <trkpt lat="47.65728" lon="6.19999">
        <ele>295.20001220703</ele>
        <time>2012-08-11T08:41:02.000Z</time>
      </trkpt>
      <trkpt lat="47.65722" lon="6.20009">
        <ele>294.39999389648</ele>
        <time>2012-08-11T08:41:03.000Z</time>
      </trkpt>
      <trkpt lat="47.65716" lon="6.20018">
        <ele>293.60000610352</ele>
        <time>2012-08-11T08:41:04.000Z</time>
      </trkpt>
      <trkpt lat="47.6571" lon="6.20028">
        <ele>293</ele>
        <time>2012-08-11T08:41:05.000Z</time>
      </trkpt>
      <trkpt lat="47.65704" lon="6.20036">
        <ele>292.20001220703</ele>
        <time>2012-08-11T08:41:06.000Z</time>
      </trkpt>
      <trkpt lat="47.65699" lon="6.20044">
        <ele>291.39999389648</ele>
        <time>2012-08-11T08:41:07.000Z</time>
      </trkpt>
      <trkpt lat="47.65693" lon="6.20052">
        <ele>290.60000610352</ele>
        <time>2012-08-11T08:41:08.000Z</time>
      </trkpt>
      <trkpt lat="47.65688" lon="6.2006">
        <ele>289.79998779297</ele>
        <time>2012-08-11T08:41:09.000Z</time>
      </trkpt>
      <trkpt lat="47.65682" lon="6.20067">
        <ele>289</ele>
        <time>2012-08-11T08:41:10.000Z</time>
      </trkpt>
      <trkpt lat="47.65677" lon="6.20074">
        <ele>288.20001220703</ele>
        <time>2012-08-11T08:41:11.000Z</time>
      </trkpt>
      <trkpt lat="47.65672" lon="6.20081">
        <ele>287.39999389648</ele>
        <time>2012-08-11T08:41:12.000Z</time>
      </trkpt>
      <trkpt lat="47.65667" lon="6.20088">
        <ele>285.79998779297</ele>
        <time>2012-08-11T08:41:13.000Z</time>
      </trkpt>
      <trkpt lat="47.65662" lon="6.20094">
        <ele>285</ele>
        <time>2012-08-11T08:41:14.000Z</time>
      </trkpt>
      <trkpt lat="47.65658" lon="6.201">
        <ele>284.39999389648</ele>
        <time>2012-08-11T08:41:15.000Z</time>
      </trkpt>
      <trkpt lat="47.65654" lon="6.20107">
        <ele>283.79998779297</ele>
        <time>2012-08-11T08:41:16.000Z</time>
      </trkpt>
      <trkpt lat="47.6565" lon="6.20114">
        <ele>283</ele>
        <time>2012-08-11T08:41:17.000Z</time>
      </trkpt>
      <trkpt lat="47.65647" lon="6.2012">
        <ele>282.39999389648</ele>
        <time>2012-08-11T08:41:18.000Z</time>
      </trkpt>
      <trkpt lat="47.65644" lon="6.20125">
        <ele>281.79998779297</ele>
        <time>2012-08-11T08:41:19.000Z</time>
      </trkpt>
      <trkpt lat="47.65642" lon="6.20129">
        <ele>281.20001220703</ele>
        <time>2012-08-11T08:41:20.000Z</time>
      </trkpt>
      <trkpt lat="47.6564" lon="6.20134">
        <ele>280.60000610352</ele>
        <time>2012-08-11T08:41:21.000Z</time>
      </trkpt>
      <trkpt lat="47.6564" lon="6.20137">
        <ele>280</ele>
        <time>2012-08-11T08:41:22.000Z</time>
      </trkpt>
      <trkpt lat="47.65638" lon="6.2014">
        <ele>279.60000610352</ele>
        <time>2012-08-11T08:41:23.000Z</time>
      </trkpt>
      <trkpt lat="47.65637" lon="6.20141">
        <ele>279</ele>
        <time>2012-08-11T08:41:24.000Z</time>
      </trkpt>
      <trkpt lat="47.65635" lon="6.20142">
        <ele>278.60000610352</ele>
        <time>2012-08-11T08:41:25.000Z</time>
      </trkpt>
      <trkpt lat="47.65633" lon="6.20142">
        <ele>278</ele>
        <time>2012-08-11T08:41:26.000Z</time>
      </trkpt>
      <trkpt lat="47.65628" lon="6.20143">
        <ele>278</ele>
        <time>2012-08-11T08:41:29.000Z</time>
      </trkpt>
      <trkpt lat="47.65618" lon="6.20141">
        <ele>277.60000610352</ele>
        <time>2012-08-11T08:41:34.000Z</time>
      </trkpt>
      <trkpt lat="47.65617" lon="6.20139">
        <ele>277.20001220703</ele>
        <time>2012-08-11T08:41:35.000Z</time>
      </trkpt>
      <trkpt lat="47.65616" lon="6.20138">
        <ele>276.79998779297</ele>
        <time>2012-08-11T08:41:36.000Z</time>
      </trkpt>
      <trkpt lat="47.65615" lon="6.20136">
        <ele>276.39999389648</ele>
        <time>2012-08-11T08:41:37.000Z</time>
      </trkpt>
      <trkpt lat="47.65613" lon="6.20134">
        <ele>276</ele>
        <time>2012-08-11T08:41:38.000Z</time>
      </trkpt>
      <trkpt lat="47.6561" lon="6.20131">
        <ele>276</ele>
        <time>2012-08-11T08:41:40.000Z</time>
      </trkpt>
      <trkpt lat="47.65595" lon="6.20117">
        <ele>276</ele>
        <time>2012-08-11T08:41:47.000Z</time>
      </trkpt>
      <trkpt lat="47.6558" lon="6.20103">
        <ele>276</ele>
        <time>2012-08-11T08:41:53.000Z</time>
      </trkpt>
      <trkpt lat="47.65559" lon="6.20082">
        <ele>276</ele>
        <time>2012-08-11T08:41:59.000Z</time>
      </trkpt>
      <trkpt lat="47.65541" lon="6.20061">
        <ele>275.60000610352</ele>
        <time>2012-08-11T08:42:05.000Z</time>
      </trkpt>
      <trkpt lat="47.65537" lon="6.20057">
        <ele>275.20001220703</ele>
        <time>2012-08-11T08:42:06.000Z</time>
      </trkpt>
      <trkpt lat="47.65534" lon="6.20053">
        <ele>274.79998779297</ele>
        <time>2012-08-11T08:42:07.000Z</time>
      </trkpt>
      <trkpt lat="47.6553" lon="6.20049">
        <ele>274.20001220703</ele>
        <time>2012-08-11T08:42:08.000Z</time>
      </trkpt>
      <trkpt lat="47.65527" lon="6.20044">
        <ele>273.79998779297</ele>
        <time>2012-08-11T08:42:09.000Z</time>
      </trkpt>
      <trkpt lat="47.65519" lon="6.20034">
        <ele>273.79998779297</ele>
        <time>2012-08-11T08:42:12.000Z</time>
      </trkpt>
      <trkpt lat="47.65501" lon="6.20009">
        <ele>273.79998779297</ele>
        <time>2012-08-11T08:42:19.000Z</time>
      </trkpt>
      <trkpt lat="47.65478" lon="6.19976">
        <ele>273.79998779297</ele>
        <time>2012-08-11T08:42:27.000Z</time>
      </trkpt>
      <trkpt lat="47.65473" lon="6.19967">
        <ele>273.39999389648</ele>
        <time>2012-08-11T08:42:29.000Z</time>
      </trkpt>
      <trkpt lat="47.65471" lon="6.19963">
        <ele>273</ele>
        <time>2012-08-11T08:42:30.000Z</time>
      </trkpt>
      <trkpt lat="47.65468" lon="6.19959">
        <ele>272.60000610352</ele>
        <time>2012-08-11T08:42:31.000Z</time>
      </trkpt>
      <trkpt lat="47.65466" lon="6.19955">
        <ele>272.20001220703</ele>
        <time>2012-08-11T08:42:32.000Z</time>
      </trkpt>
      <trkpt lat="47.65464" lon="6.19952">
        <ele>271.79998779297</ele>
        <time>2012-08-11T08:42:33.000Z</time>
      </trkpt>
      <trkpt lat="47.65462" lon="6.19948">
        <ele>271.79998779297</ele>
        <time>2012-08-11T08:42:34.000Z</time>
      </trkpt>
      <trkpt lat="47.65451" lon="6.19919">
        <ele>271.79998779297</ele>
        <time>2012-08-11T08:42:41.000Z</time>
      </trkpt>
      <trkpt lat="47.65439" lon="6.19882">
        <ele>271.79998779297</ele>
        <time>2012-08-11T08:42:49.000Z</time>
      </trkpt>
      <trkpt lat="47.6543" lon="6.19858">
        <ele>271.79998779297</ele>
        <time>2012-08-11T08:42:55.000Z</time>
      </trkpt>
      <trkpt lat="47.65417" lon="6.19832">
        <ele>271.79998779297</ele>
        <time>2012-08-11T08:43:01.000Z</time>
      </trkpt>
      <trkpt lat="47.65413" lon="6.19825">
        <ele>271.79998779297</ele>
        <time>2012-08-11T08:43:05.000Z</time>
      </trkpt>
      <trkpt lat="47.65411" lon="6.19824">
        <ele>271.79998779297</ele>
        <time>2012-08-11T08:43:28.000Z</time>
      </trkpt>
      <trkpt lat="47.65408" lon="6.1982">
        <ele>271.79998779297</ele>
        <time>2012-08-11T08:43:30.000Z</time>
      </trkpt>
      <trkpt lat="47.65404" lon="6.19814">
        <ele>271.79998779297</ele>
        <time>2012-08-11T08:43:32.000Z</time>
      </trkpt>
      <trkpt lat="47.65397" lon="6.19801">
        <ele>271.79998779297</ele>
        <time>2012-08-11T08:43:35.000Z</time>
      </trkpt>
      <trkpt lat="47.65395" lon="6.19797">
        <ele>271.79998779297</ele>
        <time>2012-08-11T08:43:36.000Z</time>
      </trkpt>
      <trkpt lat="47.65379" lon="6.19767">
        <ele>271.79998779297</ele>
        <time>2012-08-11T08:43:43.000Z</time>
      </trkpt>
      <trkpt lat="47.65364" lon="6.19732">
        <ele>271.79998779297</ele>
        <time>2012-08-11T08:43:51.000Z</time>
      </trkpt>
      <trkpt lat="47.65349" lon="6.19698">
        <ele>271.79998779297</ele>
        <time>2012-08-11T08:43:58.000Z</time>
      </trkpt>
      <trkpt lat="47.6534" lon="6.19678">
        <ele>271.39999389648</ele>
        <time>2012-08-11T08:44:02.000Z</time>
      </trkpt>
      <trkpt lat="47.65338" lon="6.19673">
        <ele>271</ele>
        <time>2012-08-11T08:44:03.000Z</time>
      </trkpt>
      <trkpt lat="47.65336" lon="6.19667">
        <ele>270.60000610352</ele>
        <time>2012-08-11T08:44:04.000Z</time>
      </trkpt>
      <trkpt lat="47.65334" lon="6.19662">
        <ele>269.79998779297</ele>
        <time>2012-08-11T08:44:05.000Z</time>
      </trkpt>
      <trkpt lat="47.65321" lon="6.19621">
        <ele>269.79998779297</ele>
        <time>2012-08-11T08:44:12.000Z</time>
      </trkpt>
      <trkpt lat="47.65307" lon="6.19585">
        <ele>269.79998779297</ele>
        <time>2012-08-11T08:44:19.000Z</time>
      </trkpt>
      <trkpt lat="47.65297" lon="6.19566">
        <ele>269.79998779297</ele>
        <time>2012-08-11T08:44:24.000Z</time>
      </trkpt>
      <trkpt lat="47.65288" lon="6.19544">
        <ele>269.79998779297</ele>
        <time>2012-08-11T08:44:30.000Z</time>
      </trkpt>
      <trkpt lat="47.65284" lon="6.19518">
        <ele>269.79998779297</ele>
        <time>2012-08-11T08:44:36.000Z</time>
      </trkpt>
      <trkpt lat="47.65284" lon="6.19512">
        <ele>270.20001220703</ele>
        <time>2012-08-11T08:44:37.000Z</time>
      </trkpt>
      <trkpt lat="47.65283" lon="6.19507">
        <ele>270.60000610352</ele>
        <time>2012-08-11T08:44:38.000Z</time>
      </trkpt>
      <trkpt lat="47.65281" lon="6.19502">
        <ele>271</ele>
        <time>2012-08-11T08:44:39.000Z</time>
      </trkpt>
      <trkpt lat="47.6528" lon="6.19498">
        <ele>271.39999389648</ele>
        <time>2012-08-11T08:44:40.000Z</time>
      </trkpt>
      <trkpt lat="47.65278" lon="6.19494">
        <ele>271.79998779297</ele>
        <time>2012-08-11T08:44:41.000Z</time>
      </trkpt>
      <trkpt lat="47.65266" lon="6.19478">
        <ele>271.79998779297</ele>
        <time>2012-08-11T08:44:46.000Z</time>
      </trkpt>
      <trkpt lat="47.65253" lon="6.19454">
        <ele>271.79998779297</ele>
        <time>2012-08-11T08:44:53.000Z</time>
      </trkpt>
      <trkpt lat="47.65235" lon="6.19433">
        <ele>271.79998779297</ele>
        <time>2012-08-11T08:45:00.000Z</time>
      </trkpt>
      <trkpt lat="47.6522" lon="6.19409">
        <ele>271.79998779297</ele>
        <time>2012-08-11T08:45:06.000Z</time>
      </trkpt>
      <trkpt lat="47.65201" lon="6.19376">
        <ele>271.79998779297</ele>
        <time>2012-08-11T08:45:15.000Z</time>
      </trkpt>
      <trkpt lat="47.65187" lon="6.19352">
        <ele>271.79998779297</ele>
        <time>2012-08-11T08:45:23.000Z</time>
      </trkpt>
      <trkpt lat="47.65172" lon="6.19331">
        <ele>271.79998779297</ele>
        <time>2012-08-11T08:45:31.000Z</time>
      </trkpt>
      <trkpt lat="47.65155" lon="6.19313">
        <ele>271.79998779297</ele>
        <time>2012-08-11T08:45:39.000Z</time>
      </trkpt>
      <trkpt lat="47.65138" lon="6.19295">
        <ele>271.79998779297</ele>
        <time>2012-08-11T08:45:46.000Z</time>
      </trkpt>
      <trkpt lat="47.65122" lon="6.19277">
        <ele>271.79998779297</ele>
        <time>2012-08-11T08:45:52.000Z</time>
      </trkpt>
      <trkpt lat="47.65103" lon="6.19249">
        <ele>271.79998779297</ele>
        <time>2012-08-11T08:46:01.000Z</time>
      </trkpt>
      <trkpt lat="47.65082" lon="6.19219">
        <ele>271.79998779297</ele>
        <time>2012-08-11T08:46:09.000Z</time>
      </trkpt>
      <trkpt lat="47.65058" lon="6.19182">
        <ele>271.79998779297</ele>
        <time>2012-08-11T08:46:18.000Z</time>
      </trkpt>
      <trkpt lat="47.65054" lon="6.19178">
        <ele>271.79998779297</ele>
        <time>2012-08-11T08:46:19.000Z</time>
      </trkpt>
      <trkpt lat="47.65044" lon="6.19161">
        <ele>271.79998779297</ele>
        <time>2012-08-11T08:46:23.000Z</time>
      </trkpt>
      <trkpt lat="47.65024" lon="6.19129">
        <ele>271.79998779297</ele>
        <time>2012-08-11T08:46:29.000Z</time>
      </trkpt>
      <trkpt lat="47.65021" lon="6.19124">
        <ele>271.39999389648</ele>
        <time>2012-08-11T08:46:30.000Z</time>
      </trkpt>
      <trkpt lat="47.65018" lon="6.19118">
        <ele>271</ele>
        <time>2012-08-11T08:46:31.000Z</time>
      </trkpt>
      <trkpt lat="47.65014" lon="6.19113">
        <ele>270.60000610352</ele>
        <time>2012-08-11T08:46:32.000Z</time>
      </trkpt>
      <trkpt lat="47.65011" lon="6.19107">
        <ele>269.60000610352</ele>
        <time>2012-08-11T08:46:33.000Z</time>
      </trkpt>
      <trkpt lat="47.64998" lon="6.19085">
        <ele>269.60000610352</ele>
        <time>2012-08-11T08:46:37.000Z</time>
      </trkpt>
      <trkpt lat="47.64978" lon="6.19046">
        <ele>269.60000610352</ele>
        <time>2012-08-11T08:46:45.000Z</time>
      </trkpt>
      <trkpt lat="47.64962" lon="6.19014">
        <ele>269.60000610352</ele>
        <time>2012-08-11T08:46:52.000Z</time>
      </trkpt>
      <trkpt lat="47.6495" lon="6.18992">
        <ele>269.20001220703</ele>
        <time>2012-08-11T08:46:57.000Z</time>
      </trkpt>
      <trkpt lat="47.64948" lon="6.18988">
        <ele>268.39999389648</ele>
        <time>2012-08-11T08:46:58.000Z</time>
      </trkpt>
      <trkpt lat="47.64946" lon="6.18984">
        <ele>268</ele>
        <time>2012-08-11T08:46:59.000Z</time>
      </trkpt>
      <trkpt lat="47.64944" lon="6.1898">
        <ele>267.60000610352</ele>
        <time>2012-08-11T08:47:00.000Z</time>
      </trkpt>
      <trkpt lat="47.64928" lon="6.18953">
        <ele>267.60000610352</ele>
        <time>2012-08-11T08:47:07.000Z</time>
      </trkpt>
      <trkpt lat="47.64913" lon="6.1893">
        <ele>267.60000610352</ele>
        <time>2012-08-11T08:47:12.000Z</time>
      </trkpt>
      <trkpt lat="47.6491" lon="6.18924">
        <ele>267.60000610352</ele>
        <time>2012-08-11T08:47:13.000Z</time>
      </trkpt>
      <trkpt lat="47.649" lon="6.18909">
        <ele>267.20001220703</ele>
        <time>2012-08-11T08:47:16.000Z</time>
      </trkpt>
      <trkpt lat="47.64897" lon="6.18904">
        <ele>266.79998779297</ele>
        <time>2012-08-11T08:47:17.000Z</time>
      </trkpt>
      <trkpt lat="47.64895" lon="6.18899">
        <ele>266.39999389648</ele>
        <time>2012-08-11T08:47:18.000Z</time>
      </trkpt>
      <trkpt lat="47.64892" lon="6.18895">
        <ele>266</ele>
        <time>2012-08-11T08:47:19.000Z</time>
      </trkpt>
      <trkpt lat="47.6489" lon="6.1889">
        <ele>265.60000610352</ele>
        <time>2012-08-11T08:47:20.000Z</time>
      </trkpt>
      <trkpt lat="47.64872" lon="6.18849">
        <ele>265.60000610352</ele>
        <time>2012-08-11T08:47:28.000Z</time>
      </trkpt>
      <trkpt lat="47.64868" lon="6.18839">
        <ele>265.60000610352</ele>
        <time>2012-08-11T08:47:30.000Z</time>
      </trkpt>
      <trkpt lat="47.64855" lon="6.18812">
        <ele>265.60000610352</ele>
        <time>2012-08-11T08:47:35.000Z</time>
      </trkpt>
      <trkpt lat="47.64849" lon="6.18799">
        <ele>265.20001220703</ele>
        <time>2012-08-11T08:47:37.000Z</time>
      </trkpt>
      <trkpt lat="47.64846" lon="6.18794">
        <ele>264.79998779297</ele>
        <time>2012-08-11T08:47:38.000Z</time>
      </trkpt>
      <trkpt lat="47.64843" lon="6.18788">
        <ele>264.20001220703</ele>
        <time>2012-08-11T08:47:39.000Z</time>
      </trkpt>
      <trkpt lat="47.64841" lon="6.18782">
        <ele>263.79998779297</ele>
        <time>2012-08-11T08:47:40.000Z</time>
      </trkpt>
      <trkpt lat="47.64838" lon="6.18776">
        <ele>263.39999389648</ele>
        <time>2012-08-11T08:47:41.000Z</time>
      </trkpt>
      <trkpt lat="47.64831" lon="6.18757">
        <ele>263.39999389648</ele>
        <time>2012-08-11T08:47:44.000Z</time>
      </trkpt>
      <trkpt lat="47.64807" lon="6.18711">
        <ele>263</ele>
        <time>2012-08-11T08:47:51.000Z</time>
      </trkpt>
      <trkpt lat="47.64803" lon="6.18704">
        <ele>262.60000610352</ele>
        <time>2012-08-11T08:47:52.000Z</time>
      </trkpt>
      <trkpt lat="47.64799" lon="6.18696">
        <ele>262.20001220703</ele>
        <time>2012-08-11T08:47:53.000Z</time>
      </trkpt>
      <trkpt lat="47.64795" lon="6.18689">
        <ele>261.79998779297</ele>
        <time>2012-08-11T08:47:54.000Z</time>
      </trkpt>
      <trkpt lat="47.64791" lon="6.18681">
        <ele>261.20001220703</ele>
        <time>2012-08-11T08:47:55.000Z</time>
      </trkpt>
      <trkpt lat="47.64782" lon="6.18666">
        <ele>260.79998779297</ele>
        <time>2012-08-11T08:47:57.000Z</time>
      </trkpt>
      <trkpt lat="47.64778" lon="6.18658">
        <ele>260.39999389648</ele>
        <time>2012-08-11T08:47:58.000Z</time>
      </trkpt>
      <trkpt lat="47.64774" lon="6.1865">
        <ele>260</ele>
        <time>2012-08-11T08:47:59.000Z</time>
      </trkpt>
      <trkpt lat="47.6477" lon="6.18642">
        <ele>259.60000610352</ele>
        <time>2012-08-11T08:48:00.000Z</time>
      </trkpt>
      <trkpt lat="47.64765" lon="6.18634">
        <ele>259.20001220703</ele>
        <time>2012-08-11T08:48:01.000Z</time>
      </trkpt>
      <trkpt lat="47.64738" lon="6.18584">
        <ele>259.20001220703</ele>
        <time>2012-08-11T08:48:08.000Z</time>
      </trkpt>
      <trkpt lat="47.64728" lon="6.18564">
        <ele>259.20001220703</ele>
        <time>2012-08-11T08:48:11.000Z</time>
      </trkpt>
      <trkpt lat="47.64721" lon="6.18551">
        <ele>259.20001220703</ele>
        <time>2012-08-11T08:48:13.000Z</time>
      </trkpt>
      <trkpt lat="47.64718" lon="6.18545">
        <ele>259.20001220703</ele>
        <time>2012-08-11T08:48:14.000Z</time>
      </trkpt>
      <trkpt lat="47.64699" lon="6.1851">
        <ele>259.20001220703</ele>
        <time>2012-08-11T08:48:21.000Z</time>
      </trkpt>
      <trkpt lat="47.64693" lon="6.18497">
        <ele>258.79998779297</ele>
        <time>2012-08-11T08:48:25.000Z</time>
      </trkpt>
      <trkpt lat="47.64691" lon="6.18495">
        <ele>258.39999389648</ele>
        <time>2012-08-11T08:48:26.000Z</time>
      </trkpt>
      <trkpt lat="47.6469" lon="6.18493">
        <ele>258</ele>
        <time>2012-08-11T08:48:27.000Z</time>
      </trkpt>
      <trkpt lat="47.64689" lon="6.18491">
        <ele>257.60000610352</ele>
        <time>2012-08-11T08:48:28.000Z</time>
      </trkpt>
      <trkpt lat="47.64687" lon="6.18488">
        <ele>257.20001220703</ele>
        <time>2012-08-11T08:48:29.000Z</time>
      </trkpt>
      <trkpt lat="47.64686" lon="6.18487">
        <ele>257.20001220703</ele>
        <time>2012-08-11T08:48:30.000Z</time>
      </trkpt>
      <trkpt lat="47.64681" lon="6.18479">
        <ele>257.20001220703</ele>
        <time>2012-08-11T08:48:33.000Z</time>
      </trkpt>
      <trkpt lat="47.64675" lon="6.18475">
        <ele>257.20001220703</ele>
        <time>2012-08-11T08:48:36.000Z</time>
      </trkpt>
      <trkpt lat="47.64665" lon="6.18484">
        <ele>257.20001220703</ele>
        <time>2012-08-11T08:48:40.000Z</time>
      </trkpt>
      <trkpt lat="47.64656" lon="6.18494">
        <ele>257.20001220703</ele>
        <time>2012-08-11T08:48:43.000Z</time>
      </trkpt>
      <trkpt lat="47.64651" lon="6.18494">
        <ele>257.20001220703</ele>
        <time>2012-08-11T08:48:44.000Z</time>
      </trkpt>
      <trkpt lat="47.64647" lon="6.18495">
        <ele>256.79998779297</ele>
        <time>2012-08-11T08:48:45.000Z</time>
      </trkpt>
      <trkpt lat="47.64643" lon="6.18498">
        <ele>256.39999389648</ele>
        <time>2012-08-11T08:48:46.000Z</time>
      </trkpt>
      <trkpt lat="47.64641" lon="6.18504">
        <ele>256</ele>
        <time>2012-08-11T08:48:47.000Z</time>
      </trkpt>
      <trkpt lat="47.64639" lon="6.18511">
        <ele>255.60000610352</ele>
        <time>2012-08-11T08:48:48.000Z</time>
      </trkpt>
      <trkpt lat="47.64637" lon="6.18518">
        <ele>255.19999694824</ele>
        <time>2012-08-11T08:48:49.000Z</time>
      </trkpt>
      <trkpt lat="47.64633" lon="6.18533">
        <ele>254.60000610352</ele>
        <time>2012-08-11T08:48:51.000Z</time>
      </trkpt>
      <trkpt lat="47.6463" lon="6.18539">
        <ele>254.19999694824</ele>
        <time>2012-08-11T08:48:52.000Z</time>
      </trkpt>
      <trkpt lat="47.64628" lon="6.18546">
        <ele>253.80000305176</ele>
        <time>2012-08-11T08:48:53.000Z</time>
      </trkpt>
      <trkpt lat="47.64627" lon="6.18553">
        <ele>253.39999389648</ele>
        <time>2012-08-11T08:48:54.000Z</time>
      </trkpt>
      <trkpt lat="47.64626" lon="6.18559">
        <ele>252.80000305176</ele>
        <time>2012-08-11T08:48:55.000Z</time>
      </trkpt>
      <trkpt lat="47.64625" lon="6.18563">
        <ele>252.39999389648</ele>
        <time>2012-08-11T08:48:56.000Z</time>
      </trkpt>
      <trkpt lat="47.64624" lon="6.18569">
        <ele>252</ele>
        <time>2012-08-11T08:48:57.000Z</time>
      </trkpt>
      <trkpt lat="47.64622" lon="6.18574">
        <ele>251.60000610352</ele>
        <time>2012-08-11T08:48:58.000Z</time>
      </trkpt>
      <trkpt lat="47.6462" lon="6.18578">
        <ele>251.19999694824</ele>
        <time>2012-08-11T08:48:59.000Z</time>
      </trkpt>
      <trkpt lat="47.64617" lon="6.18582">
        <ele>250.60000610352</ele>
        <time>2012-08-11T08:49:00.000Z</time>
      </trkpt>
      <trkpt lat="47.64613" lon="6.18585">
        <ele>250</ele>
        <time>2012-08-11T08:49:01.000Z</time>
      </trkpt>
      <trkpt lat="47.6461" lon="6.18587">
        <ele>249</ele>
        <time>2012-08-11T08:49:02.000Z</time>
      </trkpt>
      <trkpt lat="47.64606" lon="6.18587">
        <ele>248.39999389648</ele>
        <time>2012-08-11T08:49:03.000Z</time>
      </trkpt>
      <trkpt lat="47.64602" lon="6.18586">
        <ele>247.80000305176</ele>
        <time>2012-08-11T08:49:04.000Z</time>
      </trkpt>
      <trkpt lat="47.64599" lon="6.18584">
        <ele>247.19999694824</ele>
        <time>2012-08-11T08:49:05.000Z</time>
      </trkpt>
      <trkpt lat="47.64595" lon="6.18582">
        <ele>246.60000610352</ele>
        <time>2012-08-11T08:49:06.000Z</time>
      </trkpt>
      <trkpt lat="47.64593" lon="6.1858">
        <ele>246.19999694824</ele>
        <time>2012-08-11T08:49:07.000Z</time>
      </trkpt>
      <trkpt lat="47.64577" lon="6.18574">
        <ele>246.19999694824</ele>
        <time>2012-08-11T08:49:12.000Z</time>
      </trkpt>
      <trkpt lat="47.6457" lon="6.1857">
        <ele>245.80000305176</ele>
        <time>2012-08-11T08:49:15.000Z</time>
      </trkpt>
      <trkpt lat="47.64568" lon="6.1857">
        <ele>245.39999389648</ele>
        <time>2012-08-11T08:49:16.000Z</time>
      </trkpt>
      <trkpt lat="47.64566" lon="6.18569">
        <ele>245</ele>
        <time>2012-08-11T08:49:17.000Z</time>
      </trkpt>
      <trkpt lat="47.64564" lon="6.18568">
        <ele>244.60000610352</ele>
        <time>2012-08-11T08:49:18.000Z</time>
      </trkpt>
      <trkpt lat="47.64561" lon="6.18568">
        <ele>244</ele>
        <time>2012-08-11T08:49:19.000Z</time>
      </trkpt>
      <trkpt lat="47.6455" lon="6.18563">
        <ele>244</ele>
        <time>2012-08-11T08:49:23.000Z</time>
      </trkpt>
      <trkpt lat="47.6454" lon="6.18559">
        <ele>243.60000610352</ele>
        <time>2012-08-11T08:49:26.000Z</time>
      </trkpt>
      <trkpt lat="47.64536" lon="6.18557">
        <ele>243.19999694824</ele>
        <time>2012-08-11T08:49:27.000Z</time>
      </trkpt>
      <trkpt lat="47.64532" lon="6.18556">
        <ele>242.80000305176</ele>
        <time>2012-08-11T08:49:28.000Z</time>
      </trkpt>
      <trkpt lat="47.64529" lon="6.18554">
        <ele>242.39999389648</ele>
        <time>2012-08-11T08:49:29.000Z</time>
      </trkpt>
      <trkpt lat="47.64525" lon="6.18552">
        <ele>242</ele>
        <time>2012-08-11T08:49:30.000Z</time>
      </trkpt>
      <trkpt lat="47.64514" lon="6.18545">
        <ele>241.60000610352</ele>
        <time>2012-08-11T08:49:33.000Z</time>
      </trkpt>
      <trkpt lat="47.6451" lon="6.18543">
        <ele>241.19999694824</ele>
        <time>2012-08-11T08:49:34.000Z</time>
      </trkpt>
      <trkpt lat="47.64507" lon="6.18542">
        <ele>240.80000305176</ele>
        <time>2012-08-11T08:49:35.000Z</time>
      </trkpt>
      <trkpt lat="47.64504" lon="6.1854">
        <ele>240.39999389648</ele>
        <time>2012-08-11T08:49:36.000Z</time>
      </trkpt>
      <trkpt lat="47.64501" lon="6.1854">
        <ele>240</ele>
        <time>2012-08-11T08:49:37.000Z</time>
      </trkpt>
      <trkpt lat="47.64493" lon="6.18538">
        <ele>239.60000610352</ele>
        <time>2012-08-11T08:49:40.000Z</time>
      </trkpt>
      <trkpt lat="47.64489" lon="6.18536">
        <ele>239.19999694824</ele>
        <time>2012-08-11T08:49:41.000Z</time>
      </trkpt>
      <trkpt lat="47.64484" lon="6.18534">
        <ele>238.80000305176</ele>
        <time>2012-08-11T08:49:42.000Z</time>
      </trkpt>
      <trkpt lat="47.64481" lon="6.18533">
        <ele>238.39999389648</ele>
        <time>2012-08-11T08:49:43.000Z</time>
      </trkpt>
      <trkpt lat="47.64478" lon="6.18531">
        <ele>237.80000305176</ele>
        <time>2012-08-11T08:49:44.000Z</time>
      </trkpt>
      <trkpt lat="47.64468" lon="6.18519">
        <ele>237.39999389648</ele>
        <time>2012-08-11T08:49:49.000Z</time>
      </trkpt>
      <trkpt lat="47.64467" lon="6.18518">
        <ele>237</ele>
        <time>2012-08-11T08:49:50.000Z</time>
      </trkpt>
      <trkpt lat="47.64466" lon="6.18516">
        <ele>236.19999694824</ele>
        <time>2012-08-11T08:49:51.000Z</time>
      </trkpt>
      <trkpt lat="47.64464" lon="6.18514">
        <ele>235.80000305176</ele>
        <time>2012-08-11T08:49:52.000Z</time>
      </trkpt>
      <trkpt lat="47.64453" lon="6.18501">
        <ele>235.80000305176</ele>
        <time>2012-08-11T08:49:56.000Z</time>
      </trkpt>
      <trkpt lat="47.64441" lon="6.18486">
        <ele>235.80000305176</ele>
        <time>2012-08-11T08:50:02.000Z</time>
      </trkpt>
      <trkpt lat="47.64439" lon="6.18486">
        <ele>235.80000305176</ele>
        <time>2012-08-11T08:50:03.000Z</time>
      </trkpt>
      <trkpt lat="47.64432" lon="6.18481">
        <ele>235.80000305176</ele>
        <time>2012-08-11T08:50:07.000Z</time>
      </trkpt>
      <trkpt lat="47.64419" lon="6.1848">
        <ele>235.80000305176</ele>
        <time>2012-08-11T08:50:12.000Z</time>
      </trkpt>
      <trkpt lat="47.64395" lon="6.18474">
        <ele>235.80000305176</ele>
        <time>2012-08-11T08:50:19.000Z</time>
      </trkpt>
      <trkpt lat="47.64389" lon="6.18473">
        <ele>235.39999389648</ele>
        <time>2012-08-11T08:50:21.000Z</time>
      </trkpt>
      <trkpt lat="47.64386" lon="6.18472">
        <ele>235</ele>
        <time>2012-08-11T08:50:22.000Z</time>
      </trkpt>
      <trkpt lat="47.64382" lon="6.18472">
        <ele>234.60000610352</ele>
        <time>2012-08-11T08:50:23.000Z</time>
      </trkpt>
      <trkpt lat="47.64379" lon="6.18471">
        <ele>234.19999694824</ele>
        <time>2012-08-11T08:50:24.000Z</time>
      </trkpt>
      <trkpt lat="47.64375" lon="6.1847">
        <ele>233.80000305176</ele>
        <time>2012-08-11T08:50:25.000Z</time>
      </trkpt>
      <trkpt lat="47.64371" lon="6.18468">
        <ele>233.80000305176</ele>
        <time>2012-08-11T08:50:26.000Z</time>
      </trkpt>
      <trkpt lat="47.64367" lon="6.18466">
        <ele>233.39999389648</ele>
        <time>2012-08-11T08:50:27.000Z</time>
      </trkpt>
      <trkpt lat="47.64363" lon="6.18464">
        <ele>232.80000305176</ele>
        <time>2012-08-11T08:50:28.000Z</time>
      </trkpt>
      <trkpt lat="47.64359" lon="6.18461">
        <ele>232.39999389648</ele>
        <time>2012-08-11T08:50:29.000Z</time>
      </trkpt>
      <trkpt lat="47.64356" lon="6.18458">
        <ele>232</ele>
        <time>2012-08-11T08:50:30.000Z</time>
      </trkpt>
      <trkpt lat="47.64352" lon="6.18455">
        <ele>231.60000610352</ele>
        <time>2012-08-11T08:50:31.000Z</time>
      </trkpt>
      <trkpt lat="47.64349" lon="6.18452">
        <ele>231.19999694824</ele>
        <time>2012-08-11T08:50:32.000Z</time>
      </trkpt>
      <trkpt lat="47.64345" lon="6.18449">
        <ele>230.80000305176</ele>
        <time>2012-08-11T08:50:33.000Z</time>
      </trkpt>
      <trkpt lat="47.64342" lon="6.18445">
        <ele>230.39999389648</ele>
        <time>2012-08-11T08:50:34.000Z</time>
      </trkpt>
      <trkpt lat="47.64339" lon="6.18442">
        <ele>229.80000305176</ele>
        <time>2012-08-11T08:50:35.000Z</time>
      </trkpt>
      <trkpt lat="47.64337" lon="6.1844">
        <ele>229.19999694824</ele>
        <time>2012-08-11T08:50:36.000Z</time>
      </trkpt>
      <trkpt lat="47.64336" lon="6.18436">
        <ele>228.60000610352</ele>
        <time>2012-08-11T08:50:37.000Z</time>
      </trkpt>
      <trkpt lat="47.64335" lon="6.18432">
        <ele>228</ele>
        <time>2012-08-11T08:50:38.000Z</time>
      </trkpt>
      <trkpt lat="47.64334" lon="6.18428">
        <ele>227.39999389648</ele>
        <time>2012-08-11T08:50:39.000Z</time>
      </trkpt>
      <trkpt lat="47.64335" lon="6.18425">
        <ele>226.80000305176</ele>
        <time>2012-08-11T08:50:40.000Z</time>
      </trkpt>
      <trkpt lat="47.64337" lon="6.18421">
        <ele>226</ele>
        <time>2012-08-11T08:50:41.000Z</time>
      </trkpt>
      <trkpt lat="47.6434" lon="6.18417">
        <ele>225.60000610352</ele>
        <time>2012-08-11T08:50:42.000Z</time>
      </trkpt>
      <trkpt lat="47.64342" lon="6.18413">
        <ele>225.19999694824</ele>
        <time>2012-08-11T08:50:43.000Z</time>
      </trkpt>
      <trkpt lat="47.64349" lon="6.18398">
        <ele>225.19999694824</ele>
        <time>2012-08-11T08:50:47.000Z</time>
      </trkpt>
      <trkpt lat="47.64365" lon="6.18378">
        <ele>225.19999694824</ele>
        <time>2012-08-11T08:50:54.000Z</time>
      </trkpt>
      <trkpt lat="47.6438" lon="6.18365">
        <ele>225.19999694824</ele>
        <time>2012-08-11T08:51:00.000Z</time>
      </trkpt>
      <trkpt lat="47.64395" lon="6.18349">
        <ele>225.19999694824</ele>
        <time>2012-08-11T08:51:07.000Z</time>
      </trkpt>
      <trkpt lat="47.64413" lon="6.18332">
        <ele>225.19999694824</ele>
        <time>2012-08-11T08:51:14.000Z</time>
      </trkpt>
      <trkpt lat="47.64429" lon="6.18314">
        <ele>225.19999694824</ele>
        <time>2012-08-11T08:51:21.000Z</time>
      </trkpt>
      <trkpt lat="47.64434" lon="6.18308">
        <ele>225.19999694824</ele>
        <time>2012-08-11T08:51:24.000Z</time>
      </trkpt>
      <trkpt lat="47.64436" lon="6.18306">
        <ele>225.19999694824</ele>
        <time>2012-08-11T08:51:27.000Z</time>
      </trkpt>
    </trkseg>
  </trk>
</gpx>